<?xml version="1.0" encoding="UTF-8" standalone="no" ?>
<gpx xmlns="http://www.topografix.com/GPX/1/1" xmlns:xsi="http://www.w3.org/2001/XMLSchema-instance" xsi:schemaLocation="http://www.topografix.com/GPX/1/1 http://www.topografix.com/GPX/1/1/gpx.xsd" version="1.1" creator="VisuGPX - https://www.visugpx.com">
  <metadata>
    <name>Circuit des lacs</name>
    <desc><![CDATA[[b]Circuit des lacs Gravereitte, Nègre, Bresses[/b]]]></desc>
  </metadata>
  <trk>
    <name><![CDATA[OCT-21-12 03:51:05 PM]]></name>
    <trkseg>
      <trkpt lat="44.12604" lon="7.26125">
        <ele>1667.06</ele>
        <time>2012-10-21T05:57:39Z</time>
      </trkpt>
      <trkpt lat="44.12604" lon="7.26124">
        <ele>1667.54</ele>
        <time>2012-10-21T05:57:40Z</time>
      </trkpt>
      <trkpt lat="44.12603" lon="7.26123">
        <ele>1667.54</ele>
        <time>2012-10-21T05:57:41Z</time>
      </trkpt>
      <trkpt lat="44.12602" lon="7.26129">
        <ele>1668.02</ele>
        <time>2012-10-21T06:01:07Z</time>
      </trkpt>
      <trkpt lat="44.12603" lon="7.26127">
        <ele>1668.51</ele>
        <time>2012-10-21T06:01:20Z</time>
      </trkpt>
      <trkpt lat="44.12603" lon="7.26123">
        <ele>1668.99</ele>
        <time>2012-10-21T06:02:36Z</time>
      </trkpt>
      <trkpt lat="44.12602" lon="7.2612">
        <ele>1669.47</ele>
        <time>2012-10-21T06:02:55Z</time>
      </trkpt>
      <trkpt lat="44.12601" lon="7.26113">
        <ele>1669.47</ele>
        <time>2012-10-21T06:03:06Z</time>
      </trkpt>
      <trkpt lat="44.12605" lon="7.26103">
        <ele>1670.91</ele>
        <time>2012-10-21T06:03:16Z</time>
      </trkpt>
      <trkpt lat="44.12605" lon="7.261">
        <ele>1670.91</ele>
        <time>2012-10-21T06:03:18Z</time>
      </trkpt>
      <trkpt lat="44.12606" lon="7.26094">
        <ele>1671.39</ele>
        <time>2012-10-21T06:03:22Z</time>
      </trkpt>
      <trkpt lat="44.1261" lon="7.26078">
        <ele>1672.35</ele>
        <time>2012-10-21T06:03:33Z</time>
      </trkpt>
      <trkpt lat="44.12609" lon="7.26077">
        <ele>1672.83</ele>
        <time>2012-10-21T06:03:34Z</time>
      </trkpt>
      <trkpt lat="44.12608" lon="7.26059">
        <ele>1673.31</ele>
        <time>2012-10-21T06:03:45Z</time>
      </trkpt>
      <trkpt lat="44.12604" lon="7.26049">
        <ele>1674.75</ele>
        <time>2012-10-21T06:03:55Z</time>
      </trkpt>
      <trkpt lat="44.12604" lon="7.26048">
        <ele>1674.75</ele>
        <time>2012-10-21T06:03:56Z</time>
      </trkpt>
      <trkpt lat="44.12605" lon="7.26045">
        <ele>1675.23</ele>
        <time>2012-10-21T06:03:58Z</time>
      </trkpt>
      <trkpt lat="44.12605" lon="7.26042">
        <ele>1675.23</ele>
        <time>2012-10-21T06:04:04Z</time>
      </trkpt>
      <trkpt lat="44.12606" lon="7.26033">
        <ele>1676.68</ele>
        <time>2012-10-21T06:04:12Z</time>
      </trkpt>
      <trkpt lat="44.12607" lon="7.26026">
        <ele>1677.16</ele>
        <time>2012-10-21T06:04:17Z</time>
      </trkpt>
      <trkpt lat="44.12608" lon="7.26023">
        <ele>1677.16</ele>
        <time>2012-10-21T06:04:19Z</time>
      </trkpt>
      <trkpt lat="44.1261" lon="7.26012">
        <ele>1677.64</ele>
        <time>2012-10-21T06:04:29Z</time>
      </trkpt>
      <trkpt lat="44.12618" lon="7.26003">
        <ele>1679.08</ele>
        <time>2012-10-21T06:04:40Z</time>
      </trkpt>
      <trkpt lat="44.12624" lon="7.2599">
        <ele>1680.52</ele>
        <time>2012-10-21T06:04:52Z</time>
      </trkpt>
      <trkpt lat="44.12629" lon="7.25976">
        <ele>1681.96</ele>
        <time>2012-10-21T06:05:05Z</time>
      </trkpt>
      <trkpt lat="44.12633" lon="7.25966">
        <ele>1683.41</ele>
        <time>2012-10-21T06:05:16Z</time>
      </trkpt>
      <trkpt lat="44.12634" lon="7.25957">
        <ele>1684.85</ele>
        <time>2012-10-21T06:05:25Z</time>
      </trkpt>
      <trkpt lat="44.12637" lon="7.2595">
        <ele>1685.81</ele>
        <time>2012-10-21T06:05:38Z</time>
      </trkpt>
      <trkpt lat="44.12638" lon="7.25946">
        <ele>1686.77</ele>
        <time>2012-10-21T06:05:42Z</time>
      </trkpt>
      <trkpt lat="44.12636" lon="7.25929">
        <ele>1687.73</ele>
        <time>2012-10-21T06:05:54Z</time>
      </trkpt>
      <trkpt lat="44.12637" lon="7.25922">
        <ele>1689.17</ele>
        <time>2012-10-21T06:06:06Z</time>
      </trkpt>
      <trkpt lat="44.12635" lon="7.25907">
        <ele>1690.62</ele>
        <time>2012-10-21T06:06:18Z</time>
      </trkpt>
      <trkpt lat="44.12636" lon="7.25898">
        <ele>1692.54</ele>
        <time>2012-10-21T06:06:32Z</time>
      </trkpt>
      <trkpt lat="44.1263" lon="7.25882">
        <ele>1694.94</ele>
        <time>2012-10-21T06:06:49Z</time>
      </trkpt>
      <trkpt lat="44.12626" lon="7.25869">
        <ele>1696.86</ele>
        <time>2012-10-21T06:07:01Z</time>
      </trkpt>
      <trkpt lat="44.1262" lon="7.25849">
        <ele>1698.31</ele>
        <time>2012-10-21T06:07:15Z</time>
      </trkpt>
      <trkpt lat="44.12614" lon="7.25825">
        <ele>1699.75</ele>
        <time>2012-10-21T06:07:31Z</time>
      </trkpt>
      <trkpt lat="44.12614" lon="7.25813">
        <ele>1700.23</ele>
        <time>2012-10-21T06:07:38Z</time>
      </trkpt>
      <trkpt lat="44.12617" lon="7.25795">
        <ele>1701.67</ele>
        <time>2012-10-21T06:07:51Z</time>
      </trkpt>
      <trkpt lat="44.12624" lon="7.25791">
        <ele>1703.59</ele>
        <time>2012-10-21T06:08:05Z</time>
      </trkpt>
      <trkpt lat="44.12625" lon="7.25786">
        <ele>1704.07</ele>
        <time>2012-10-21T06:08:11Z</time>
      </trkpt>
      <trkpt lat="44.12632" lon="7.25779">
        <ele>1705.52</ele>
        <time>2012-10-21T06:08:23Z</time>
      </trkpt>
      <trkpt lat="44.12642" lon="7.25776">
        <ele>1706.48</ele>
        <time>2012-10-21T06:08:35Z</time>
      </trkpt>
      <trkpt lat="44.12646" lon="7.25768">
        <ele>1707.92</ele>
        <time>2012-10-21T06:08:49Z</time>
      </trkpt>
      <trkpt lat="44.12649" lon="7.2576">
        <ele>1710.32</ele>
        <time>2012-10-21T06:09:03Z</time>
      </trkpt>
      <trkpt lat="44.12655" lon="7.25756">
        <ele>1711.28</ele>
        <time>2012-10-21T06:09:12Z</time>
      </trkpt>
      <trkpt lat="44.12657" lon="7.25751">
        <ele>1712.25</ele>
        <time>2012-10-21T06:09:15Z</time>
      </trkpt>
      <trkpt lat="44.12657" lon="7.25734">
        <ele>1714.17</ele>
        <time>2012-10-21T06:09:27Z</time>
      </trkpt>
      <trkpt lat="44.12659" lon="7.25724">
        <ele>1716.09</ele>
        <time>2012-10-21T06:09:40Z</time>
      </trkpt>
      <trkpt lat="44.12664" lon="7.25721">
        <ele>1718.49</ele>
        <time>2012-10-21T06:09:51Z</time>
      </trkpt>
      <trkpt lat="44.12665" lon="7.25707">
        <ele>1720.42</ele>
        <time>2012-10-21T06:10:05Z</time>
      </trkpt>
      <trkpt lat="44.12667" lon="7.25695">
        <ele>1722.82</ele>
        <time>2012-10-21T06:10:19Z</time>
      </trkpt>
      <trkpt lat="44.12671" lon="7.25687">
        <ele>1725.22</ele>
        <time>2012-10-21T06:10:31Z</time>
      </trkpt>
      <trkpt lat="44.12675" lon="7.25675">
        <ele>1728.11</ele>
        <time>2012-10-21T06:10:43Z</time>
      </trkpt>
      <trkpt lat="44.12685" lon="7.25662">
        <ele>1729.55</ele>
        <time>2012-10-21T06:10:57Z</time>
      </trkpt>
      <trkpt lat="44.12686" lon="7.25657">
        <ele>1730.51</ele>
        <time>2012-10-21T06:11:02Z</time>
      </trkpt>
      <trkpt lat="44.12686" lon="7.25653">
        <ele>1731.47</ele>
        <time>2012-10-21T06:11:05Z</time>
      </trkpt>
      <trkpt lat="44.12691" lon="7.25645">
        <ele>1731.95</ele>
        <time>2012-10-21T06:11:12Z</time>
      </trkpt>
      <trkpt lat="44.12699" lon="7.25629">
        <ele>1732.91</ele>
        <time>2012-10-21T06:11:24Z</time>
      </trkpt>
      <trkpt lat="44.127" lon="7.25628">
        <ele>1732.91</ele>
        <time>2012-10-21T06:11:25Z</time>
      </trkpt>
      <trkpt lat="44.12701" lon="7.25618">
        <ele>1732.91</ele>
        <time>2012-10-21T06:11:32Z</time>
      </trkpt>
      <trkpt lat="44.12708" lon="7.25602">
        <ele>1735.32</ele>
        <time>2012-10-21T06:11:44Z</time>
      </trkpt>
      <trkpt lat="44.12711" lon="7.25597">
        <ele>1735.32</ele>
        <time>2012-10-21T06:11:48Z</time>
      </trkpt>
      <trkpt lat="44.12711" lon="7.25577">
        <ele>1736.28</ele>
        <time>2012-10-21T06:12:02Z</time>
      </trkpt>
      <trkpt lat="44.12715" lon="7.25572">
        <ele>1736.76</ele>
        <time>2012-10-21T06:12:08Z</time>
      </trkpt>
      <trkpt lat="44.1272" lon="7.25566">
        <ele>1737.72</ele>
        <time>2012-10-21T06:12:15Z</time>
      </trkpt>
      <trkpt lat="44.12723" lon="7.25552">
        <ele>1740.12</ele>
        <time>2012-10-21T06:12:30Z</time>
      </trkpt>
      <trkpt lat="44.12723" lon="7.25551">
        <ele>1740.12</ele>
        <time>2012-10-21T06:12:31Z</time>
      </trkpt>
      <trkpt lat="44.12721" lon="7.25538">
        <ele>1742.53</ele>
        <time>2012-10-21T06:12:43Z</time>
      </trkpt>
      <trkpt lat="44.12721" lon="7.25537">
        <ele>1742.05</ele>
        <time>2012-10-21T06:12:44Z</time>
      </trkpt>
      <trkpt lat="44.12722" lon="7.25522">
        <ele>1744.45</ele>
        <time>2012-10-21T06:12:58Z</time>
      </trkpt>
      <trkpt lat="44.12723" lon="7.25508">
        <ele>1745.41</ele>
        <time>2012-10-21T06:13:11Z</time>
      </trkpt>
      <trkpt lat="44.12726" lon="7.25498">
        <ele>1747.81</ele>
        <time>2012-10-21T06:13:24Z</time>
      </trkpt>
      <trkpt lat="44.12724" lon="7.25489">
        <ele>1749.74</ele>
        <time>2012-10-21T06:13:39Z</time>
      </trkpt>
      <trkpt lat="44.12719" lon="7.25481">
        <ele>1752.14</ele>
        <time>2012-10-21T06:13:53Z</time>
      </trkpt>
      <trkpt lat="44.12719" lon="7.25479">
        <ele>1753.58</ele>
        <time>2012-10-21T06:14:00Z</time>
      </trkpt>
      <trkpt lat="44.12724" lon="7.2547">
        <ele>1755.02</ele>
        <time>2012-10-21T06:14:14Z</time>
      </trkpt>
      <trkpt lat="44.12726" lon="7.2546">
        <ele>1757.43</ele>
        <time>2012-10-21T06:14:29Z</time>
      </trkpt>
      <trkpt lat="44.12726" lon="7.25452">
        <ele>1758.39</ele>
        <time>2012-10-21T06:14:38Z</time>
      </trkpt>
      <trkpt lat="44.12729" lon="7.25445">
        <ele>1759.35</ele>
        <time>2012-10-21T06:14:46Z</time>
      </trkpt>
      <trkpt lat="44.12736" lon="7.25432">
        <ele>1760.79</ele>
        <time>2012-10-21T06:15:00Z</time>
      </trkpt>
      <trkpt lat="44.12746" lon="7.25418">
        <ele>1762.71</ele>
        <time>2012-10-21T06:15:15Z</time>
      </trkpt>
      <trkpt lat="44.12749" lon="7.25416">
        <ele>1762.71</ele>
        <time>2012-10-21T06:15:18Z</time>
      </trkpt>
      <trkpt lat="44.12751" lon="7.25403">
        <ele>1764.64</ele>
        <time>2012-10-21T06:15:31Z</time>
      </trkpt>
      <trkpt lat="44.12751" lon="7.254">
        <ele>1764.64</ele>
        <time>2012-10-21T06:15:34Z</time>
      </trkpt>
      <trkpt lat="44.12755" lon="7.25391">
        <ele>1765.12</ele>
        <time>2012-10-21T06:15:45Z</time>
      </trkpt>
      <trkpt lat="44.12763" lon="7.25383">
        <ele>1766.56</ele>
        <time>2012-10-21T06:16:01Z</time>
      </trkpt>
      <trkpt lat="44.12768" lon="7.25363">
        <ele>1767.52</ele>
        <time>2012-10-21T06:16:15Z</time>
      </trkpt>
      <trkpt lat="44.12773" lon="7.25356">
        <ele>1768.48</ele>
        <time>2012-10-21T06:16:22Z</time>
      </trkpt>
      <trkpt lat="44.12773" lon="7.25345">
        <ele>1769.92</ele>
        <time>2012-10-21T06:16:36Z</time>
      </trkpt>
      <trkpt lat="44.12779" lon="7.25333">
        <ele>1771.37</ele>
        <time>2012-10-21T06:16:52Z</time>
      </trkpt>
      <trkpt lat="44.12784" lon="7.25317">
        <ele>1773.77</ele>
        <time>2012-10-21T06:17:04Z</time>
      </trkpt>
      <trkpt lat="44.12785" lon="7.25313">
        <ele>1775.69</ele>
        <time>2012-10-21T06:17:17Z</time>
      </trkpt>
      <trkpt lat="44.1279" lon="7.25299">
        <ele>1776.65</ele>
        <time>2012-10-21T06:17:29Z</time>
      </trkpt>
      <trkpt lat="44.12797" lon="7.25287">
        <ele>1778.58</ele>
        <time>2012-10-21T06:17:43Z</time>
      </trkpt>
      <trkpt lat="44.128" lon="7.25283">
        <ele>1780.5</ele>
        <time>2012-10-21T06:17:55Z</time>
      </trkpt>
      <trkpt lat="44.12803" lon="7.25274">
        <ele>1782.42</ele>
        <time>2012-10-21T06:18:10Z</time>
      </trkpt>
      <trkpt lat="44.12805" lon="7.25262">
        <ele>1784.34</ele>
        <time>2012-10-21T06:18:25Z</time>
      </trkpt>
      <trkpt lat="44.12809" lon="7.25248">
        <ele>1786.75</ele>
        <time>2012-10-21T06:18:38Z</time>
      </trkpt>
      <trkpt lat="44.12814" lon="7.25239">
        <ele>1788.67</ele>
        <time>2012-10-21T06:18:53Z</time>
      </trkpt>
      <trkpt lat="44.12818" lon="7.25231">
        <ele>1790.11</ele>
        <time>2012-10-21T06:19:05Z</time>
      </trkpt>
      <trkpt lat="44.12823" lon="7.25217">
        <ele>1792.52</ele>
        <time>2012-10-21T06:19:19Z</time>
      </trkpt>
      <trkpt lat="44.12828" lon="7.25206">
        <ele>1793.48</ele>
        <time>2012-10-21T06:19:30Z</time>
      </trkpt>
      <trkpt lat="44.12829" lon="7.25203">
        <ele>1793.96</ele>
        <time>2012-10-21T06:19:33Z</time>
      </trkpt>
      <trkpt lat="44.12837" lon="7.25195">
        <ele>1795.4</ele>
        <time>2012-10-21T06:19:46Z</time>
      </trkpt>
      <trkpt lat="44.12845" lon="7.25183">
        <ele>1795.88</ele>
        <time>2012-10-21T06:19:58Z</time>
      </trkpt>
      <trkpt lat="44.1285" lon="7.25171">
        <ele>1797.32</ele>
        <time>2012-10-21T06:20:10Z</time>
      </trkpt>
      <trkpt lat="44.12852" lon="7.25161">
        <ele>1798.28</ele>
        <time>2012-10-21T06:20:19Z</time>
      </trkpt>
      <trkpt lat="44.12854" lon="7.25153">
        <ele>1799.73</ele>
        <time>2012-10-21T06:20:27Z</time>
      </trkpt>
      <trkpt lat="44.12855" lon="7.25137">
        <ele>1801.17</ele>
        <time>2012-10-21T06:20:42Z</time>
      </trkpt>
      <trkpt lat="44.12862" lon="7.25126">
        <ele>1802.61</ele>
        <time>2012-10-21T06:20:52Z</time>
      </trkpt>
      <trkpt lat="44.12864" lon="7.25124">
        <ele>1802.61</ele>
        <time>2012-10-21T06:20:55Z</time>
      </trkpt>
      <trkpt lat="44.12864" lon="7.2512">
        <ele>1803.57</ele>
        <time>2012-10-21T06:21:00Z</time>
      </trkpt>
      <trkpt lat="44.12867" lon="7.25114">
        <ele>1803.57</ele>
        <time>2012-10-21T06:21:07Z</time>
      </trkpt>
      <trkpt lat="44.12872" lon="7.25113">
        <ele>1804.53</ele>
        <time>2012-10-21T06:21:15Z</time>
      </trkpt>
      <trkpt lat="44.12878" lon="7.25104">
        <ele>1805.01</ele>
        <time>2012-10-21T06:21:23Z</time>
      </trkpt>
      <trkpt lat="44.12885" lon="7.2509">
        <ele>1806.94</ele>
        <time>2012-10-21T06:21:36Z</time>
      </trkpt>
      <trkpt lat="44.12888" lon="7.25084">
        <ele>1808.38</ele>
        <time>2012-10-21T06:21:49Z</time>
      </trkpt>
      <trkpt lat="44.12895" lon="7.25077">
        <ele>1809.82</ele>
        <time>2012-10-21T06:22:01Z</time>
      </trkpt>
      <trkpt lat="44.12901" lon="7.2506">
        <ele>1811.74</ele>
        <time>2012-10-21T06:22:14Z</time>
      </trkpt>
      <trkpt lat="44.129" lon="7.25047">
        <ele>1813.66</ele>
        <time>2012-10-21T06:22:28Z</time>
      </trkpt>
      <trkpt lat="44.129" lon="7.25046">
        <ele>1814.63</ele>
        <time>2012-10-21T06:22:29Z</time>
      </trkpt>
      <trkpt lat="44.12903" lon="7.25035">
        <ele>1815.59</ele>
        <time>2012-10-21T06:22:43Z</time>
      </trkpt>
      <trkpt lat="44.12909" lon="7.25024">
        <ele>1817.03</ele>
        <time>2012-10-21T06:22:57Z</time>
      </trkpt>
      <trkpt lat="44.12915" lon="7.25013">
        <ele>1818.95</ele>
        <time>2012-10-21T06:23:09Z</time>
      </trkpt>
      <trkpt lat="44.12921" lon="7.25007">
        <ele>1820.39</ele>
        <time>2012-10-21T06:23:20Z</time>
      </trkpt>
      <trkpt lat="44.12927" lon="7.24998">
        <ele>1821.35</ele>
        <time>2012-10-21T06:23:31Z</time>
      </trkpt>
      <trkpt lat="44.12933" lon="7.24984">
        <ele>1822.8</ele>
        <time>2012-10-21T06:23:46Z</time>
      </trkpt>
      <trkpt lat="44.12938" lon="7.24976">
        <ele>1824.24</ele>
        <time>2012-10-21T06:23:59Z</time>
      </trkpt>
      <trkpt lat="44.12939" lon="7.24972">
        <ele>1824.72</ele>
        <time>2012-10-21T06:24:03Z</time>
      </trkpt>
      <trkpt lat="44.12942" lon="7.24964">
        <ele>1826.64</ele>
        <time>2012-10-21T06:24:16Z</time>
      </trkpt>
      <trkpt lat="44.12944" lon="7.24959">
        <ele>1827.12</ele>
        <time>2012-10-21T06:24:22Z</time>
      </trkpt>
      <trkpt lat="44.12952" lon="7.24952">
        <ele>1828.56</ele>
        <time>2012-10-21T06:24:35Z</time>
      </trkpt>
      <trkpt lat="44.1296" lon="7.24942">
        <ele>1830.01</ele>
        <time>2012-10-21T06:24:48Z</time>
      </trkpt>
      <trkpt lat="44.12965" lon="7.24939">
        <ele>1831.93</ele>
        <time>2012-10-21T06:24:55Z</time>
      </trkpt>
      <trkpt lat="44.12972" lon="7.24933">
        <ele>1832.41</ele>
        <time>2012-10-21T06:25:06Z</time>
      </trkpt>
      <trkpt lat="44.12978" lon="7.24931">
        <ele>1833.85</ele>
        <time>2012-10-21T06:25:15Z</time>
      </trkpt>
      <trkpt lat="44.12988" lon="7.24929">
        <ele>1835.29</ele>
        <time>2012-10-21T06:25:27Z</time>
      </trkpt>
      <trkpt lat="44.12994" lon="7.24921">
        <ele>1836.74</ele>
        <time>2012-10-21T06:25:40Z</time>
      </trkpt>
      <trkpt lat="44.12995" lon="7.24921">
        <ele>1837.22</ele>
        <time>2012-10-21T06:25:42Z</time>
      </trkpt>
      <trkpt lat="44.13006" lon="7.24908">
        <ele>1839.62</ele>
        <time>2012-10-21T06:25:57Z</time>
      </trkpt>
      <trkpt lat="44.13009" lon="7.24901">
        <ele>1841.54</ele>
        <time>2012-10-21T06:26:10Z</time>
      </trkpt>
      <trkpt lat="44.13015" lon="7.24893">
        <ele>1842.98</ele>
        <time>2012-10-21T06:26:22Z</time>
      </trkpt>
      <trkpt lat="44.13016" lon="7.24892">
        <ele>1843.47</ele>
        <time>2012-10-21T06:26:24Z</time>
      </trkpt>
      <trkpt lat="44.13021" lon="7.2488">
        <ele>1844.91</ele>
        <time>2012-10-21T06:26:37Z</time>
      </trkpt>
      <trkpt lat="44.13026" lon="7.24872">
        <ele>1846.83</ele>
        <time>2012-10-21T06:26:47Z</time>
      </trkpt>
      <trkpt lat="44.13033" lon="7.24861">
        <ele>1848.27</ele>
        <time>2012-10-21T06:26:59Z</time>
      </trkpt>
      <trkpt lat="44.13038" lon="7.24859">
        <ele>1849.71</ele>
        <time>2012-10-21T06:27:09Z</time>
      </trkpt>
      <trkpt lat="44.13051" lon="7.24854">
        <ele>1850.19</ele>
        <time>2012-10-21T06:27:21Z</time>
      </trkpt>
      <trkpt lat="44.13056" lon="7.24835">
        <ele>1850.19</ele>
        <time>2012-10-21T06:27:33Z</time>
      </trkpt>
      <trkpt lat="44.13061" lon="7.24829">
        <ele>1850.68</ele>
        <time>2012-10-21T06:27:43Z</time>
      </trkpt>
      <trkpt lat="44.13065" lon="7.24825">
        <ele>1851.64</ele>
        <time>2012-10-21T06:27:50Z</time>
      </trkpt>
      <trkpt lat="44.13072" lon="7.2482">
        <ele>1852.12</ele>
        <time>2012-10-21T06:27:59Z</time>
      </trkpt>
      <trkpt lat="44.13074" lon="7.24807">
        <ele>1854.04</ele>
        <time>2012-10-21T06:28:12Z</time>
      </trkpt>
      <trkpt lat="44.13077" lon="7.24801">
        <ele>1854.04</ele>
        <time>2012-10-21T06:28:19Z</time>
      </trkpt>
      <trkpt lat="44.13081" lon="7.24785">
        <ele>1855.48</ele>
        <time>2012-10-21T06:28:32Z</time>
      </trkpt>
      <trkpt lat="44.13083" lon="7.24771">
        <ele>1856.92</ele>
        <time>2012-10-21T06:28:46Z</time>
      </trkpt>
      <trkpt lat="44.13086" lon="7.24764">
        <ele>1857.89</ele>
        <time>2012-10-21T06:28:54Z</time>
      </trkpt>
      <trkpt lat="44.13089" lon="7.24761">
        <ele>1858.37</ele>
        <time>2012-10-21T06:28:59Z</time>
      </trkpt>
      <trkpt lat="44.13095" lon="7.24746">
        <ele>1859.81</ele>
        <time>2012-10-21T06:29:13Z</time>
      </trkpt>
      <trkpt lat="44.13098" lon="7.24733">
        <ele>1861.25</ele>
        <time>2012-10-21T06:29:25Z</time>
      </trkpt>
      <trkpt lat="44.13106" lon="7.24726">
        <ele>1862.69</ele>
        <time>2012-10-21T06:29:37Z</time>
      </trkpt>
      <trkpt lat="44.13115" lon="7.24724">
        <ele>1864.13</ele>
        <time>2012-10-21T06:29:49Z</time>
      </trkpt>
      <trkpt lat="44.13121" lon="7.24717">
        <ele>1865.09</ele>
        <time>2012-10-21T06:30:00Z</time>
      </trkpt>
      <trkpt lat="44.1313" lon="7.24714">
        <ele>1866.06</ele>
        <time>2012-10-21T06:30:12Z</time>
      </trkpt>
      <trkpt lat="44.13138" lon="7.24705">
        <ele>1866.54</ele>
        <time>2012-10-21T06:30:22Z</time>
      </trkpt>
      <trkpt lat="44.13138" lon="7.24704">
        <ele>1867.5</ele>
        <time>2012-10-21T06:30:23Z</time>
      </trkpt>
      <trkpt lat="44.13142" lon="7.247">
        <ele>1867.98</ele>
        <time>2012-10-21T06:30:28Z</time>
      </trkpt>
      <trkpt lat="44.13153" lon="7.24688">
        <ele>1869.42</ele>
        <time>2012-10-21T06:30:41Z</time>
      </trkpt>
      <trkpt lat="44.13161" lon="7.24682">
        <ele>1870.86</ele>
        <time>2012-10-21T06:30:53Z</time>
      </trkpt>
      <trkpt lat="44.13168" lon="7.24672">
        <ele>1872.3</ele>
        <time>2012-10-21T06:31:04Z</time>
      </trkpt>
      <trkpt lat="44.13177" lon="7.24666">
        <ele>1873.75</ele>
        <time>2012-10-21T06:31:17Z</time>
      </trkpt>
      <trkpt lat="44.13185" lon="7.24654">
        <ele>1875.67</ele>
        <time>2012-10-21T06:31:30Z</time>
      </trkpt>
      <trkpt lat="44.13188" lon="7.24652">
        <ele>1875.67</ele>
        <time>2012-10-21T06:31:33Z</time>
      </trkpt>
      <trkpt lat="44.13196" lon="7.24641">
        <ele>1877.11</ele>
        <time>2012-10-21T06:31:47Z</time>
      </trkpt>
      <trkpt lat="44.13203" lon="7.24635">
        <ele>1877.11</ele>
        <time>2012-10-21T06:31:57Z</time>
      </trkpt>
      <trkpt lat="44.13208" lon="7.24631">
        <ele>1879.03</ele>
        <time>2012-10-21T06:32:04Z</time>
      </trkpt>
      <trkpt lat="44.13217" lon="7.24625">
        <ele>1880.48</ele>
        <time>2012-10-21T06:32:16Z</time>
      </trkpt>
      <trkpt lat="44.13222" lon="7.2462">
        <ele>1882.4</ele>
        <time>2012-10-21T06:32:28Z</time>
      </trkpt>
      <trkpt lat="44.13225" lon="7.24611">
        <ele>1882.88</ele>
        <time>2012-10-21T06:32:38Z</time>
      </trkpt>
      <trkpt lat="44.13228" lon="7.24605">
        <ele>1884.32</ele>
        <time>2012-10-21T06:32:43Z</time>
      </trkpt>
      <trkpt lat="44.13232" lon="7.24589">
        <ele>1885.28</ele>
        <time>2012-10-21T06:32:58Z</time>
      </trkpt>
      <trkpt lat="44.13237" lon="7.24577">
        <ele>1886.24</ele>
        <time>2012-10-21T06:33:07Z</time>
      </trkpt>
      <trkpt lat="44.13238" lon="7.24573">
        <ele>1886.24</ele>
        <time>2012-10-21T06:33:10Z</time>
      </trkpt>
      <trkpt lat="44.13239" lon="7.24569">
        <ele>1886.24</ele>
        <time>2012-10-21T06:33:13Z</time>
      </trkpt>
      <trkpt lat="44.13244" lon="7.2456">
        <ele>1887.69</ele>
        <time>2012-10-21T06:33:25Z</time>
      </trkpt>
      <trkpt lat="44.13248" lon="7.24553">
        <ele>1888.65</ele>
        <time>2012-10-21T06:33:33Z</time>
      </trkpt>
      <trkpt lat="44.1325" lon="7.24547">
        <ele>1889.61</ele>
        <time>2012-10-21T06:33:38Z</time>
      </trkpt>
      <trkpt lat="44.13254" lon="7.24534">
        <ele>1891.05</ele>
        <time>2012-10-21T06:33:49Z</time>
      </trkpt>
      <trkpt lat="44.1326" lon="7.2452">
        <ele>1892.49</ele>
        <time>2012-10-21T06:34:01Z</time>
      </trkpt>
      <trkpt lat="44.13261" lon="7.24516">
        <ele>1892.49</ele>
        <time>2012-10-21T06:34:04Z</time>
      </trkpt>
      <trkpt lat="44.13265" lon="7.24507">
        <ele>1893.45</ele>
        <time>2012-10-21T06:34:11Z</time>
      </trkpt>
      <trkpt lat="44.13268" lon="7.24494">
        <ele>1893.45</ele>
        <time>2012-10-21T06:34:19Z</time>
      </trkpt>
      <trkpt lat="44.13269" lon="7.24486">
        <ele>1895.38</ele>
        <time>2012-10-21T06:34:29Z</time>
      </trkpt>
      <trkpt lat="44.13273" lon="7.24475">
        <ele>1895.86</ele>
        <time>2012-10-21T06:34:37Z</time>
      </trkpt>
      <trkpt lat="44.13278" lon="7.24463">
        <ele>1897.3</ele>
        <time>2012-10-21T06:34:48Z</time>
      </trkpt>
      <trkpt lat="44.13279" lon="7.24462">
        <ele>1896.82</ele>
        <time>2012-10-21T06:34:50Z</time>
      </trkpt>
      <trkpt lat="44.13281" lon="7.24456">
        <ele>1897.78</ele>
        <time>2012-10-21T06:34:56Z</time>
      </trkpt>
      <trkpt lat="44.13287" lon="7.24444">
        <ele>1899.22</ele>
        <time>2012-10-21T06:35:08Z</time>
      </trkpt>
      <trkpt lat="44.13289" lon="7.24437">
        <ele>1899.7</ele>
        <time>2012-10-21T06:35:15Z</time>
      </trkpt>
      <trkpt lat="44.13297" lon="7.24431">
        <ele>1902.11</ele>
        <time>2012-10-21T06:35:28Z</time>
      </trkpt>
      <trkpt lat="44.13306" lon="7.24422">
        <ele>1904.03</ele>
        <time>2012-10-21T06:35:42Z</time>
      </trkpt>
      <trkpt lat="44.13313" lon="7.24411">
        <ele>1904.03</ele>
        <time>2012-10-21T06:35:52Z</time>
      </trkpt>
      <trkpt lat="44.13317" lon="7.24402">
        <ele>1904.99</ele>
        <time>2012-10-21T06:35:59Z</time>
      </trkpt>
      <trkpt lat="44.13319" lon="7.24399">
        <ele>1904.99</ele>
        <time>2012-10-21T06:36:04Z</time>
      </trkpt>
      <trkpt lat="44.13323" lon="7.24388">
        <ele>1905.47</ele>
        <time>2012-10-21T06:36:11Z</time>
      </trkpt>
      <trkpt lat="44.13325" lon="7.24376">
        <ele>1906.43</ele>
        <time>2012-10-21T06:36:19Z</time>
      </trkpt>
      <trkpt lat="44.13329" lon="7.24369">
        <ele>1906.91</ele>
        <time>2012-10-21T06:36:27Z</time>
      </trkpt>
      <trkpt lat="44.13334" lon="7.24356">
        <ele>1908.35</ele>
        <time>2012-10-21T06:36:38Z</time>
      </trkpt>
      <trkpt lat="44.13339" lon="7.24346">
        <ele>1910.28</ele>
        <time>2012-10-21T06:36:49Z</time>
      </trkpt>
      <trkpt lat="44.13339" lon="7.24332">
        <ele>1911.24</ele>
        <time>2012-10-21T06:37:01Z</time>
      </trkpt>
      <trkpt lat="44.13341" lon="7.24317">
        <ele>1913.64</ele>
        <time>2012-10-21T06:37:13Z</time>
      </trkpt>
      <trkpt lat="44.13347" lon="7.24307">
        <ele>1914.12</ele>
        <time>2012-10-21T06:37:22Z</time>
      </trkpt>
      <trkpt lat="44.1335" lon="7.24299">
        <ele>1916.04</ele>
        <time>2012-10-21T06:37:31Z</time>
      </trkpt>
      <trkpt lat="44.13355" lon="7.24292">
        <ele>1917.01</ele>
        <time>2012-10-21T06:37:41Z</time>
      </trkpt>
      <trkpt lat="44.1336" lon="7.2428">
        <ele>1918.93</ele>
        <time>2012-10-21T06:37:53Z</time>
      </trkpt>
      <trkpt lat="44.13369" lon="7.24266">
        <ele>1920.37</ele>
        <time>2012-10-21T06:38:05Z</time>
      </trkpt>
      <trkpt lat="44.13381" lon="7.24259">
        <ele>1921.81</ele>
        <time>2012-10-21T06:38:16Z</time>
      </trkpt>
      <trkpt lat="44.13388" lon="7.24259">
        <ele>1922.77</ele>
        <time>2012-10-21T06:38:21Z</time>
      </trkpt>
      <trkpt lat="44.13397" lon="7.24245">
        <ele>1922.77</ele>
        <time>2012-10-21T06:38:34Z</time>
      </trkpt>
      <trkpt lat="44.13405" lon="7.24231">
        <ele>1924.7</ele>
        <time>2012-10-21T06:38:46Z</time>
      </trkpt>
      <trkpt lat="44.13413" lon="7.24218">
        <ele>1925.66</ele>
        <time>2012-10-21T06:38:57Z</time>
      </trkpt>
      <trkpt lat="44.13416" lon="7.24215">
        <ele>1926.14</ele>
        <time>2012-10-21T06:39:01Z</time>
      </trkpt>
      <trkpt lat="44.13425" lon="7.24205">
        <ele>1927.58</ele>
        <time>2012-10-21T06:39:14Z</time>
      </trkpt>
      <trkpt lat="44.13434" lon="7.24194">
        <ele>1928.06</ele>
        <time>2012-10-21T06:39:26Z</time>
      </trkpt>
      <trkpt lat="44.13443" lon="7.24183">
        <ele>1929.5</ele>
        <time>2012-10-21T06:39:39Z</time>
      </trkpt>
      <trkpt lat="44.1345" lon="7.24174">
        <ele>1930.46</ele>
        <time>2012-10-21T06:39:49Z</time>
      </trkpt>
      <trkpt lat="44.13452" lon="7.24167">
        <ele>1930.95</ele>
        <time>2012-10-21T06:39:54Z</time>
      </trkpt>
      <trkpt lat="44.13456" lon="7.2416">
        <ele>1931.91</ele>
        <time>2012-10-21T06:40:00Z</time>
      </trkpt>
      <trkpt lat="44.13463" lon="7.24147">
        <ele>1931.91</ele>
        <time>2012-10-21T06:40:10Z</time>
      </trkpt>
      <trkpt lat="44.13471" lon="7.24129">
        <ele>1933.35</ele>
        <time>2012-10-21T06:40:25Z</time>
      </trkpt>
      <trkpt lat="44.13473" lon="7.24121">
        <ele>1933.83</ele>
        <time>2012-10-21T06:40:31Z</time>
      </trkpt>
      <trkpt lat="44.13472" lon="7.24108">
        <ele>1934.79</ele>
        <time>2012-10-21T06:40:44Z</time>
      </trkpt>
      <trkpt lat="44.1347" lon="7.24101">
        <ele>1935.27</ele>
        <time>2012-10-21T06:40:51Z</time>
      </trkpt>
      <trkpt lat="44.13467" lon="7.24085">
        <ele>1936.23</ele>
        <time>2012-10-21T06:41:03Z</time>
      </trkpt>
      <trkpt lat="44.13468" lon="7.24077">
        <ele>1938.16</ele>
        <time>2012-10-21T06:41:12Z</time>
      </trkpt>
      <trkpt lat="44.13469" lon="7.24061">
        <ele>1938.64</ele>
        <time>2012-10-21T06:41:26Z</time>
      </trkpt>
      <trkpt lat="44.13472" lon="7.24047">
        <ele>1940.08</ele>
        <time>2012-10-21T06:41:36Z</time>
      </trkpt>
      <trkpt lat="44.13473" lon="7.24044">
        <ele>1940.56</ele>
        <time>2012-10-21T06:41:39Z</time>
      </trkpt>
      <trkpt lat="44.13478" lon="7.24035">
        <ele>1941.52</ele>
        <time>2012-10-21T06:41:53Z</time>
      </trkpt>
      <trkpt lat="44.13474" lon="7.24018">
        <ele>1942</ele>
        <time>2012-10-21T06:42:06Z</time>
      </trkpt>
      <trkpt lat="44.13472" lon="7.24">
        <ele>1943.44</ele>
        <time>2012-10-21T06:42:19Z</time>
      </trkpt>
      <trkpt lat="44.1347" lon="7.23992">
        <ele>1943.44</ele>
        <time>2012-10-21T06:42:25Z</time>
      </trkpt>
      <trkpt lat="44.13467" lon="7.23976">
        <ele>1945.36</ele>
        <time>2012-10-21T06:42:40Z</time>
      </trkpt>
      <trkpt lat="44.13467" lon="7.23966">
        <ele>1947.29</ele>
        <time>2012-10-21T06:42:52Z</time>
      </trkpt>
      <trkpt lat="44.13468" lon="7.2395">
        <ele>1948.73</ele>
        <time>2012-10-21T06:43:06Z</time>
      </trkpt>
      <trkpt lat="44.13473" lon="7.2395">
        <ele>1950.65</ele>
        <time>2012-10-21T06:43:17Z</time>
      </trkpt>
      <trkpt lat="44.13474" lon="7.23946">
        <ele>1950.65</ele>
        <time>2012-10-21T06:43:20Z</time>
      </trkpt>
      <trkpt lat="44.13479" lon="7.2394">
        <ele>1951.61</ele>
        <time>2012-10-21T06:43:24Z</time>
      </trkpt>
      <trkpt lat="44.13489" lon="7.23932">
        <ele>1951.61</ele>
        <time>2012-10-21T06:43:35Z</time>
      </trkpt>
      <trkpt lat="44.13493" lon="7.23921">
        <ele>1954.02</ele>
        <time>2012-10-21T06:43:48Z</time>
      </trkpt>
      <trkpt lat="44.13497" lon="7.23906">
        <ele>1955.94</ele>
        <time>2012-10-21T06:44:01Z</time>
      </trkpt>
      <trkpt lat="44.13498" lon="7.23904">
        <ele>1956.42</ele>
        <time>2012-10-21T06:44:05Z</time>
      </trkpt>
      <trkpt lat="44.13508" lon="7.23899">
        <ele>1957.38</ele>
        <time>2012-10-21T06:44:17Z</time>
      </trkpt>
      <trkpt lat="44.13512" lon="7.23885">
        <ele>1958.82</ele>
        <time>2012-10-21T06:44:29Z</time>
      </trkpt>
      <trkpt lat="44.13513" lon="7.2388">
        <ele>1959.3</ele>
        <time>2012-10-21T06:44:33Z</time>
      </trkpt>
      <trkpt lat="44.13513" lon="7.23875">
        <ele>1959.78</ele>
        <time>2012-10-21T06:44:39Z</time>
      </trkpt>
      <trkpt lat="44.1352" lon="7.23861">
        <ele>1961.23</ele>
        <time>2012-10-21T06:44:52Z</time>
      </trkpt>
      <trkpt lat="44.13522" lon="7.23858">
        <ele>1960.75</ele>
        <time>2012-10-21T06:44:55Z</time>
      </trkpt>
      <trkpt lat="44.1353" lon="7.23844">
        <ele>1962.19</ele>
        <time>2012-10-21T06:45:06Z</time>
      </trkpt>
      <trkpt lat="44.13535" lon="7.23835">
        <ele>1963.15</ele>
        <time>2012-10-21T06:45:17Z</time>
      </trkpt>
      <trkpt lat="44.13542" lon="7.23825">
        <ele>1964.59</ele>
        <time>2012-10-21T06:45:30Z</time>
      </trkpt>
      <trkpt lat="44.13548" lon="7.23814">
        <ele>1965.07</ele>
        <time>2012-10-21T06:45:42Z</time>
      </trkpt>
      <trkpt lat="44.13551" lon="7.23802">
        <ele>1965.55</ele>
        <time>2012-10-21T06:45:53Z</time>
      </trkpt>
      <trkpt lat="44.13551" lon="7.23799">
        <ele>1966.99</ele>
        <time>2012-10-21T06:46:03Z</time>
      </trkpt>
      <trkpt lat="44.13549" lon="7.23787">
        <ele>1968.44</ele>
        <time>2012-10-21T06:46:13Z</time>
      </trkpt>
      <trkpt lat="44.13548" lon="7.23785">
        <ele>1968.44</ele>
        <time>2012-10-21T06:46:15Z</time>
      </trkpt>
      <trkpt lat="44.13549" lon="7.23763">
        <ele>1970.36</ele>
        <time>2012-10-21T06:46:26Z</time>
      </trkpt>
      <trkpt lat="44.13554" lon="7.23748">
        <ele>1970.84</ele>
        <time>2012-10-21T06:46:34Z</time>
      </trkpt>
      <trkpt lat="44.1356" lon="7.23731">
        <ele>1971.8</ele>
        <time>2012-10-21T06:46:44Z</time>
      </trkpt>
      <trkpt lat="44.13561" lon="7.23722">
        <ele>1972.76</ele>
        <time>2012-10-21T06:46:51Z</time>
      </trkpt>
      <trkpt lat="44.1357" lon="7.23707">
        <ele>1973.72</ele>
        <time>2012-10-21T06:47:04Z</time>
      </trkpt>
      <trkpt lat="44.13575" lon="7.23694">
        <ele>1975.17</ele>
        <time>2012-10-21T06:47:16Z</time>
      </trkpt>
      <trkpt lat="44.1358" lon="7.23688">
        <ele>1975.65</ele>
        <time>2012-10-21T06:47:21Z</time>
      </trkpt>
      <trkpt lat="44.13588" lon="7.23673">
        <ele>1977.09</ele>
        <time>2012-10-21T06:47:35Z</time>
      </trkpt>
      <trkpt lat="44.13591" lon="7.23659">
        <ele>1977.57</ele>
        <time>2012-10-21T06:47:46Z</time>
      </trkpt>
      <trkpt lat="44.13594" lon="7.23654">
        <ele>1978.05</ele>
        <time>2012-10-21T06:47:50Z</time>
      </trkpt>
      <trkpt lat="44.13598" lon="7.23642">
        <ele>1979.01</ele>
        <time>2012-10-21T06:48:02Z</time>
      </trkpt>
      <trkpt lat="44.13599" lon="7.23636">
        <ele>1979.97</ele>
        <time>2012-10-21T06:48:06Z</time>
      </trkpt>
      <trkpt lat="44.136" lon="7.23632">
        <ele>1980.45</ele>
        <time>2012-10-21T06:48:09Z</time>
      </trkpt>
      <trkpt lat="44.13603" lon="7.23625">
        <ele>1980.93</ele>
        <time>2012-10-21T06:48:16Z</time>
      </trkpt>
      <trkpt lat="44.13605" lon="7.23619">
        <ele>1980.93</ele>
        <time>2012-10-21T06:48:21Z</time>
      </trkpt>
      <trkpt lat="44.13608" lon="7.23606">
        <ele>1981.41</ele>
        <time>2012-10-21T06:48:34Z</time>
      </trkpt>
      <trkpt lat="44.13612" lon="7.23594">
        <ele>1983.34</ele>
        <time>2012-10-21T06:48:45Z</time>
      </trkpt>
      <trkpt lat="44.13614" lon="7.2359">
        <ele>1983.34</ele>
        <time>2012-10-21T06:48:50Z</time>
      </trkpt>
      <trkpt lat="44.13622" lon="7.2358">
        <ele>1984.3</ele>
        <time>2012-10-21T06:49:02Z</time>
      </trkpt>
      <trkpt lat="44.13625" lon="7.23577">
        <ele>1985.26</ele>
        <time>2012-10-21T06:49:06Z</time>
      </trkpt>
      <trkpt lat="44.13628" lon="7.23572">
        <ele>1985.74</ele>
        <time>2012-10-21T06:49:10Z</time>
      </trkpt>
      <trkpt lat="44.13636" lon="7.23562">
        <ele>1986.7</ele>
        <time>2012-10-21T06:49:19Z</time>
      </trkpt>
      <trkpt lat="44.13642" lon="7.23555">
        <ele>1987.66</ele>
        <time>2012-10-21T06:49:28Z</time>
      </trkpt>
      <trkpt lat="44.13649" lon="7.23542">
        <ele>1989.1</ele>
        <time>2012-10-21T06:49:40Z</time>
      </trkpt>
      <trkpt lat="44.13657" lon="7.23527">
        <ele>1990.07</ele>
        <time>2012-10-21T06:49:54Z</time>
      </trkpt>
      <trkpt lat="44.13664" lon="7.23515">
        <ele>1991.99</ele>
        <time>2012-10-21T06:50:06Z</time>
      </trkpt>
      <trkpt lat="44.13667" lon="7.23508">
        <ele>1993.43</ele>
        <time>2012-10-21T06:50:17Z</time>
      </trkpt>
      <trkpt lat="44.13666" lon="7.23497">
        <ele>1995.83</ele>
        <time>2012-10-21T06:50:29Z</time>
      </trkpt>
      <trkpt lat="44.13661" lon="7.23487">
        <ele>1997.76</ele>
        <time>2012-10-21T06:50:41Z</time>
      </trkpt>
      <trkpt lat="44.13658" lon="7.23477">
        <ele>1999.2</ele>
        <time>2012-10-21T06:50:53Z</time>
      </trkpt>
      <trkpt lat="44.13657" lon="7.2346">
        <ele>2001.12</ele>
        <time>2012-10-21T06:51:06Z</time>
      </trkpt>
      <trkpt lat="44.13656" lon="7.23458">
        <ele>2001.12</ele>
        <time>2012-10-21T06:51:08Z</time>
      </trkpt>
      <trkpt lat="44.1365" lon="7.2345">
        <ele>2003.04</ele>
        <time>2012-10-21T06:51:19Z</time>
      </trkpt>
      <trkpt lat="44.13645" lon="7.23439">
        <ele>2004.49</ele>
        <time>2012-10-21T06:51:32Z</time>
      </trkpt>
      <trkpt lat="44.13642" lon="7.23427">
        <ele>2006.41</ele>
        <time>2012-10-21T06:51:44Z</time>
      </trkpt>
      <trkpt lat="44.13644" lon="7.23412">
        <ele>2008.33</ele>
        <time>2012-10-21T06:51:56Z</time>
      </trkpt>
      <trkpt lat="44.13644" lon="7.23404">
        <ele>2009.29</ele>
        <time>2012-10-21T06:52:03Z</time>
      </trkpt>
      <trkpt lat="44.13642" lon="7.2339">
        <ele>2010.73</ele>
        <time>2012-10-21T06:52:16Z</time>
      </trkpt>
      <trkpt lat="44.13643" lon="7.23377">
        <ele>2012.66</ele>
        <time>2012-10-21T06:52:28Z</time>
      </trkpt>
      <trkpt lat="44.13642" lon="7.23376">
        <ele>2012.18</ele>
        <time>2012-10-21T06:52:30Z</time>
      </trkpt>
      <trkpt lat="44.13645" lon="7.2337">
        <ele>2011.7</ele>
        <time>2012-10-21T06:52:33Z</time>
      </trkpt>
      <trkpt lat="44.13655" lon="7.2336">
        <ele>2014.1</ele>
        <time>2012-10-21T06:52:47Z</time>
      </trkpt>
      <trkpt lat="44.13662" lon="7.2335">
        <ele>2016.98</ele>
        <time>2012-10-21T06:52:58Z</time>
      </trkpt>
      <trkpt lat="44.13668" lon="7.23338">
        <ele>2016.5</ele>
        <time>2012-10-21T06:53:07Z</time>
      </trkpt>
      <trkpt lat="44.13675" lon="7.23334">
        <ele>2017.94</ele>
        <time>2012-10-21T06:53:14Z</time>
      </trkpt>
      <trkpt lat="44.13688" lon="7.23339">
        <ele>2018.43</ele>
        <time>2012-10-21T06:53:28Z</time>
      </trkpt>
      <trkpt lat="44.13703" lon="7.23346">
        <ele>2019.39</ele>
        <time>2012-10-21T06:53:42Z</time>
      </trkpt>
      <trkpt lat="44.13717" lon="7.23352">
        <ele>2020.35</ele>
        <time>2012-10-21T06:53:56Z</time>
      </trkpt>
      <trkpt lat="44.13726" lon="7.23359">
        <ele>2020.83</ele>
        <time>2012-10-21T06:54:07Z</time>
      </trkpt>
      <trkpt lat="44.13734" lon="7.23369">
        <ele>2022.27</ele>
        <time>2012-10-21T06:54:18Z</time>
      </trkpt>
      <trkpt lat="44.13737" lon="7.23371">
        <ele>2022.75</ele>
        <time>2012-10-21T06:54:21Z</time>
      </trkpt>
      <trkpt lat="44.13741" lon="7.23379">
        <ele>2024.19</ele>
        <time>2012-10-21T06:54:28Z</time>
      </trkpt>
      <trkpt lat="44.1374" lon="7.23393">
        <ele>2025.15</ele>
        <time>2012-10-21T06:54:39Z</time>
      </trkpt>
      <trkpt lat="44.1374" lon="7.23401">
        <ele>2025.64</ele>
        <time>2012-10-21T06:54:45Z</time>
      </trkpt>
      <trkpt lat="44.13737" lon="7.23419">
        <ele>2027.08</ele>
        <time>2012-10-21T06:55:00Z</time>
      </trkpt>
      <trkpt lat="44.13739" lon="7.23431">
        <ele>2028.04</ele>
        <time>2012-10-21T06:55:09Z</time>
      </trkpt>
      <trkpt lat="44.1375" lon="7.23448">
        <ele>2029.48</ele>
        <time>2012-10-21T06:55:24Z</time>
      </trkpt>
      <trkpt lat="44.13755" lon="7.23455">
        <ele>2029.48</ele>
        <time>2012-10-21T06:55:31Z</time>
      </trkpt>
      <trkpt lat="44.13759" lon="7.23464">
        <ele>2030.44</ele>
        <time>2012-10-21T06:55:39Z</time>
      </trkpt>
      <trkpt lat="44.13759" lon="7.23476">
        <ele>2031.88</ele>
        <time>2012-10-21T06:55:49Z</time>
      </trkpt>
      <trkpt lat="44.1376" lon="7.23482">
        <ele>2032.36</ele>
        <time>2012-10-21T06:55:55Z</time>
      </trkpt>
      <trkpt lat="44.13759" lon="7.23504">
        <ele>2033.33</ele>
        <time>2012-10-21T06:56:11Z</time>
      </trkpt>
      <trkpt lat="44.13759" lon="7.23516">
        <ele>2034.29</ele>
        <time>2012-10-21T06:56:19Z</time>
      </trkpt>
      <trkpt lat="44.13756" lon="7.23534">
        <ele>2035.73</ele>
        <time>2012-10-21T06:56:32Z</time>
      </trkpt>
      <trkpt lat="44.13758" lon="7.23542">
        <ele>2035.73</ele>
        <time>2012-10-21T06:56:39Z</time>
      </trkpt>
      <trkpt lat="44.13768" lon="7.23555">
        <ele>2036.69</ele>
        <time>2012-10-21T06:56:52Z</time>
      </trkpt>
      <trkpt lat="44.13774" lon="7.23557">
        <ele>2036.69</ele>
        <time>2012-10-21T06:57:05Z</time>
      </trkpt>
      <trkpt lat="44.13775" lon="7.23562">
        <ele>2035.73</ele>
        <time>2012-10-21T06:57:20Z</time>
      </trkpt>
      <trkpt lat="44.13776" lon="7.23562">
        <ele>2035.73</ele>
        <time>2012-10-21T06:57:35Z</time>
      </trkpt>
      <trkpt lat="44.13776" lon="7.23563">
        <ele>2035.73</ele>
        <time>2012-10-21T06:59:48Z</time>
      </trkpt>
      <trkpt lat="44.13776" lon="7.23566">
        <ele>2034.77</ele>
        <time>2012-10-21T07:07:04Z</time>
      </trkpt>
      <trkpt lat="44.13775" lon="7.23567">
        <ele>2035.25</ele>
        <time>2012-10-21T07:10:13Z</time>
      </trkpt>
      <trkpt lat="44.13775" lon="7.23565">
        <ele>2036.69</ele>
        <time>2012-10-21T07:10:22Z</time>
      </trkpt>
      <trkpt lat="44.13775" lon="7.23567">
        <ele>2037.17</ele>
        <time>2012-10-21T07:10:26Z</time>
      </trkpt>
      <trkpt lat="44.13786" lon="7.23574">
        <ele>2035.25</ele>
        <time>2012-10-21T07:10:37Z</time>
      </trkpt>
      <trkpt lat="44.13794" lon="7.23575">
        <ele>2034.29</ele>
        <time>2012-10-21T07:10:44Z</time>
      </trkpt>
      <trkpt lat="44.13796" lon="7.23573">
        <ele>2034.29</ele>
        <time>2012-10-21T07:10:46Z</time>
      </trkpt>
      <trkpt lat="44.13809" lon="7.23567">
        <ele>2033.81</ele>
        <time>2012-10-21T07:10:58Z</time>
      </trkpt>
      <trkpt lat="44.13818" lon="7.23556">
        <ele>2032.36</ele>
        <time>2012-10-21T07:11:10Z</time>
      </trkpt>
      <trkpt lat="44.13824" lon="7.2355">
        <ele>2031.88</ele>
        <time>2012-10-21T07:11:16Z</time>
      </trkpt>
      <trkpt lat="44.13832" lon="7.23536">
        <ele>2030.44</ele>
        <time>2012-10-21T07:11:27Z</time>
      </trkpt>
      <trkpt lat="44.13836" lon="7.23529">
        <ele>2029.48</ele>
        <time>2012-10-21T07:11:32Z</time>
      </trkpt>
      <trkpt lat="44.13837" lon="7.23526">
        <ele>2029.48</ele>
        <time>2012-10-21T07:11:34Z</time>
      </trkpt>
      <trkpt lat="44.1384" lon="7.23521">
        <ele>2029.48</ele>
        <time>2012-10-21T07:11:38Z</time>
      </trkpt>
      <trkpt lat="44.13843" lon="7.23509">
        <ele>2027.56</ele>
        <time>2012-10-21T07:11:47Z</time>
      </trkpt>
      <trkpt lat="44.13845" lon="7.23503">
        <ele>2028.04</ele>
        <time>2012-10-21T07:11:51Z</time>
      </trkpt>
      <trkpt lat="44.13852" lon="7.23489">
        <ele>2026.6</ele>
        <time>2012-10-21T07:12:03Z</time>
      </trkpt>
      <trkpt lat="44.13861" lon="7.23482">
        <ele>2025.64</ele>
        <time>2012-10-21T07:12:09Z</time>
      </trkpt>
      <trkpt lat="44.13879" lon="7.23477">
        <ele>2024.67</ele>
        <time>2012-10-21T07:12:22Z</time>
      </trkpt>
      <trkpt lat="44.13884" lon="7.23479">
        <ele>2024.67</ele>
        <time>2012-10-21T07:12:26Z</time>
      </trkpt>
      <trkpt lat="44.13891" lon="7.23479">
        <ele>2024.19</ele>
        <time>2012-10-21T07:12:31Z</time>
      </trkpt>
      <trkpt lat="44.13899" lon="7.23477">
        <ele>2023.23</ele>
        <time>2012-10-21T07:12:38Z</time>
      </trkpt>
      <trkpt lat="44.13904" lon="7.23475">
        <ele>2023.23</ele>
        <time>2012-10-21T07:12:42Z</time>
      </trkpt>
      <trkpt lat="44.13912" lon="7.23471">
        <ele>2022.27</ele>
        <time>2012-10-21T07:12:50Z</time>
      </trkpt>
      <trkpt lat="44.13914" lon="7.2347">
        <ele>2022.27</ele>
        <time>2012-10-21T07:12:52Z</time>
      </trkpt>
      <trkpt lat="44.13921" lon="7.23465">
        <ele>2020.83</ele>
        <time>2012-10-21T07:13:01Z</time>
      </trkpt>
      <trkpt lat="44.13931" lon="7.23454">
        <ele>2019.39</ele>
        <time>2012-10-21T07:13:12Z</time>
      </trkpt>
      <trkpt lat="44.13936" lon="7.23447">
        <ele>2019.39</ele>
        <time>2012-10-21T07:13:19Z</time>
      </trkpt>
      <trkpt lat="44.13942" lon="7.23443">
        <ele>2019.39</ele>
        <time>2012-10-21T07:13:36Z</time>
      </trkpt>
      <trkpt lat="44.13942" lon="7.23443">
        <ele>2019.87</ele>
        <time>2012-10-21T07:13:59Z</time>
      </trkpt>
      <trkpt lat="44.13945" lon="7.2344">
        <ele>2019.39</ele>
        <time>2012-10-21T07:14:12Z</time>
      </trkpt>
      <trkpt lat="44.13948" lon="7.23435">
        <ele>2020.35</ele>
        <time>2012-10-21T07:14:33Z</time>
      </trkpt>
      <trkpt lat="44.13957" lon="7.23426">
        <ele>2020.35</ele>
        <time>2012-10-21T07:14:45Z</time>
      </trkpt>
      <trkpt lat="44.13961" lon="7.23419">
        <ele>2020.35</ele>
        <time>2012-10-21T07:14:56Z</time>
      </trkpt>
      <trkpt lat="44.13969" lon="7.2341">
        <ele>2020.83</ele>
        <time>2012-10-21T07:15:06Z</time>
      </trkpt>
      <trkpt lat="44.1398" lon="7.23395">
        <ele>2021.31</ele>
        <time>2012-10-21T07:15:18Z</time>
      </trkpt>
      <trkpt lat="44.13981" lon="7.23394">
        <ele>2020.83</ele>
        <time>2012-10-21T07:15:38Z</time>
      </trkpt>
      <trkpt lat="44.13981" lon="7.23393">
        <ele>2021.31</ele>
        <time>2012-10-21T07:16:09Z</time>
      </trkpt>
      <trkpt lat="44.13989" lon="7.23381">
        <ele>2021.31</ele>
        <time>2012-10-21T07:16:21Z</time>
      </trkpt>
      <trkpt lat="44.14003" lon="7.23367">
        <ele>2019.87</ele>
        <time>2012-10-21T07:16:28Z</time>
      </trkpt>
      <trkpt lat="44.14006" lon="7.23363">
        <ele>2019.87</ele>
        <time>2012-10-21T07:16:30Z</time>
      </trkpt>
      <trkpt lat="44.14008" lon="7.23358">
        <ele>2019.39</ele>
        <time>2012-10-21T07:16:33Z</time>
      </trkpt>
      <trkpt lat="44.14012" lon="7.23353">
        <ele>2017.94</ele>
        <time>2012-10-21T07:16:38Z</time>
      </trkpt>
      <trkpt lat="44.14016" lon="7.23339">
        <ele>2018.91</ele>
        <time>2012-10-21T07:16:50Z</time>
      </trkpt>
      <trkpt lat="44.14021" lon="7.23334">
        <ele>2019.39</ele>
        <time>2012-10-21T07:16:54Z</time>
      </trkpt>
      <trkpt lat="44.14025" lon="7.23333">
        <ele>2019.87</ele>
        <time>2012-10-21T07:16:58Z</time>
      </trkpt>
      <trkpt lat="44.14036" lon="7.23338">
        <ele>2020.83</ele>
        <time>2012-10-21T07:17:07Z</time>
      </trkpt>
      <trkpt lat="44.14042" lon="7.23352">
        <ele>2021.31</ele>
        <time>2012-10-21T07:17:19Z</time>
      </trkpt>
      <trkpt lat="44.14044" lon="7.2336">
        <ele>2022.27</ele>
        <time>2012-10-21T07:17:25Z</time>
      </trkpt>
      <trkpt lat="44.14049" lon="7.23373">
        <ele>2023.71</ele>
        <time>2012-10-21T07:17:35Z</time>
      </trkpt>
      <trkpt lat="44.14058" lon="7.23383">
        <ele>2025.15</ele>
        <time>2012-10-21T07:17:47Z</time>
      </trkpt>
      <trkpt lat="44.14061" lon="7.23386">
        <ele>2025.64</ele>
        <time>2012-10-21T07:17:52Z</time>
      </trkpt>
      <trkpt lat="44.14066" lon="7.23389">
        <ele>2026.6</ele>
        <time>2012-10-21T07:17:58Z</time>
      </trkpt>
      <trkpt lat="44.14074" lon="7.234">
        <ele>2028.52</ele>
        <time>2012-10-21T07:18:10Z</time>
      </trkpt>
      <trkpt lat="44.14077" lon="7.2341">
        <ele>2029.96</ele>
        <time>2012-10-21T07:18:21Z</time>
      </trkpt>
      <trkpt lat="44.14083" lon="7.23425">
        <ele>2031.4</ele>
        <time>2012-10-21T07:18:33Z</time>
      </trkpt>
      <trkpt lat="44.14086" lon="7.2343">
        <ele>2031.88</ele>
        <time>2012-10-21T07:18:37Z</time>
      </trkpt>
      <trkpt lat="44.1409" lon="7.23437">
        <ele>2031.88</ele>
        <time>2012-10-21T07:18:42Z</time>
      </trkpt>
      <trkpt lat="44.14097" lon="7.23446">
        <ele>2033.81</ele>
        <time>2012-10-21T07:18:53Z</time>
      </trkpt>
      <trkpt lat="44.14098" lon="7.23448">
        <ele>2034.29</ele>
        <time>2012-10-21T07:18:56Z</time>
      </trkpt>
      <trkpt lat="44.141" lon="7.23453">
        <ele>2034.77</ele>
        <time>2012-10-21T07:19:00Z</time>
      </trkpt>
      <trkpt lat="44.141" lon="7.23456">
        <ele>2035.25</ele>
        <time>2012-10-21T07:19:02Z</time>
      </trkpt>
      <trkpt lat="44.14111" lon="7.23469">
        <ele>2035.73</ele>
        <time>2012-10-21T07:19:17Z</time>
      </trkpt>
      <trkpt lat="44.14114" lon="7.23472">
        <ele>2036.69</ele>
        <time>2012-10-21T07:19:21Z</time>
      </trkpt>
      <trkpt lat="44.14117" lon="7.23473">
        <ele>2037.17</ele>
        <time>2012-10-21T07:19:24Z</time>
      </trkpt>
      <trkpt lat="44.14126" lon="7.2347">
        <ele>2038.61</ele>
        <time>2012-10-21T07:19:36Z</time>
      </trkpt>
      <trkpt lat="44.14138" lon="7.23475">
        <ele>2039.57</ele>
        <time>2012-10-21T07:19:49Z</time>
      </trkpt>
      <trkpt lat="44.14153" lon="7.23476">
        <ele>2041.02</ele>
        <time>2012-10-21T07:20:02Z</time>
      </trkpt>
      <trkpt lat="44.14163" lon="7.23476">
        <ele>2041.5</ele>
        <time>2012-10-21T07:20:12Z</time>
      </trkpt>
      <trkpt lat="44.14166" lon="7.23476">
        <ele>2041.98</ele>
        <time>2012-10-21T07:20:14Z</time>
      </trkpt>
      <trkpt lat="44.14173" lon="7.23478">
        <ele>2041.98</ele>
        <time>2012-10-21T07:20:20Z</time>
      </trkpt>
      <trkpt lat="44.14186" lon="7.2348">
        <ele>2041.98</ele>
        <time>2012-10-21T07:20:31Z</time>
      </trkpt>
      <trkpt lat="44.14191" lon="7.23482">
        <ele>2041.5</ele>
        <time>2012-10-21T07:20:35Z</time>
      </trkpt>
      <trkpt lat="44.14199" lon="7.23486">
        <ele>2041.5</ele>
        <time>2012-10-21T07:20:42Z</time>
      </trkpt>
      <trkpt lat="44.1421" lon="7.23496">
        <ele>2041.98</ele>
        <time>2012-10-21T07:20:53Z</time>
      </trkpt>
      <trkpt lat="44.14223" lon="7.23504">
        <ele>2044.38</ele>
        <time>2012-10-21T07:21:07Z</time>
      </trkpt>
      <trkpt lat="44.14232" lon="7.23507">
        <ele>2044.86</ele>
        <time>2012-10-21T07:21:17Z</time>
      </trkpt>
      <trkpt lat="44.14243" lon="7.23511">
        <ele>2045.82</ele>
        <time>2012-10-21T07:21:29Z</time>
      </trkpt>
      <trkpt lat="44.14254" lon="7.23516">
        <ele>2047.75</ele>
        <time>2012-10-21T07:21:40Z</time>
      </trkpt>
      <trkpt lat="44.14265" lon="7.23518">
        <ele>2050.15</ele>
        <time>2012-10-21T07:21:53Z</time>
      </trkpt>
      <trkpt lat="44.14278" lon="7.23521">
        <ele>2051.11</ele>
        <time>2012-10-21T07:22:06Z</time>
      </trkpt>
      <trkpt lat="44.14281" lon="7.23521">
        <ele>2051.59</ele>
        <time>2012-10-21T07:22:09Z</time>
      </trkpt>
      <trkpt lat="44.14293" lon="7.23523">
        <ele>2052.07</ele>
        <time>2012-10-21T07:22:22Z</time>
      </trkpt>
      <trkpt lat="44.14302" lon="7.23521">
        <ele>2053.51</ele>
        <time>2012-10-21T07:22:34Z</time>
      </trkpt>
      <trkpt lat="44.1431" lon="7.23519">
        <ele>2053.99</ele>
        <time>2012-10-21T07:22:47Z</time>
      </trkpt>
      <trkpt lat="44.14319" lon="7.23513">
        <ele>2054.47</ele>
        <time>2012-10-21T07:23:00Z</time>
      </trkpt>
      <trkpt lat="44.14331" lon="7.23507">
        <ele>2055.92</ele>
        <time>2012-10-21T07:23:12Z</time>
      </trkpt>
      <trkpt lat="44.14344" lon="7.23501">
        <ele>2056.88</ele>
        <time>2012-10-21T07:23:24Z</time>
      </trkpt>
      <trkpt lat="44.14355" lon="7.23492">
        <ele>2056.4</ele>
        <time>2012-10-21T07:23:35Z</time>
      </trkpt>
      <trkpt lat="44.14373" lon="7.2348">
        <ele>2057.36</ele>
        <time>2012-10-21T07:23:48Z</time>
      </trkpt>
      <trkpt lat="44.14381" lon="7.23474">
        <ele>2057.36</ele>
        <time>2012-10-21T07:23:58Z</time>
      </trkpt>
      <trkpt lat="44.14391" lon="7.2347">
        <ele>2057.36</ele>
        <time>2012-10-21T07:24:06Z</time>
      </trkpt>
      <trkpt lat="44.14404" lon="7.23461">
        <ele>2057.84</ele>
        <time>2012-10-21T07:24:18Z</time>
      </trkpt>
      <trkpt lat="44.14406" lon="7.23458">
        <ele>2058.32</ele>
        <time>2012-10-21T07:24:21Z</time>
      </trkpt>
      <trkpt lat="44.14415" lon="7.23453">
        <ele>2058.8</ele>
        <time>2012-10-21T07:24:33Z</time>
      </trkpt>
      <trkpt lat="44.14428" lon="7.23449">
        <ele>2060.72</ele>
        <time>2012-10-21T07:24:45Z</time>
      </trkpt>
      <trkpt lat="44.14436" lon="7.23444">
        <ele>2061.2</ele>
        <time>2012-10-21T07:24:53Z</time>
      </trkpt>
      <trkpt lat="44.14442" lon="7.23442">
        <ele>2062.17</ele>
        <time>2012-10-21T07:24:58Z</time>
      </trkpt>
      <trkpt lat="44.14454" lon="7.23447">
        <ele>2062.17</ele>
        <time>2012-10-21T07:25:10Z</time>
      </trkpt>
      <trkpt lat="44.14459" lon="7.2345">
        <ele>2062.17</ele>
        <time>2012-10-21T07:25:15Z</time>
      </trkpt>
      <trkpt lat="44.14469" lon="7.23454">
        <ele>2060.72</ele>
        <time>2012-10-21T07:25:23Z</time>
      </trkpt>
      <trkpt lat="44.14479" lon="7.23463">
        <ele>2061.2</ele>
        <time>2012-10-21T07:25:34Z</time>
      </trkpt>
      <trkpt lat="44.14481" lon="7.23463">
        <ele>2060.72</ele>
        <time>2012-10-21T07:25:36Z</time>
      </trkpt>
      <trkpt lat="44.14482" lon="7.23461">
        <ele>2061.2</ele>
        <time>2012-10-21T07:25:38Z</time>
      </trkpt>
      <trkpt lat="44.14486" lon="7.23455">
        <ele>2060.72</ele>
        <time>2012-10-21T07:25:48Z</time>
      </trkpt>
      <trkpt lat="44.14485" lon="7.23453">
        <ele>2060.24</ele>
        <time>2012-10-21T07:25:51Z</time>
      </trkpt>
      <trkpt lat="44.1448" lon="7.2346">
        <ele>2060.24</ele>
        <time>2012-10-21T07:25:55Z</time>
      </trkpt>
      <trkpt lat="44.1448" lon="7.23459">
        <ele>2060.24</ele>
        <time>2012-10-21T07:25:57Z</time>
      </trkpt>
      <trkpt lat="44.14479" lon="7.23455">
        <ele>2061.2</ele>
        <time>2012-10-21T07:26:02Z</time>
      </trkpt>
      <trkpt lat="44.14481" lon="7.23447">
        <ele>2061.2</ele>
        <time>2012-10-21T07:26:09Z</time>
      </trkpt>
      <trkpt lat="44.14482" lon="7.2344">
        <ele>2062.17</ele>
        <time>2012-10-21T07:26:19Z</time>
      </trkpt>
      <trkpt lat="44.14487" lon="7.2343">
        <ele>2062.17</ele>
        <time>2012-10-21T07:26:29Z</time>
      </trkpt>
      <trkpt lat="44.1449" lon="7.2342">
        <ele>2063.13</ele>
        <time>2012-10-21T07:26:40Z</time>
      </trkpt>
      <trkpt lat="44.14491" lon="7.23417">
        <ele>2063.13</ele>
        <time>2012-10-21T07:26:42Z</time>
      </trkpt>
      <trkpt lat="44.14498" lon="7.234">
        <ele>2063.61</ele>
        <time>2012-10-21T07:26:53Z</time>
      </trkpt>
      <trkpt lat="44.14499" lon="7.23397">
        <ele>2063.61</ele>
        <time>2012-10-21T07:26:55Z</time>
      </trkpt>
      <trkpt lat="44.14505" lon="7.23383">
        <ele>2063.61</ele>
        <time>2012-10-21T07:27:05Z</time>
      </trkpt>
      <trkpt lat="44.14509" lon="7.23379">
        <ele>2063.61</ele>
        <time>2012-10-21T07:27:12Z</time>
      </trkpt>
      <trkpt lat="44.14515" lon="7.23365">
        <ele>2065.05</ele>
        <time>2012-10-21T07:27:23Z</time>
      </trkpt>
      <trkpt lat="44.14515" lon="7.23359">
        <ele>2064.57</ele>
        <time>2012-10-21T07:27:26Z</time>
      </trkpt>
      <trkpt lat="44.14519" lon="7.23346">
        <ele>2065.05</ele>
        <time>2012-10-21T07:27:33Z</time>
      </trkpt>
      <trkpt lat="44.14521" lon="7.23343">
        <ele>2064.57</ele>
        <time>2012-10-21T07:27:35Z</time>
      </trkpt>
      <trkpt lat="44.14527" lon="7.23319">
        <ele>2064.09</ele>
        <time>2012-10-21T07:27:49Z</time>
      </trkpt>
      <trkpt lat="44.14529" lon="7.23308">
        <ele>2063.61</ele>
        <time>2012-10-21T07:27:56Z</time>
      </trkpt>
      <trkpt lat="44.14529" lon="7.23305">
        <ele>2063.61</ele>
        <time>2012-10-21T07:27:58Z</time>
      </trkpt>
      <trkpt lat="44.1453" lon="7.23301">
        <ele>2063.61</ele>
        <time>2012-10-21T07:28:00Z</time>
      </trkpt>
      <trkpt lat="44.14533" lon="7.23289">
        <ele>2062.65</ele>
        <time>2012-10-21T07:28:07Z</time>
      </trkpt>
      <trkpt lat="44.14537" lon="7.23278">
        <ele>2061.2</ele>
        <time>2012-10-21T07:28:16Z</time>
      </trkpt>
      <trkpt lat="44.14537" lon="7.23273">
        <ele>2060.72</ele>
        <time>2012-10-21T07:28:20Z</time>
      </trkpt>
      <trkpt lat="44.14537" lon="7.23267">
        <ele>2060.24</ele>
        <time>2012-10-21T07:28:23Z</time>
      </trkpt>
      <trkpt lat="44.14541" lon="7.23258">
        <ele>2060.72</ele>
        <time>2012-10-21T07:28:28Z</time>
      </trkpt>
      <trkpt lat="44.14542" lon="7.23256">
        <ele>2060.72</ele>
        <time>2012-10-21T07:28:30Z</time>
      </trkpt>
      <trkpt lat="44.14544" lon="7.23246">
        <ele>2061.2</ele>
        <time>2012-10-21T07:28:37Z</time>
      </trkpt>
      <trkpt lat="44.14543" lon="7.23237">
        <ele>2062.65</ele>
        <time>2012-10-21T07:28:45Z</time>
      </trkpt>
      <trkpt lat="44.14543" lon="7.23235">
        <ele>2063.13</ele>
        <time>2012-10-21T07:28:47Z</time>
      </trkpt>
      <trkpt lat="44.14547" lon="7.23222">
        <ele>2064.09</ele>
        <time>2012-10-21T07:28:58Z</time>
      </trkpt>
      <trkpt lat="44.14548" lon="7.23205">
        <ele>2066.01</ele>
        <time>2012-10-21T07:29:10Z</time>
      </trkpt>
      <trkpt lat="44.14549" lon="7.23198">
        <ele>2066.97</ele>
        <time>2012-10-21T07:29:16Z</time>
      </trkpt>
      <trkpt lat="44.1455" lon="7.23193">
        <ele>2066.97</ele>
        <time>2012-10-21T07:29:19Z</time>
      </trkpt>
      <trkpt lat="44.14554" lon="7.23177">
        <ele>2068.41</ele>
        <time>2012-10-21T07:29:33Z</time>
      </trkpt>
      <trkpt lat="44.14556" lon="7.23175">
        <ele>2069.38</ele>
        <time>2012-10-21T07:29:39Z</time>
      </trkpt>
      <trkpt lat="44.14577" lon="7.23159">
        <ele>2069.38</ele>
        <time>2012-10-21T07:29:50Z</time>
      </trkpt>
      <trkpt lat="44.1458" lon="7.23154">
        <ele>2070.34</ele>
        <time>2012-10-21T07:29:58Z</time>
      </trkpt>
      <trkpt lat="44.14582" lon="7.2315">
        <ele>2070.34</ele>
        <time>2012-10-21T07:30:01Z</time>
      </trkpt>
      <trkpt lat="44.14582" lon="7.23144">
        <ele>2071.3</ele>
        <time>2012-10-21T07:30:07Z</time>
      </trkpt>
      <trkpt lat="44.14584" lon="7.2313">
        <ele>2072.26</ele>
        <time>2012-10-21T07:30:17Z</time>
      </trkpt>
      <trkpt lat="44.14584" lon="7.23116">
        <ele>2073.7</ele>
        <time>2012-10-21T07:30:30Z</time>
      </trkpt>
      <trkpt lat="44.14583" lon="7.23107">
        <ele>2075.62</ele>
        <time>2012-10-21T07:30:40Z</time>
      </trkpt>
      <trkpt lat="44.14583" lon="7.23097">
        <ele>2077.07</ele>
        <time>2012-10-21T07:30:51Z</time>
      </trkpt>
      <trkpt lat="44.14584" lon="7.23094">
        <ele>2076.59</ele>
        <time>2012-10-21T07:30:53Z</time>
      </trkpt>
      <trkpt lat="44.14586" lon="7.23091">
        <ele>2078.03</ele>
        <time>2012-10-21T07:30:56Z</time>
      </trkpt>
      <trkpt lat="44.14588" lon="7.23084">
        <ele>2078.51</ele>
        <time>2012-10-21T07:31:03Z</time>
      </trkpt>
      <trkpt lat="44.14591" lon="7.23069">
        <ele>2080.43</ele>
        <time>2012-10-21T07:31:15Z</time>
      </trkpt>
      <trkpt lat="44.14591" lon="7.23064">
        <ele>2080.91</ele>
        <time>2012-10-21T07:31:20Z</time>
      </trkpt>
      <trkpt lat="44.14593" lon="7.23059">
        <ele>2081.39</ele>
        <time>2012-10-21T07:31:24Z</time>
      </trkpt>
      <trkpt lat="44.14594" lon="7.23052">
        <ele>2081.87</ele>
        <time>2012-10-21T07:31:29Z</time>
      </trkpt>
      <trkpt lat="44.146" lon="7.23037">
        <ele>2082.83</ele>
        <time>2012-10-21T07:31:39Z</time>
      </trkpt>
      <trkpt lat="44.14602" lon="7.23031">
        <ele>2083.79</ele>
        <time>2012-10-21T07:31:44Z</time>
      </trkpt>
      <trkpt lat="44.14606" lon="7.23026">
        <ele>2085.72</ele>
        <time>2012-10-21T07:31:56Z</time>
      </trkpt>
      <trkpt lat="44.14611" lon="7.23014">
        <ele>2086.2</ele>
        <time>2012-10-21T07:32:04Z</time>
      </trkpt>
      <trkpt lat="44.14615" lon="7.23005">
        <ele>2087.16</ele>
        <time>2012-10-21T07:32:12Z</time>
      </trkpt>
      <trkpt lat="44.14628" lon="7.22988">
        <ele>2088.6</ele>
        <time>2012-10-21T07:32:27Z</time>
      </trkpt>
      <trkpt lat="44.14633" lon="7.22978">
        <ele>2090.04</ele>
        <time>2012-10-21T07:32:39Z</time>
      </trkpt>
      <trkpt lat="44.14637" lon="7.22968">
        <ele>2091.97</ele>
        <time>2012-10-21T07:32:51Z</time>
      </trkpt>
      <trkpt lat="44.14644" lon="7.22959">
        <ele>2092.93</ele>
        <time>2012-10-21T07:33:04Z</time>
      </trkpt>
      <trkpt lat="44.14651" lon="7.22949">
        <ele>2095.33</ele>
        <time>2012-10-21T07:33:15Z</time>
      </trkpt>
      <trkpt lat="44.14664" lon="7.22938">
        <ele>2097.25</ele>
        <time>2012-10-21T07:33:28Z</time>
      </trkpt>
      <trkpt lat="44.14679" lon="7.22932">
        <ele>2099.18</ele>
        <time>2012-10-21T07:33:42Z</time>
      </trkpt>
      <trkpt lat="44.14692" lon="7.22924">
        <ele>2099.18</ele>
        <time>2012-10-21T07:33:54Z</time>
      </trkpt>
      <trkpt lat="44.14698" lon="7.22922">
        <ele>2100.62</ele>
        <time>2012-10-21T07:34:03Z</time>
      </trkpt>
      <trkpt lat="44.14704" lon="7.22918">
        <ele>2102.06</ele>
        <time>2012-10-21T07:34:14Z</time>
      </trkpt>
      <trkpt lat="44.14709" lon="7.22913">
        <ele>2103.5</ele>
        <time>2012-10-21T07:34:24Z</time>
      </trkpt>
      <trkpt lat="44.14711" lon="7.22906">
        <ele>2105.42</ele>
        <time>2012-10-21T07:34:35Z</time>
      </trkpt>
      <trkpt lat="44.14713" lon="7.229">
        <ele>2106.39</ele>
        <time>2012-10-21T07:34:47Z</time>
      </trkpt>
      <trkpt lat="44.14718" lon="7.22888">
        <ele>2107.83</ele>
        <time>2012-10-21T07:34:58Z</time>
      </trkpt>
      <trkpt lat="44.14722" lon="7.22876">
        <ele>2108.79</ele>
        <time>2012-10-21T07:35:09Z</time>
      </trkpt>
      <trkpt lat="44.14727" lon="7.22862">
        <ele>2109.75</ele>
        <time>2012-10-21T07:35:22Z</time>
      </trkpt>
      <trkpt lat="44.14731" lon="7.22856">
        <ele>2110.71</ele>
        <time>2012-10-21T07:35:28Z</time>
      </trkpt>
      <trkpt lat="44.14737" lon="7.22846">
        <ele>2112.15</ele>
        <time>2012-10-21T07:35:37Z</time>
      </trkpt>
      <trkpt lat="44.14742" lon="7.22839">
        <ele>2113.12</ele>
        <time>2012-10-21T07:35:49Z</time>
      </trkpt>
      <trkpt lat="44.1475" lon="7.22831">
        <ele>2115.52</ele>
        <time>2012-10-21T07:36:02Z</time>
      </trkpt>
      <trkpt lat="44.14757" lon="7.22824">
        <ele>2116.48</ele>
        <time>2012-10-21T07:36:13Z</time>
      </trkpt>
      <trkpt lat="44.14761" lon="7.22818">
        <ele>2116.48</ele>
        <time>2012-10-21T07:36:23Z</time>
      </trkpt>
      <trkpt lat="44.14763" lon="7.22813">
        <ele>2116.96</ele>
        <time>2012-10-21T07:36:27Z</time>
      </trkpt>
      <trkpt lat="44.14769" lon="7.22798">
        <ele>2117.92</ele>
        <time>2012-10-21T07:36:41Z</time>
      </trkpt>
      <trkpt lat="44.14777" lon="7.22784">
        <ele>2119.36</ele>
        <time>2012-10-21T07:36:54Z</time>
      </trkpt>
      <trkpt lat="44.14783" lon="7.22771">
        <ele>2119.84</ele>
        <time>2012-10-21T07:37:07Z</time>
      </trkpt>
      <trkpt lat="44.14791" lon="7.22759">
        <ele>2122.25</ele>
        <time>2012-10-21T07:37:21Z</time>
      </trkpt>
      <trkpt lat="44.14799" lon="7.2276">
        <ele>2123.69</ele>
        <time>2012-10-21T07:37:30Z</time>
      </trkpt>
      <trkpt lat="44.14805" lon="7.22768">
        <ele>2124.65</ele>
        <time>2012-10-21T07:37:42Z</time>
      </trkpt>
      <trkpt lat="44.14811" lon="7.22782">
        <ele>2125.61</ele>
        <time>2012-10-21T07:37:55Z</time>
      </trkpt>
      <trkpt lat="44.14815" lon="7.22796">
        <ele>2127.05</ele>
        <time>2012-10-21T07:38:08Z</time>
      </trkpt>
      <trkpt lat="44.14819" lon="7.2281">
        <ele>2128.98</ele>
        <time>2012-10-21T07:38:21Z</time>
      </trkpt>
      <trkpt lat="44.14823" lon="7.22827">
        <ele>2130.42</ele>
        <time>2012-10-21T07:38:34Z</time>
      </trkpt>
      <trkpt lat="44.14824" lon="7.2283">
        <ele>2130.42</ele>
        <time>2012-10-21T07:38:36Z</time>
      </trkpt>
      <trkpt lat="44.14825" lon="7.22847">
        <ele>2131.86</ele>
        <time>2012-10-21T07:38:50Z</time>
      </trkpt>
      <trkpt lat="44.14825" lon="7.22863">
        <ele>2132.82</ele>
        <time>2012-10-21T07:39:00Z</time>
      </trkpt>
      <trkpt lat="44.14822" lon="7.22876">
        <ele>2132.82</ele>
        <time>2012-10-21T07:39:11Z</time>
      </trkpt>
      <trkpt lat="44.14817" lon="7.22887">
        <ele>2133.78</ele>
        <time>2012-10-21T07:39:23Z</time>
      </trkpt>
      <trkpt lat="44.14821" lon="7.22894">
        <ele>2135.23</ele>
        <time>2012-10-21T07:39:33Z</time>
      </trkpt>
      <trkpt lat="44.14827" lon="7.22896">
        <ele>2135.71</ele>
        <time>2012-10-21T07:39:39Z</time>
      </trkpt>
      <trkpt lat="44.14836" lon="7.22897">
        <ele>2137.63</ele>
        <time>2012-10-21T07:39:51Z</time>
      </trkpt>
      <trkpt lat="44.14837" lon="7.22898">
        <ele>2137.63</ele>
        <time>2012-10-21T07:39:54Z</time>
      </trkpt>
      <trkpt lat="44.14844" lon="7.22907">
        <ele>2139.07</ele>
        <time>2012-10-21T07:40:06Z</time>
      </trkpt>
      <trkpt lat="44.14851" lon="7.22914">
        <ele>2140.51</ele>
        <time>2012-10-21T07:40:18Z</time>
      </trkpt>
      <trkpt lat="44.14857" lon="7.22917">
        <ele>2141.47</ele>
        <time>2012-10-21T07:40:25Z</time>
      </trkpt>
      <trkpt lat="44.14869" lon="7.22928">
        <ele>2142.92</ele>
        <time>2012-10-21T07:40:39Z</time>
      </trkpt>
      <trkpt lat="44.14874" lon="7.22935">
        <ele>2143.4</ele>
        <time>2012-10-21T07:40:50Z</time>
      </trkpt>
      <trkpt lat="44.1488" lon="7.2294">
        <ele>2145.32</ele>
        <time>2012-10-21T07:41:02Z</time>
      </trkpt>
      <trkpt lat="44.14889" lon="7.22946">
        <ele>2146.28</ele>
        <time>2012-10-21T07:41:12Z</time>
      </trkpt>
      <trkpt lat="44.14896" lon="7.22951">
        <ele>2147.72</ele>
        <time>2012-10-21T07:41:24Z</time>
      </trkpt>
      <trkpt lat="44.14905" lon="7.22961">
        <ele>2149.16</ele>
        <time>2012-10-21T07:41:36Z</time>
      </trkpt>
      <trkpt lat="44.14906" lon="7.22965">
        <ele>2149.65</ele>
        <time>2012-10-21T07:41:40Z</time>
      </trkpt>
      <trkpt lat="44.14907" lon="7.22972">
        <ele>2150.61</ele>
        <time>2012-10-21T07:41:44Z</time>
      </trkpt>
      <trkpt lat="44.14901" lon="7.22979">
        <ele>2152.53</ele>
        <time>2012-10-21T07:41:57Z</time>
      </trkpt>
      <trkpt lat="44.14898" lon="7.22981">
        <ele>2152.53</ele>
        <time>2012-10-21T07:42:00Z</time>
      </trkpt>
      <trkpt lat="44.14894" lon="7.22985">
        <ele>2153.49</ele>
        <time>2012-10-21T07:42:05Z</time>
      </trkpt>
      <trkpt lat="44.14883" lon="7.2299">
        <ele>2154.45</ele>
        <time>2012-10-21T07:42:18Z</time>
      </trkpt>
      <trkpt lat="44.14876" lon="7.22991">
        <ele>2155.41</ele>
        <time>2012-10-21T07:42:29Z</time>
      </trkpt>
      <trkpt lat="44.14869" lon="7.22993">
        <ele>2156.86</ele>
        <time>2012-10-21T07:42:39Z</time>
      </trkpt>
      <trkpt lat="44.14866" lon="7.22995">
        <ele>2157.34</ele>
        <time>2012-10-21T07:42:42Z</time>
      </trkpt>
      <trkpt lat="44.14863" lon="7.22995">
        <ele>2158.3</ele>
        <time>2012-10-21T07:42:47Z</time>
      </trkpt>
      <trkpt lat="44.14854" lon="7.22999">
        <ele>2159.74</ele>
        <time>2012-10-21T07:43:00Z</time>
      </trkpt>
      <trkpt lat="44.14851" lon="7.22999">
        <ele>2160.22</ele>
        <time>2012-10-21T07:43:04Z</time>
      </trkpt>
      <trkpt lat="44.14836" lon="7.22998">
        <ele>2161.18</ele>
        <time>2012-10-21T07:43:17Z</time>
      </trkpt>
      <trkpt lat="44.14824" lon="7.23006">
        <ele>2161.66</ele>
        <time>2012-10-21T07:43:30Z</time>
      </trkpt>
      <trkpt lat="44.1482" lon="7.23013">
        <ele>2162.62</ele>
        <time>2012-10-21T07:43:39Z</time>
      </trkpt>
      <trkpt lat="44.14815" lon="7.23028">
        <ele>2163.58</ele>
        <time>2012-10-21T07:43:53Z</time>
      </trkpt>
      <trkpt lat="44.14815" lon="7.23029">
        <ele>2164.06</ele>
        <time>2012-10-21T07:43:54Z</time>
      </trkpt>
      <trkpt lat="44.14814" lon="7.23035">
        <ele>2164.55</ele>
        <time>2012-10-21T07:43:58Z</time>
      </trkpt>
      <trkpt lat="44.14814" lon="7.23051">
        <ele>2165.03</ele>
        <time>2012-10-21T07:44:10Z</time>
      </trkpt>
      <trkpt lat="44.14814" lon="7.23062">
        <ele>2165.99</ele>
        <time>2012-10-21T07:44:19Z</time>
      </trkpt>
      <trkpt lat="44.14818" lon="7.23072">
        <ele>2167.91</ele>
        <time>2012-10-21T07:44:32Z</time>
      </trkpt>
      <trkpt lat="44.14821" lon="7.23085">
        <ele>2168.87</ele>
        <time>2012-10-21T07:44:44Z</time>
      </trkpt>
      <trkpt lat="44.14824" lon="7.23096">
        <ele>2169.83</ele>
        <time>2012-10-21T07:44:55Z</time>
      </trkpt>
      <trkpt lat="44.14828" lon="7.2311">
        <ele>2171.27</ele>
        <time>2012-10-21T07:45:09Z</time>
      </trkpt>
      <trkpt lat="44.14829" lon="7.23125">
        <ele>2172.72</ele>
        <time>2012-10-21T07:45:20Z</time>
      </trkpt>
      <trkpt lat="44.1483" lon="7.23143">
        <ele>2173.68</ele>
        <time>2012-10-21T07:45:33Z</time>
      </trkpt>
      <trkpt lat="44.14834" lon="7.23154">
        <ele>2175.6</ele>
        <time>2012-10-21T07:45:45Z</time>
      </trkpt>
      <trkpt lat="44.14838" lon="7.23166">
        <ele>2176.56</ele>
        <time>2012-10-21T07:45:56Z</time>
      </trkpt>
      <trkpt lat="44.14838" lon="7.2317">
        <ele>2177.52</ele>
        <time>2012-10-21T07:46:00Z</time>
      </trkpt>
      <trkpt lat="44.14839" lon="7.23177">
        <ele>2178.48</ele>
        <time>2012-10-21T07:46:06Z</time>
      </trkpt>
      <trkpt lat="44.14842" lon="7.23195">
        <ele>2179.45</ele>
        <time>2012-10-21T07:46:22Z</time>
      </trkpt>
      <trkpt lat="44.14844" lon="7.23206">
        <ele>2179.93</ele>
        <time>2012-10-21T07:46:34Z</time>
      </trkpt>
      <trkpt lat="44.14844" lon="7.23222">
        <ele>2180.41</ele>
        <time>2012-10-21T07:46:45Z</time>
      </trkpt>
      <trkpt lat="44.14845" lon="7.23242">
        <ele>2180.89</ele>
        <time>2012-10-21T07:47:00Z</time>
      </trkpt>
      <trkpt lat="44.14854" lon="7.2325">
        <ele>2182.33</ele>
        <time>2012-10-21T07:47:14Z</time>
      </trkpt>
      <trkpt lat="44.14863" lon="7.23247">
        <ele>2183.77</ele>
        <time>2012-10-21T07:47:28Z</time>
      </trkpt>
      <trkpt lat="44.14868" lon="7.23234">
        <ele>2185.69</ele>
        <time>2012-10-21T07:47:42Z</time>
      </trkpt>
      <trkpt lat="44.14873" lon="7.2322">
        <ele>2187.14</ele>
        <time>2012-10-21T07:47:55Z</time>
      </trkpt>
      <trkpt lat="44.14874" lon="7.23217">
        <ele>2186.66</ele>
        <time>2012-10-21T07:47:58Z</time>
      </trkpt>
      <trkpt lat="44.14886" lon="7.23204">
        <ele>2186.18</ele>
        <time>2012-10-21T07:48:12Z</time>
      </trkpt>
      <trkpt lat="44.14893" lon="7.23198">
        <ele>2186.66</ele>
        <time>2012-10-21T07:48:24Z</time>
      </trkpt>
      <trkpt lat="44.14905" lon="7.23183">
        <ele>2188.1</ele>
        <time>2012-10-21T07:48:39Z</time>
      </trkpt>
      <trkpt lat="44.14916" lon="7.23176">
        <ele>2190.02</ele>
        <time>2012-10-21T07:48:51Z</time>
      </trkpt>
      <trkpt lat="44.14925" lon="7.23169">
        <ele>2191.94</ele>
        <time>2012-10-21T07:49:03Z</time>
      </trkpt>
      <trkpt lat="44.14933" lon="7.23161">
        <ele>2193.39</ele>
        <time>2012-10-21T07:49:17Z</time>
      </trkpt>
      <trkpt lat="44.14945" lon="7.23153">
        <ele>2194.35</ele>
        <time>2012-10-21T07:49:29Z</time>
      </trkpt>
      <trkpt lat="44.14957" lon="7.23148">
        <ele>2194.83</ele>
        <time>2012-10-21T07:49:41Z</time>
      </trkpt>
      <trkpt lat="44.14958" lon="7.23147">
        <ele>2194.83</ele>
        <time>2012-10-21T07:49:43Z</time>
      </trkpt>
      <trkpt lat="44.14969" lon="7.2314">
        <ele>2196.27</ele>
        <time>2012-10-21T07:49:57Z</time>
      </trkpt>
      <trkpt lat="44.14977" lon="7.23134">
        <ele>2196.75</ele>
        <time>2012-10-21T07:50:09Z</time>
      </trkpt>
      <trkpt lat="44.14985" lon="7.23128">
        <ele>2197.23</ele>
        <time>2012-10-21T07:50:19Z</time>
      </trkpt>
      <trkpt lat="44.14994" lon="7.23123">
        <ele>2198.67</ele>
        <time>2012-10-21T07:50:30Z</time>
      </trkpt>
      <trkpt lat="44.15005" lon="7.23116">
        <ele>2200.11</ele>
        <time>2012-10-21T07:50:43Z</time>
      </trkpt>
      <trkpt lat="44.15008" lon="7.23115">
        <ele>2199.63</ele>
        <time>2012-10-21T07:50:46Z</time>
      </trkpt>
      <trkpt lat="44.15017" lon="7.23115">
        <ele>2200.59</ele>
        <time>2012-10-21T07:50:58Z</time>
      </trkpt>
      <trkpt lat="44.1502" lon="7.23113">
        <ele>2201.08</ele>
        <time>2012-10-21T07:51:01Z</time>
      </trkpt>
      <trkpt lat="44.15032" lon="7.23111">
        <ele>2203</ele>
        <time>2012-10-21T07:51:16Z</time>
      </trkpt>
      <trkpt lat="44.15041" lon="7.23111">
        <ele>2204.92</ele>
        <time>2012-10-21T07:51:29Z</time>
      </trkpt>
      <trkpt lat="44.15042" lon="7.23112">
        <ele>2204.44</ele>
        <time>2012-10-21T07:51:31Z</time>
      </trkpt>
      <trkpt lat="44.15048" lon="7.23112">
        <ele>2205.88</ele>
        <time>2012-10-21T07:51:38Z</time>
      </trkpt>
      <trkpt lat="44.15059" lon="7.23117">
        <ele>2206.36</ele>
        <time>2012-10-21T07:51:50Z</time>
      </trkpt>
      <trkpt lat="44.1506" lon="7.23133">
        <ele>2207.81</ele>
        <time>2012-10-21T07:52:03Z</time>
      </trkpt>
      <trkpt lat="44.15059" lon="7.23144">
        <ele>2208.77</ele>
        <time>2012-10-21T07:52:11Z</time>
      </trkpt>
      <trkpt lat="44.15059" lon="7.23156">
        <ele>2210.21</ele>
        <time>2012-10-21T07:52:25Z</time>
      </trkpt>
      <trkpt lat="44.15055" lon="7.23171">
        <ele>2211.17</ele>
        <time>2012-10-21T07:52:38Z</time>
      </trkpt>
      <trkpt lat="44.15055" lon="7.23189">
        <ele>2212.13</ele>
        <time>2012-10-21T07:52:52Z</time>
      </trkpt>
      <trkpt lat="44.15061" lon="7.232">
        <ele>2213.09</ele>
        <time>2012-10-21T07:53:06Z</time>
      </trkpt>
      <trkpt lat="44.15063" lon="7.23203">
        <ele>2213.57</ele>
        <time>2012-10-21T07:53:15Z</time>
      </trkpt>
      <trkpt lat="44.15065" lon="7.23203">
        <ele>2214.05</ele>
        <time>2012-10-21T07:53:36Z</time>
      </trkpt>
      <trkpt lat="44.15065" lon="7.23205">
        <ele>2212.61</ele>
        <time>2012-10-21T07:53:59Z</time>
      </trkpt>
      <trkpt lat="44.15066" lon="7.23208">
        <ele>2213.57</ele>
        <time>2012-10-21T07:55:19Z</time>
      </trkpt>
      <trkpt lat="44.15067" lon="7.2321">
        <ele>2215.01</ele>
        <time>2012-10-21T07:55:29Z</time>
      </trkpt>
      <trkpt lat="44.15069" lon="7.23209">
        <ele>2215.01</ele>
        <time>2012-10-21T07:55:41Z</time>
      </trkpt>
      <trkpt lat="44.1507" lon="7.23209">
        <ele>2215.01</ele>
        <time>2012-10-21T07:56:38Z</time>
      </trkpt>
      <trkpt lat="44.1508" lon="7.2321">
        <ele>2216.46</ele>
        <time>2012-10-21T07:56:50Z</time>
      </trkpt>
      <trkpt lat="44.15087" lon="7.23207">
        <ele>2217.42</ele>
        <time>2012-10-21T07:57:03Z</time>
      </trkpt>
      <trkpt lat="44.15089" lon="7.23207">
        <ele>2217.9</ele>
        <time>2012-10-21T07:57:07Z</time>
      </trkpt>
      <trkpt lat="44.15093" lon="7.23207">
        <ele>2218.38</ele>
        <time>2012-10-21T07:57:10Z</time>
      </trkpt>
      <trkpt lat="44.15099" lon="7.23215">
        <ele>2219.82</ele>
        <time>2012-10-21T07:57:22Z</time>
      </trkpt>
      <trkpt lat="44.15099" lon="7.23216">
        <ele>2219.82</ele>
        <time>2012-10-21T07:57:23Z</time>
      </trkpt>
      <trkpt lat="44.15102" lon="7.2322">
        <ele>2222.22</ele>
        <time>2012-10-21T07:57:34Z</time>
      </trkpt>
      <trkpt lat="44.15103" lon="7.23233">
        <ele>2224.15</ele>
        <time>2012-10-21T07:57:48Z</time>
      </trkpt>
      <trkpt lat="44.15106" lon="7.23238">
        <ele>2224.63</ele>
        <time>2012-10-21T07:57:54Z</time>
      </trkpt>
      <trkpt lat="44.15107" lon="7.23249">
        <ele>2226.07</ele>
        <time>2012-10-21T07:58:03Z</time>
      </trkpt>
      <trkpt lat="44.15109" lon="7.23261">
        <ele>2227.51</ele>
        <time>2012-10-21T07:58:14Z</time>
      </trkpt>
      <trkpt lat="44.15112" lon="7.23268">
        <ele>2227.99</ele>
        <time>2012-10-21T07:58:21Z</time>
      </trkpt>
      <trkpt lat="44.15117" lon="7.2328">
        <ele>2229.92</ele>
        <time>2012-10-21T07:58:34Z</time>
      </trkpt>
      <trkpt lat="44.15122" lon="7.2329">
        <ele>2230.88</ele>
        <time>2012-10-21T07:58:48Z</time>
      </trkpt>
      <trkpt lat="44.15134" lon="7.23295">
        <ele>2233.76</ele>
        <time>2012-10-21T07:59:05Z</time>
      </trkpt>
      <trkpt lat="44.15135" lon="7.23295">
        <ele>2233.28</ele>
        <time>2012-10-21T07:59:07Z</time>
      </trkpt>
      <trkpt lat="44.1514" lon="7.23296">
        <ele>2233.76</ele>
        <time>2012-10-21T07:59:13Z</time>
      </trkpt>
      <trkpt lat="44.15153" lon="7.23297">
        <ele>2235.68</ele>
        <time>2012-10-21T07:59:26Z</time>
      </trkpt>
      <trkpt lat="44.15157" lon="7.23297">
        <ele>2236.64</ele>
        <time>2012-10-21T07:59:32Z</time>
      </trkpt>
      <trkpt lat="44.15161" lon="7.23298">
        <ele>2236.64</ele>
        <time>2012-10-21T07:59:36Z</time>
      </trkpt>
      <trkpt lat="44.15168" lon="7.23295">
        <ele>2237.61</ele>
        <time>2012-10-21T07:59:44Z</time>
      </trkpt>
      <trkpt lat="44.15178" lon="7.23293">
        <ele>2239.05</ele>
        <time>2012-10-21T07:59:56Z</time>
      </trkpt>
      <trkpt lat="44.15188" lon="7.23289">
        <ele>2240.97</ele>
        <time>2012-10-21T08:00:10Z</time>
      </trkpt>
      <trkpt lat="44.15191" lon="7.23289">
        <ele>2240.97</ele>
        <time>2012-10-21T08:00:14Z</time>
      </trkpt>
      <trkpt lat="44.15199" lon="7.23289">
        <ele>2242.41</ele>
        <time>2012-10-21T08:00:26Z</time>
      </trkpt>
      <trkpt lat="44.15206" lon="7.23289">
        <ele>2242.89</ele>
        <time>2012-10-21T08:00:32Z</time>
      </trkpt>
      <trkpt lat="44.15215" lon="7.2329">
        <ele>2244.33</ele>
        <time>2012-10-21T08:00:44Z</time>
      </trkpt>
      <trkpt lat="44.15222" lon="7.2329">
        <ele>2244.82</ele>
        <time>2012-10-21T08:00:52Z</time>
      </trkpt>
      <trkpt lat="44.15235" lon="7.23288">
        <ele>2245.3</ele>
        <time>2012-10-21T08:01:06Z</time>
      </trkpt>
      <trkpt lat="44.15246" lon="7.23286">
        <ele>2246.74</ele>
        <time>2012-10-21T08:01:17Z</time>
      </trkpt>
      <trkpt lat="44.15257" lon="7.23285">
        <ele>2247.7</ele>
        <time>2012-10-21T08:01:30Z</time>
      </trkpt>
      <trkpt lat="44.15268" lon="7.23282">
        <ele>2247.7</ele>
        <time>2012-10-21T08:01:42Z</time>
      </trkpt>
      <trkpt lat="44.15279" lon="7.23284">
        <ele>2248.66</ele>
        <time>2012-10-21T08:01:53Z</time>
      </trkpt>
      <trkpt lat="44.15293" lon="7.23279">
        <ele>2248.66</ele>
        <time>2012-10-21T08:02:04Z</time>
      </trkpt>
      <trkpt lat="44.15295" lon="7.23276">
        <ele>2248.66</ele>
        <time>2012-10-21T08:02:07Z</time>
      </trkpt>
      <trkpt lat="44.15308" lon="7.23266">
        <ele>2248.18</ele>
        <time>2012-10-21T08:02:20Z</time>
      </trkpt>
      <trkpt lat="44.1532" lon="7.23255">
        <ele>2248.66</ele>
        <time>2012-10-21T08:02:34Z</time>
      </trkpt>
      <trkpt lat="44.15335" lon="7.23243">
        <ele>2248.18</ele>
        <time>2012-10-21T08:02:48Z</time>
      </trkpt>
      <trkpt lat="44.15336" lon="7.23242">
        <ele>2248.18</ele>
        <time>2012-10-21T08:02:49Z</time>
      </trkpt>
      <trkpt lat="44.15349" lon="7.23228">
        <ele>2247.7</ele>
        <time>2012-10-21T08:03:04Z</time>
      </trkpt>
      <trkpt lat="44.15353" lon="7.23222">
        <ele>2247.7</ele>
        <time>2012-10-21T08:03:10Z</time>
      </trkpt>
      <trkpt lat="44.15357" lon="7.23218">
        <ele>2248.18</ele>
        <time>2012-10-21T08:03:15Z</time>
      </trkpt>
      <trkpt lat="44.15358" lon="7.23214">
        <ele>2247.7</ele>
        <time>2012-10-21T08:03:18Z</time>
      </trkpt>
      <trkpt lat="44.15368" lon="7.23198">
        <ele>2248.18</ele>
        <time>2012-10-21T08:03:33Z</time>
      </trkpt>
      <trkpt lat="44.1537" lon="7.23196">
        <ele>2248.66</ele>
        <time>2012-10-21T08:03:37Z</time>
      </trkpt>
      <trkpt lat="44.15373" lon="7.23188">
        <ele>2249.14</ele>
        <time>2012-10-21T08:03:44Z</time>
      </trkpt>
      <trkpt lat="44.15382" lon="7.23173">
        <ele>2248.66</ele>
        <time>2012-10-21T08:03:58Z</time>
      </trkpt>
      <trkpt lat="44.15383" lon="7.23168">
        <ele>2248.66</ele>
        <time>2012-10-21T08:04:02Z</time>
      </trkpt>
      <trkpt lat="44.15382" lon="7.23155">
        <ele>2248.66</ele>
        <time>2012-10-21T08:04:13Z</time>
      </trkpt>
      <trkpt lat="44.15381" lon="7.23151">
        <ele>2248.66</ele>
        <time>2012-10-21T08:04:29Z</time>
      </trkpt>
      <trkpt lat="44.15385" lon="7.23151">
        <ele>2248.66</ele>
        <time>2012-10-21T08:04:52Z</time>
      </trkpt>
      <trkpt lat="44.15386" lon="7.2315">
        <ele>2248.66</ele>
        <time>2012-10-21T08:05:15Z</time>
      </trkpt>
      <trkpt lat="44.15388" lon="7.23146">
        <ele>2248.66</ele>
        <time>2012-10-21T08:05:28Z</time>
      </trkpt>
      <trkpt lat="44.15388" lon="7.23145">
        <ele>2249.14</ele>
        <time>2012-10-21T08:06:10Z</time>
      </trkpt>
      <trkpt lat="44.1539" lon="7.23144">
        <ele>2248.66</ele>
        <time>2012-10-21T08:07:05Z</time>
      </trkpt>
      <trkpt lat="44.1539" lon="7.23145">
        <ele>2248.66</ele>
        <time>2012-10-21T08:07:27Z</time>
      </trkpt>
      <trkpt lat="44.1539" lon="7.23148">
        <ele>2249.14</ele>
        <time>2012-10-21T08:08:37Z</time>
      </trkpt>
      <trkpt lat="44.15388" lon="7.23148">
        <ele>2248.66</ele>
        <time>2012-10-21T08:08:41Z</time>
      </trkpt>
      <trkpt lat="44.15381" lon="7.23151">
        <ele>2248.66</ele>
        <time>2012-10-21T08:08:46Z</time>
      </trkpt>
      <trkpt lat="44.15375" lon="7.23148">
        <ele>2248.66</ele>
        <time>2012-10-21T08:08:56Z</time>
      </trkpt>
      <trkpt lat="44.15369" lon="7.23139">
        <ele>2249.14</ele>
        <time>2012-10-21T08:09:08Z</time>
      </trkpt>
      <trkpt lat="44.15364" lon="7.23133">
        <ele>2248.66</ele>
        <time>2012-10-21T08:09:15Z</time>
      </trkpt>
      <trkpt lat="44.15355" lon="7.23129">
        <ele>2248.18</ele>
        <time>2012-10-21T08:09:24Z</time>
      </trkpt>
      <trkpt lat="44.15348" lon="7.23125">
        <ele>2248.18</ele>
        <time>2012-10-21T08:09:38Z</time>
      </trkpt>
      <trkpt lat="44.15342" lon="7.2312">
        <ele>2248.66</ele>
        <time>2012-10-21T08:09:49Z</time>
      </trkpt>
      <trkpt lat="44.15337" lon="7.23108">
        <ele>2248.18</ele>
        <time>2012-10-21T08:10:03Z</time>
      </trkpt>
      <trkpt lat="44.15338" lon="7.23089">
        <ele>2248.18</ele>
        <time>2012-10-21T08:10:16Z</time>
      </trkpt>
      <trkpt lat="44.15342" lon="7.23071">
        <ele>2248.66</ele>
        <time>2012-10-21T08:10:31Z</time>
      </trkpt>
      <trkpt lat="44.15346" lon="7.23062">
        <ele>2249.62</ele>
        <time>2012-10-21T08:10:39Z</time>
      </trkpt>
      <trkpt lat="44.15348" lon="7.23047">
        <ele>2249.14</ele>
        <time>2012-10-21T08:10:51Z</time>
      </trkpt>
      <trkpt lat="44.15348" lon="7.23031">
        <ele>2248.66</ele>
        <time>2012-10-21T08:11:01Z</time>
      </trkpt>
      <trkpt lat="44.15347" lon="7.23012">
        <ele>2248.18</ele>
        <time>2012-10-21T08:11:13Z</time>
      </trkpt>
      <trkpt lat="44.15347" lon="7.22998">
        <ele>2248.66</ele>
        <time>2012-10-21T08:11:25Z</time>
      </trkpt>
      <trkpt lat="44.15343" lon="7.22982">
        <ele>2248.66</ele>
        <time>2012-10-21T08:11:38Z</time>
      </trkpt>
      <trkpt lat="44.15341" lon="7.22966">
        <ele>2248.18</ele>
        <time>2012-10-21T08:11:53Z</time>
      </trkpt>
      <trkpt lat="44.1534" lon="7.22965">
        <ele>2248.66</ele>
        <time>2012-10-21T08:11:54Z</time>
      </trkpt>
      <trkpt lat="44.15336" lon="7.22956">
        <ele>2249.14</ele>
        <time>2012-10-21T08:12:06Z</time>
      </trkpt>
      <trkpt lat="44.15336" lon="7.22954">
        <ele>2249.14</ele>
        <time>2012-10-21T08:12:08Z</time>
      </trkpt>
      <trkpt lat="44.1534" lon="7.22948">
        <ele>2248.18</ele>
        <time>2012-10-21T08:12:14Z</time>
      </trkpt>
      <trkpt lat="44.15344" lon="7.22942">
        <ele>2249.14</ele>
        <time>2012-10-21T08:12:27Z</time>
      </trkpt>
      <trkpt lat="44.15352" lon="7.22942">
        <ele>2249.14</ele>
        <time>2012-10-21T08:12:51Z</time>
      </trkpt>
      <trkpt lat="44.15355" lon="7.22943">
        <ele>2248.66</ele>
        <time>2012-10-21T08:12:54Z</time>
      </trkpt>
      <trkpt lat="44.15364" lon="7.22948">
        <ele>2248.66</ele>
        <time>2012-10-21T08:13:03Z</time>
      </trkpt>
      <trkpt lat="44.15371" lon="7.22951">
        <ele>2249.62</ele>
        <time>2012-10-21T08:13:11Z</time>
      </trkpt>
      <trkpt lat="44.15375" lon="7.22954">
        <ele>2249.62</ele>
        <time>2012-10-21T08:13:16Z</time>
      </trkpt>
      <trkpt lat="44.15381" lon="7.22959">
        <ele>2250.1</ele>
        <time>2012-10-21T08:13:22Z</time>
      </trkpt>
      <trkpt lat="44.15387" lon="7.22964">
        <ele>2248.66</ele>
        <time>2012-10-21T08:13:34Z</time>
      </trkpt>
      <trkpt lat="44.15398" lon="7.2297">
        <ele>2249.14</ele>
        <time>2012-10-21T08:13:43Z</time>
      </trkpt>
      <trkpt lat="44.15411" lon="7.22972">
        <ele>2248.18</ele>
        <time>2012-10-21T08:13:56Z</time>
      </trkpt>
      <trkpt lat="44.1542" lon="7.22972">
        <ele>2248.66</ele>
        <time>2012-10-21T08:14:08Z</time>
      </trkpt>
      <trkpt lat="44.1542" lon="7.22971">
        <ele>2249.14</ele>
        <time>2012-10-21T08:14:09Z</time>
      </trkpt>
      <trkpt lat="44.15427" lon="7.22968">
        <ele>2250.58</ele>
        <time>2012-10-21T08:14:20Z</time>
      </trkpt>
      <trkpt lat="44.15433" lon="7.2297">
        <ele>2249.62</ele>
        <time>2012-10-21T08:14:28Z</time>
      </trkpt>
      <trkpt lat="44.15437" lon="7.22973">
        <ele>2250.1</ele>
        <time>2012-10-21T08:14:34Z</time>
      </trkpt>
      <trkpt lat="44.1544" lon="7.22975">
        <ele>2249.14</ele>
        <time>2012-10-21T08:14:38Z</time>
      </trkpt>
      <trkpt lat="44.15454" lon="7.22977">
        <ele>2249.14</ele>
        <time>2012-10-21T08:14:51Z</time>
      </trkpt>
      <trkpt lat="44.1546" lon="7.22975">
        <ele>2250.1</ele>
        <time>2012-10-21T08:14:57Z</time>
      </trkpt>
      <trkpt lat="44.15465" lon="7.22971">
        <ele>2250.1</ele>
        <time>2012-10-21T08:15:03Z</time>
      </trkpt>
      <trkpt lat="44.15474" lon="7.22963">
        <ele>2251.06</ele>
        <time>2012-10-21T08:15:15Z</time>
      </trkpt>
      <trkpt lat="44.15486" lon="7.22961">
        <ele>2252.03</ele>
        <time>2012-10-21T08:15:27Z</time>
      </trkpt>
      <trkpt lat="44.1549" lon="7.2296">
        <ele>2252.51</ele>
        <time>2012-10-21T08:15:31Z</time>
      </trkpt>
      <trkpt lat="44.15497" lon="7.22959">
        <ele>2252.99</ele>
        <time>2012-10-21T08:15:38Z</time>
      </trkpt>
      <trkpt lat="44.15508" lon="7.22952">
        <ele>2254.43</ele>
        <time>2012-10-21T08:15:52Z</time>
      </trkpt>
      <trkpt lat="44.1551" lon="7.22953">
        <ele>2253.95</ele>
        <time>2012-10-21T08:15:54Z</time>
      </trkpt>
      <trkpt lat="44.15521" lon="7.22954">
        <ele>2253.47</ele>
        <time>2012-10-21T08:16:04Z</time>
      </trkpt>
      <trkpt lat="44.15528" lon="7.22954">
        <ele>2252.99</ele>
        <time>2012-10-21T08:16:11Z</time>
      </trkpt>
      <trkpt lat="44.15536" lon="7.22958">
        <ele>2253.47</ele>
        <time>2012-10-21T08:16:21Z</time>
      </trkpt>
      <trkpt lat="44.15537" lon="7.22958">
        <ele>2253.47</ele>
        <time>2012-10-21T08:16:23Z</time>
      </trkpt>
      <trkpt lat="44.1554" lon="7.22961">
        <ele>2252.99</ele>
        <time>2012-10-21T08:16:28Z</time>
      </trkpt>
      <trkpt lat="44.15545" lon="7.22975">
        <ele>2253.47</ele>
        <time>2012-10-21T08:16:41Z</time>
      </trkpt>
      <trkpt lat="44.15547" lon="7.22983">
        <ele>2253.95</ele>
        <time>2012-10-21T08:16:50Z</time>
      </trkpt>
      <trkpt lat="44.15553" lon="7.22989">
        <ele>2255.39</ele>
        <time>2012-10-21T08:17:01Z</time>
      </trkpt>
      <trkpt lat="44.1556" lon="7.2299">
        <ele>2256.83</ele>
        <time>2012-10-21T08:17:12Z</time>
      </trkpt>
      <trkpt lat="44.15566" lon="7.22985">
        <ele>2258.27</ele>
        <time>2012-10-21T08:17:25Z</time>
      </trkpt>
      <trkpt lat="44.15569" lon="7.22981">
        <ele>2259.72</ele>
        <time>2012-10-21T08:17:34Z</time>
      </trkpt>
      <trkpt lat="44.15571" lon="7.22973">
        <ele>2262.12</ele>
        <time>2012-10-21T08:17:47Z</time>
      </trkpt>
      <trkpt lat="44.15574" lon="7.22971">
        <ele>2264.04</ele>
        <time>2012-10-21T08:18:00Z</time>
      </trkpt>
      <trkpt lat="44.15577" lon="7.22965">
        <ele>2265.48</ele>
        <time>2012-10-21T08:18:14Z</time>
      </trkpt>
      <trkpt lat="44.15579" lon="7.2296">
        <ele>2267.41</ele>
        <time>2012-10-21T08:18:24Z</time>
      </trkpt>
      <trkpt lat="44.15581" lon="7.22954">
        <ele>2268.37</ele>
        <time>2012-10-21T08:18:36Z</time>
      </trkpt>
      <trkpt lat="44.15583" lon="7.22952">
        <ele>2269.81</ele>
        <time>2012-10-21T08:18:46Z</time>
      </trkpt>
      <trkpt lat="44.15585" lon="7.2295">
        <ele>2271.73</ele>
        <time>2012-10-21T08:18:54Z</time>
      </trkpt>
      <trkpt lat="44.15592" lon="7.2295">
        <ele>2273.17</ele>
        <time>2012-10-21T08:19:06Z</time>
      </trkpt>
      <trkpt lat="44.15597" lon="7.22955">
        <ele>2273.66</ele>
        <time>2012-10-21T08:19:17Z</time>
      </trkpt>
      <trkpt lat="44.15602" lon="7.22959">
        <ele>2275.1</ele>
        <time>2012-10-21T08:19:29Z</time>
      </trkpt>
      <trkpt lat="44.15607" lon="7.22955">
        <ele>2277.02</ele>
        <time>2012-10-21T08:19:41Z</time>
      </trkpt>
      <trkpt lat="44.15613" lon="7.22956">
        <ele>2278.46</ele>
        <time>2012-10-21T08:19:56Z</time>
      </trkpt>
      <trkpt lat="44.15617" lon="7.22959">
        <ele>2279.9</ele>
        <time>2012-10-21T08:20:07Z</time>
      </trkpt>
      <trkpt lat="44.1562" lon="7.22953">
        <ele>2281.35</ele>
        <time>2012-10-21T08:20:17Z</time>
      </trkpt>
      <trkpt lat="44.1562" lon="7.22953">
        <ele>2281.83</ele>
        <time>2012-10-21T08:20:18Z</time>
      </trkpt>
      <trkpt lat="44.15626" lon="7.22955">
        <ele>2283.27</ele>
        <time>2012-10-21T08:20:29Z</time>
      </trkpt>
      <trkpt lat="44.15628" lon="7.22961">
        <ele>2284.23</ele>
        <time>2012-10-21T08:20:42Z</time>
      </trkpt>
      <trkpt lat="44.15631" lon="7.22965">
        <ele>2285.19</ele>
        <time>2012-10-21T08:20:55Z</time>
      </trkpt>
      <trkpt lat="44.15638" lon="7.2297">
        <ele>2287.11</ele>
        <time>2012-10-21T08:21:10Z</time>
      </trkpt>
      <trkpt lat="44.15645" lon="7.22976">
        <ele>2287.11</ele>
        <time>2012-10-21T08:21:23Z</time>
      </trkpt>
      <trkpt lat="44.15648" lon="7.22981">
        <ele>2288.56</ele>
        <time>2012-10-21T08:21:36Z</time>
      </trkpt>
      <trkpt lat="44.15651" lon="7.22981">
        <ele>2288.56</ele>
        <time>2012-10-21T08:21:41Z</time>
      </trkpt>
      <trkpt lat="44.15657" lon="7.22986">
        <ele>2289.04</ele>
        <time>2012-10-21T08:21:52Z</time>
      </trkpt>
      <trkpt lat="44.15657" lon="7.22988">
        <ele>2289.52</ele>
        <time>2012-10-21T08:21:55Z</time>
      </trkpt>
      <trkpt lat="44.15666" lon="7.22993">
        <ele>2289.52</ele>
        <time>2012-10-21T08:22:08Z</time>
      </trkpt>
      <trkpt lat="44.1567" lon="7.22996">
        <ele>2290.96</ele>
        <time>2012-10-21T08:22:19Z</time>
      </trkpt>
      <trkpt lat="44.15676" lon="7.23">
        <ele>2291.44</ele>
        <time>2012-10-21T08:22:31Z</time>
      </trkpt>
      <trkpt lat="44.15681" lon="7.23004">
        <ele>2291.44</ele>
        <time>2012-10-21T08:22:41Z</time>
      </trkpt>
      <trkpt lat="44.15686" lon="7.23011">
        <ele>2291.44</ele>
        <time>2012-10-21T08:22:50Z</time>
      </trkpt>
      <trkpt lat="44.1569" lon="7.23017">
        <ele>2290.96</ele>
        <time>2012-10-21T08:22:58Z</time>
      </trkpt>
      <trkpt lat="44.15692" lon="7.23019">
        <ele>2291.44</ele>
        <time>2012-10-21T08:23:00Z</time>
      </trkpt>
      <trkpt lat="44.15695" lon="7.23023">
        <ele>2291.44</ele>
        <time>2012-10-21T08:23:05Z</time>
      </trkpt>
      <trkpt lat="44.15701" lon="7.23025">
        <ele>2290.96</ele>
        <time>2012-10-21T08:23:11Z</time>
      </trkpt>
      <trkpt lat="44.15708" lon="7.23024">
        <ele>2292.4</ele>
        <time>2012-10-21T08:23:21Z</time>
      </trkpt>
      <trkpt lat="44.1572" lon="7.23026">
        <ele>2294.32</ele>
        <time>2012-10-21T08:23:36Z</time>
      </trkpt>
      <trkpt lat="44.15729" lon="7.23031">
        <ele>2294.8</ele>
        <time>2012-10-21T08:23:48Z</time>
      </trkpt>
      <trkpt lat="44.15738" lon="7.23036">
        <ele>2295.77</ele>
        <time>2012-10-21T08:23:59Z</time>
      </trkpt>
      <trkpt lat="44.15745" lon="7.23045">
        <ele>2296.25</ele>
        <time>2012-10-21T08:24:12Z</time>
      </trkpt>
      <trkpt lat="44.15749" lon="7.23051">
        <ele>2297.69</ele>
        <time>2012-10-21T08:24:21Z</time>
      </trkpt>
      <trkpt lat="44.15754" lon="7.23058">
        <ele>2299.13</ele>
        <time>2012-10-21T08:24:31Z</time>
      </trkpt>
      <trkpt lat="44.15761" lon="7.2306">
        <ele>2301.05</ele>
        <time>2012-10-21T08:24:43Z</time>
      </trkpt>
      <trkpt lat="44.15765" lon="7.23061">
        <ele>2302.98</ele>
        <time>2012-10-21T08:24:56Z</time>
      </trkpt>
      <trkpt lat="44.15769" lon="7.23064">
        <ele>2304.42</ele>
        <time>2012-10-21T08:25:08Z</time>
      </trkpt>
      <trkpt lat="44.1577" lon="7.23065">
        <ele>2306.82</ele>
        <time>2012-10-21T08:25:21Z</time>
      </trkpt>
      <trkpt lat="44.15772" lon="7.23071">
        <ele>2308.26</ele>
        <time>2012-10-21T08:25:33Z</time>
      </trkpt>
      <trkpt lat="44.15771" lon="7.23079">
        <ele>2309.7</ele>
        <time>2012-10-21T08:25:46Z</time>
      </trkpt>
      <trkpt lat="44.15771" lon="7.23084">
        <ele>2311.15</ele>
        <time>2012-10-21T08:25:57Z</time>
      </trkpt>
      <trkpt lat="44.15775" lon="7.23087">
        <ele>2312.59</ele>
        <time>2012-10-21T08:26:08Z</time>
      </trkpt>
      <trkpt lat="44.15775" lon="7.23088">
        <ele>2312.59</ele>
        <time>2012-10-21T08:26:13Z</time>
      </trkpt>
      <trkpt lat="44.15776" lon="7.23096">
        <ele>2314.03</ele>
        <time>2012-10-21T08:26:24Z</time>
      </trkpt>
      <trkpt lat="44.15775" lon="7.231">
        <ele>2314.99</ele>
        <time>2012-10-21T08:26:36Z</time>
      </trkpt>
      <trkpt lat="44.15775" lon="7.23102">
        <ele>2316.91</ele>
        <time>2012-10-21T08:26:46Z</time>
      </trkpt>
      <trkpt lat="44.15776" lon="7.23108">
        <ele>2318.36</ele>
        <time>2012-10-21T08:26:58Z</time>
      </trkpt>
      <trkpt lat="44.15776" lon="7.23117">
        <ele>2319.32</ele>
        <time>2012-10-21T08:27:10Z</time>
      </trkpt>
      <trkpt lat="44.15777" lon="7.23119">
        <ele>2320.28</ele>
        <time>2012-10-21T08:27:22Z</time>
      </trkpt>
      <trkpt lat="44.15779" lon="7.23121">
        <ele>2321.24</ele>
        <time>2012-10-21T08:27:36Z</time>
      </trkpt>
      <trkpt lat="44.15779" lon="7.23121">
        <ele>2321.24</ele>
        <time>2012-10-21T08:27:54Z</time>
      </trkpt>
      <trkpt lat="44.15779" lon="7.23121">
        <ele>2319.8</ele>
        <time>2012-10-21T08:28:38Z</time>
      </trkpt>
      <trkpt lat="44.15778" lon="7.23121">
        <ele>2319.32</ele>
        <time>2012-10-21T08:29:58Z</time>
      </trkpt>
      <trkpt lat="44.15778" lon="7.2312">
        <ele>2320.76</ele>
        <time>2012-10-21T08:30:03Z</time>
      </trkpt>
      <trkpt lat="44.15779" lon="7.23124">
        <ele>2320.76</ele>
        <time>2012-10-21T08:30:18Z</time>
      </trkpt>
      <trkpt lat="44.15781" lon="7.2313">
        <ele>2322.2</ele>
        <time>2012-10-21T08:30:30Z</time>
      </trkpt>
      <trkpt lat="44.15781" lon="7.23134">
        <ele>2323.16</ele>
        <time>2012-10-21T08:30:35Z</time>
      </trkpt>
      <trkpt lat="44.15781" lon="7.23138">
        <ele>2324.61</ele>
        <time>2012-10-21T08:30:46Z</time>
      </trkpt>
      <trkpt lat="44.15783" lon="7.23141">
        <ele>2326.53</ele>
        <time>2012-10-21T08:30:58Z</time>
      </trkpt>
      <trkpt lat="44.15785" lon="7.23146">
        <ele>2328.45</ele>
        <time>2012-10-21T08:31:11Z</time>
      </trkpt>
      <trkpt lat="44.15785" lon="7.23149">
        <ele>2330.37</ele>
        <time>2012-10-21T08:31:24Z</time>
      </trkpt>
      <trkpt lat="44.15786" lon="7.23153">
        <ele>2331.81</ele>
        <time>2012-10-21T08:31:35Z</time>
      </trkpt>
      <trkpt lat="44.15787" lon="7.23156">
        <ele>2334.22</ele>
        <time>2012-10-21T08:31:50Z</time>
      </trkpt>
      <trkpt lat="44.15787" lon="7.23161">
        <ele>2335.66</ele>
        <time>2012-10-21T08:32:03Z</time>
      </trkpt>
      <trkpt lat="44.15786" lon="7.23166">
        <ele>2337.1</ele>
        <time>2012-10-21T08:32:18Z</time>
      </trkpt>
      <trkpt lat="44.15786" lon="7.23167">
        <ele>2338.54</ele>
        <time>2012-10-21T08:32:21Z</time>
      </trkpt>
      <trkpt lat="44.15787" lon="7.23169">
        <ele>2339.02</ele>
        <time>2012-10-21T08:32:31Z</time>
      </trkpt>
      <trkpt lat="44.15787" lon="7.23174">
        <ele>2340.47</ele>
        <time>2012-10-21T08:32:43Z</time>
      </trkpt>
      <trkpt lat="44.15788" lon="7.23177">
        <ele>2341.91</ele>
        <time>2012-10-21T08:32:56Z</time>
      </trkpt>
      <trkpt lat="44.15787" lon="7.23179">
        <ele>2343.35</ele>
        <time>2012-10-21T08:33:09Z</time>
      </trkpt>
      <trkpt lat="44.15788" lon="7.23184">
        <ele>2345.27</ele>
        <time>2012-10-21T08:33:24Z</time>
      </trkpt>
      <trkpt lat="44.15788" lon="7.2319">
        <ele>2346.23</ele>
        <time>2012-10-21T08:33:39Z</time>
      </trkpt>
      <trkpt lat="44.15787" lon="7.23199">
        <ele>2347.2</ele>
        <time>2012-10-21T08:33:51Z</time>
      </trkpt>
      <trkpt lat="44.15787" lon="7.23201">
        <ele>2348.16</ele>
        <time>2012-10-21T08:34:03Z</time>
      </trkpt>
      <trkpt lat="44.15792" lon="7.23196">
        <ele>2349.6</ele>
        <time>2012-10-21T08:34:17Z</time>
      </trkpt>
      <trkpt lat="44.15795" lon="7.23192">
        <ele>2351.04</ele>
        <time>2012-10-21T08:34:30Z</time>
      </trkpt>
      <trkpt lat="44.158" lon="7.2319">
        <ele>2352.96</ele>
        <time>2012-10-21T08:34:41Z</time>
      </trkpt>
      <trkpt lat="44.15803" lon="7.23186">
        <ele>2354.41</ele>
        <time>2012-10-21T08:34:54Z</time>
      </trkpt>
      <trkpt lat="44.15802" lon="7.23182">
        <ele>2356.33</ele>
        <time>2012-10-21T08:35:09Z</time>
      </trkpt>
      <trkpt lat="44.15805" lon="7.23185">
        <ele>2357.29</ele>
        <time>2012-10-21T08:35:23Z</time>
      </trkpt>
      <trkpt lat="44.15808" lon="7.23194">
        <ele>2359.21</ele>
        <time>2012-10-21T08:35:34Z</time>
      </trkpt>
      <trkpt lat="44.15811" lon="7.23199">
        <ele>2360.17</ele>
        <time>2012-10-21T08:35:46Z</time>
      </trkpt>
      <trkpt lat="44.15813" lon="7.23201">
        <ele>2362.58</ele>
        <time>2012-10-21T08:35:58Z</time>
      </trkpt>
      <trkpt lat="44.15815" lon="7.23204">
        <ele>2362.58</ele>
        <time>2012-10-21T08:36:10Z</time>
      </trkpt>
      <trkpt lat="44.15815" lon="7.2321">
        <ele>2364.98</ele>
        <time>2012-10-21T08:36:23Z</time>
      </trkpt>
      <trkpt lat="44.15817" lon="7.23213">
        <ele>2366.42</ele>
        <time>2012-10-21T08:36:35Z</time>
      </trkpt>
      <trkpt lat="44.15816" lon="7.23216">
        <ele>2368.35</ele>
        <time>2012-10-21T08:36:47Z</time>
      </trkpt>
      <trkpt lat="44.15816" lon="7.23227">
        <ele>2370.27</ele>
        <time>2012-10-21T08:37:02Z</time>
      </trkpt>
      <trkpt lat="44.15813" lon="7.23237">
        <ele>2372.19</ele>
        <time>2012-10-21T08:37:16Z</time>
      </trkpt>
      <trkpt lat="44.1581" lon="7.23242">
        <ele>2373.63</ele>
        <time>2012-10-21T08:37:28Z</time>
      </trkpt>
      <trkpt lat="44.15808" lon="7.23243">
        <ele>2375.55</ele>
        <time>2012-10-21T08:37:41Z</time>
      </trkpt>
      <trkpt lat="44.15807" lon="7.23249">
        <ele>2377</ele>
        <time>2012-10-21T08:37:57Z</time>
      </trkpt>
      <trkpt lat="44.15805" lon="7.23257">
        <ele>2377.96</ele>
        <time>2012-10-21T08:38:14Z</time>
      </trkpt>
      <trkpt lat="44.15803" lon="7.23261">
        <ele>2380.36</ele>
        <time>2012-10-21T08:38:27Z</time>
      </trkpt>
      <trkpt lat="44.15802" lon="7.23265">
        <ele>2381.32</ele>
        <time>2012-10-21T08:38:39Z</time>
      </trkpt>
      <trkpt lat="44.15801" lon="7.23267">
        <ele>2383.25</ele>
        <time>2012-10-21T08:38:51Z</time>
      </trkpt>
      <trkpt lat="44.15799" lon="7.23265">
        <ele>2384.21</ele>
        <time>2012-10-21T08:39:08Z</time>
      </trkpt>
      <trkpt lat="44.15798" lon="7.23267">
        <ele>2385.65</ele>
        <time>2012-10-21T08:39:22Z</time>
      </trkpt>
      <trkpt lat="44.15798" lon="7.23267">
        <ele>2388.05</ele>
        <time>2012-10-21T08:39:35Z</time>
      </trkpt>
      <trkpt lat="44.15799" lon="7.23269">
        <ele>2389.01</ele>
        <time>2012-10-21T08:39:52Z</time>
      </trkpt>
      <trkpt lat="44.158" lon="7.23271">
        <ele>2390.46</ele>
        <time>2012-10-21T08:40:06Z</time>
      </trkpt>
      <trkpt lat="44.15801" lon="7.23272">
        <ele>2392.86</ele>
        <time>2012-10-21T08:40:18Z</time>
      </trkpt>
      <trkpt lat="44.15803" lon="7.23278">
        <ele>2394.3</ele>
        <time>2012-10-21T08:40:32Z</time>
      </trkpt>
      <trkpt lat="44.15801" lon="7.23282">
        <ele>2395.26</ele>
        <time>2012-10-21T08:40:54Z</time>
      </trkpt>
      <trkpt lat="44.158" lon="7.23282">
        <ele>2395.74</ele>
        <time>2012-10-21T08:41:46Z</time>
      </trkpt>
      <trkpt lat="44.15799" lon="7.23283">
        <ele>2395.74</ele>
        <time>2012-10-21T08:42:43Z</time>
      </trkpt>
      <trkpt lat="44.15799" lon="7.23285">
        <ele>2396.7</ele>
        <time>2012-10-21T08:43:14Z</time>
      </trkpt>
      <trkpt lat="44.15801" lon="7.23286">
        <ele>2397.18</ele>
        <time>2012-10-21T08:43:32Z</time>
      </trkpt>
      <trkpt lat="44.158" lon="7.23292">
        <ele>2398.15</ele>
        <time>2012-10-21T08:43:42Z</time>
      </trkpt>
      <trkpt lat="44.15801" lon="7.233">
        <ele>2400.07</ele>
        <time>2012-10-21T08:43:55Z</time>
      </trkpt>
      <trkpt lat="44.15802" lon="7.23307">
        <ele>2402.47</ele>
        <time>2012-10-21T08:44:09Z</time>
      </trkpt>
      <trkpt lat="44.15803" lon="7.23317">
        <ele>2404.39</ele>
        <time>2012-10-21T08:44:22Z</time>
      </trkpt>
      <trkpt lat="44.15804" lon="7.23325">
        <ele>2404.88</ele>
        <time>2012-10-21T08:44:33Z</time>
      </trkpt>
      <trkpt lat="44.15806" lon="7.23327">
        <ele>2405.36</ele>
        <time>2012-10-21T08:44:47Z</time>
      </trkpt>
      <trkpt lat="44.15806" lon="7.23328">
        <ele>2405.84</ele>
        <time>2012-10-21T08:45:06Z</time>
      </trkpt>
      <trkpt lat="44.15807" lon="7.23329">
        <ele>2405.36</ele>
        <time>2012-10-21T08:45:32Z</time>
      </trkpt>
      <trkpt lat="44.15808" lon="7.2333">
        <ele>2406.32</ele>
        <time>2012-10-21T08:45:56Z</time>
      </trkpt>
      <trkpt lat="44.15808" lon="7.2333">
        <ele>2406.32</ele>
        <time>2012-10-21T08:46:33Z</time>
      </trkpt>
      <trkpt lat="44.15808" lon="7.23331">
        <ele>2406.8</ele>
        <time>2012-10-21T08:47:16Z</time>
      </trkpt>
      <trkpt lat="44.15808" lon="7.23331">
        <ele>2406.8</ele>
        <time>2012-10-21T08:48:17Z</time>
      </trkpt>
      <trkpt lat="44.15808" lon="7.23331">
        <ele>2407.28</ele>
        <time>2012-10-21T08:49:02Z</time>
      </trkpt>
      <trkpt lat="44.15806" lon="7.2333">
        <ele>2407.28</ele>
        <time>2012-10-21T08:49:34Z</time>
      </trkpt>
      <trkpt lat="44.15805" lon="7.23329">
        <ele>2407.76</ele>
        <time>2012-10-21T08:49:35Z</time>
      </trkpt>
      <trkpt lat="44.15797" lon="7.23331">
        <ele>2408.72</ele>
        <time>2012-10-21T08:49:47Z</time>
      </trkpt>
      <trkpt lat="44.15792" lon="7.23336">
        <ele>2410.64</ele>
        <time>2012-10-21T08:49:59Z</time>
      </trkpt>
      <trkpt lat="44.15784" lon="7.23343">
        <ele>2411.6</ele>
        <time>2012-10-21T08:50:13Z</time>
      </trkpt>
      <trkpt lat="44.15782" lon="7.23347">
        <ele>2411.12</ele>
        <time>2012-10-21T08:50:28Z</time>
      </trkpt>
      <trkpt lat="44.15778" lon="7.2335">
        <ele>2411.12</ele>
        <time>2012-10-21T08:50:44Z</time>
      </trkpt>
      <trkpt lat="44.15774" lon="7.23347">
        <ele>2413.53</ele>
        <time>2012-10-21T08:50:59Z</time>
      </trkpt>
      <trkpt lat="44.15768" lon="7.23348">
        <ele>2414.01</ele>
        <time>2012-10-21T08:51:11Z</time>
      </trkpt>
      <trkpt lat="44.15759" lon="7.23343">
        <ele>2414.49</ele>
        <time>2012-10-21T08:51:23Z</time>
      </trkpt>
      <trkpt lat="44.15749" lon="7.23339">
        <ele>2412.57</ele>
        <time>2012-10-21T08:51:36Z</time>
      </trkpt>
      <trkpt lat="44.15749" lon="7.2334">
        <ele>2413.05</ele>
        <time>2012-10-21T08:51:37Z</time>
      </trkpt>
      <trkpt lat="44.15739" lon="7.23346">
        <ele>2413.05</ele>
        <time>2012-10-21T08:51:49Z</time>
      </trkpt>
      <trkpt lat="44.15731" lon="7.23346">
        <ele>2414.97</ele>
        <time>2012-10-21T08:52:01Z</time>
      </trkpt>
      <trkpt lat="44.15728" lon="7.23348">
        <ele>2414.01</ele>
        <time>2012-10-21T08:52:06Z</time>
      </trkpt>
      <trkpt lat="44.1572" lon="7.2335">
        <ele>2412.57</ele>
        <time>2012-10-21T08:52:17Z</time>
      </trkpt>
      <trkpt lat="44.15717" lon="7.23348">
        <ele>2411.6</ele>
        <time>2012-10-21T08:52:20Z</time>
      </trkpt>
      <trkpt lat="44.157" lon="7.2335">
        <ele>2412.09</ele>
        <time>2012-10-21T08:52:36Z</time>
      </trkpt>
      <trkpt lat="44.15688" lon="7.23353">
        <ele>2410.16</ele>
        <time>2012-10-21T08:52:49Z</time>
      </trkpt>
      <trkpt lat="44.15682" lon="7.23356">
        <ele>2408.72</ele>
        <time>2012-10-21T08:52:58Z</time>
      </trkpt>
      <trkpt lat="44.15677" lon="7.23357">
        <ele>2406.32</ele>
        <time>2012-10-21T08:53:10Z</time>
      </trkpt>
      <trkpt lat="44.15673" lon="7.23361">
        <ele>2404.88</ele>
        <time>2012-10-21T08:53:21Z</time>
      </trkpt>
      <trkpt lat="44.15669" lon="7.23363">
        <ele>2401.99</ele>
        <time>2012-10-21T08:53:28Z</time>
      </trkpt>
      <trkpt lat="44.1567" lon="7.23365">
        <ele>2401.51</ele>
        <time>2012-10-21T08:53:30Z</time>
      </trkpt>
      <trkpt lat="44.15673" lon="7.23369">
        <ele>2400.07</ele>
        <time>2012-10-21T08:53:35Z</time>
      </trkpt>
      <trkpt lat="44.15675" lon="7.23374">
        <ele>2399.11</ele>
        <time>2012-10-21T08:53:41Z</time>
      </trkpt>
      <trkpt lat="44.15671" lon="7.23384">
        <ele>2397.18</ele>
        <time>2012-10-21T08:53:53Z</time>
      </trkpt>
      <trkpt lat="44.15664" lon="7.2339">
        <ele>2395.26</ele>
        <time>2012-10-21T08:54:06Z</time>
      </trkpt>
      <trkpt lat="44.15658" lon="7.234">
        <ele>2392.38</ele>
        <time>2012-10-21T08:54:18Z</time>
      </trkpt>
      <trkpt lat="44.15659" lon="7.234">
        <ele>2392.38</ele>
        <time>2012-10-21T08:54:20Z</time>
      </trkpt>
      <trkpt lat="44.1566" lon="7.23402">
        <ele>2390.94</ele>
        <time>2012-10-21T08:54:29Z</time>
      </trkpt>
      <trkpt lat="44.15657" lon="7.23409">
        <ele>2388.53</ele>
        <time>2012-10-21T08:54:39Z</time>
      </trkpt>
      <trkpt lat="44.15657" lon="7.23412">
        <ele>2386.61</ele>
        <time>2012-10-21T08:54:51Z</time>
      </trkpt>
      <trkpt lat="44.15653" lon="7.23418">
        <ele>2384.21</ele>
        <time>2012-10-21T08:55:14Z</time>
      </trkpt>
      <trkpt lat="44.15651" lon="7.23423">
        <ele>2381.8</ele>
        <time>2012-10-21T08:55:26Z</time>
      </trkpt>
      <trkpt lat="44.15649" lon="7.23427">
        <ele>2380.36</ele>
        <time>2012-10-21T08:55:39Z</time>
      </trkpt>
      <trkpt lat="44.15647" lon="7.23431">
        <ele>2379.4</ele>
        <time>2012-10-21T08:55:51Z</time>
      </trkpt>
      <trkpt lat="44.15648" lon="7.23432">
        <ele>2377</ele>
        <time>2012-10-21T08:56:01Z</time>
      </trkpt>
      <trkpt lat="44.15651" lon="7.23433">
        <ele>2376.04</ele>
        <time>2012-10-21T08:56:13Z</time>
      </trkpt>
      <trkpt lat="44.15654" lon="7.23434">
        <ele>2374.11</ele>
        <time>2012-10-21T08:56:25Z</time>
      </trkpt>
      <trkpt lat="44.15659" lon="7.23436">
        <ele>2372.67</ele>
        <time>2012-10-21T08:56:46Z</time>
      </trkpt>
      <trkpt lat="44.15659" lon="7.2344">
        <ele>2371.23</ele>
        <time>2012-10-21T08:56:56Z</time>
      </trkpt>
      <trkpt lat="44.1566" lon="7.23442">
        <ele>2368.83</ele>
        <time>2012-10-21T08:57:07Z</time>
      </trkpt>
      <trkpt lat="44.15659" lon="7.23446">
        <ele>2367.86</ele>
        <time>2012-10-21T08:57:20Z</time>
      </trkpt>
      <trkpt lat="44.15658" lon="7.23452">
        <ele>2365.94</ele>
        <time>2012-10-21T08:57:33Z</time>
      </trkpt>
      <trkpt lat="44.15658" lon="7.23457">
        <ele>2364.98</ele>
        <time>2012-10-21T08:57:45Z</time>
      </trkpt>
      <trkpt lat="44.15659" lon="7.23462">
        <ele>2363.54</ele>
        <time>2012-10-21T08:57:58Z</time>
      </trkpt>
      <trkpt lat="44.15658" lon="7.23469">
        <ele>2362.1</ele>
        <time>2012-10-21T08:58:11Z</time>
      </trkpt>
      <trkpt lat="44.15654" lon="7.23477">
        <ele>2361.62</ele>
        <time>2012-10-21T08:58:24Z</time>
      </trkpt>
      <trkpt lat="44.15653" lon="7.2348">
        <ele>2360.17</ele>
        <time>2012-10-21T08:58:36Z</time>
      </trkpt>
      <trkpt lat="44.15653" lon="7.23484">
        <ele>2360.17</ele>
        <time>2012-10-21T08:58:48Z</time>
      </trkpt>
      <trkpt lat="44.15651" lon="7.2349">
        <ele>2359.21</ele>
        <time>2012-10-21T08:59:01Z</time>
      </trkpt>
      <trkpt lat="44.15646" lon="7.23497">
        <ele>2359.21</ele>
        <time>2012-10-21T08:59:11Z</time>
      </trkpt>
      <trkpt lat="44.15646" lon="7.23498">
        <ele>2359.69</ele>
        <time>2012-10-21T08:59:13Z</time>
      </trkpt>
      <trkpt lat="44.15646" lon="7.23508">
        <ele>2357.77</ele>
        <time>2012-10-21T08:59:25Z</time>
      </trkpt>
      <trkpt lat="44.15644" lon="7.23516">
        <ele>2356.33</ele>
        <time>2012-10-21T08:59:38Z</time>
      </trkpt>
      <trkpt lat="44.15641" lon="7.23523">
        <ele>2355.85</ele>
        <time>2012-10-21T08:59:50Z</time>
      </trkpt>
      <trkpt lat="44.15636" lon="7.23528">
        <ele>2356.33</ele>
        <time>2012-10-21T09:00:02Z</time>
      </trkpt>
      <trkpt lat="44.15634" lon="7.23533">
        <ele>2354.89</ele>
        <time>2012-10-21T09:00:14Z</time>
      </trkpt>
      <trkpt lat="44.15629" lon="7.23543">
        <ele>2356.33</ele>
        <time>2012-10-21T09:00:26Z</time>
      </trkpt>
      <trkpt lat="44.15625" lon="7.23548">
        <ele>2355.37</ele>
        <time>2012-10-21T09:00:36Z</time>
      </trkpt>
      <trkpt lat="44.15625" lon="7.23548">
        <ele>2355.37</ele>
        <time>2012-10-21T09:00:37Z</time>
      </trkpt>
      <trkpt lat="44.1562" lon="7.23551">
        <ele>2356.33</ele>
        <time>2012-10-21T09:00:48Z</time>
      </trkpt>
      <trkpt lat="44.15617" lon="7.23551">
        <ele>2356.33</ele>
        <time>2012-10-21T09:00:55Z</time>
      </trkpt>
      <trkpt lat="44.15615" lon="7.23554">
        <ele>2355.37</ele>
        <time>2012-10-21T09:01:08Z</time>
      </trkpt>
      <trkpt lat="44.15615" lon="7.23556">
        <ele>2355.85</ele>
        <time>2012-10-21T09:01:10Z</time>
      </trkpt>
      <trkpt lat="44.15617" lon="7.23563">
        <ele>2355.37</ele>
        <time>2012-10-21T09:01:22Z</time>
      </trkpt>
      <trkpt lat="44.15622" lon="7.23567">
        <ele>2356.33</ele>
        <time>2012-10-21T09:01:36Z</time>
      </trkpt>
      <trkpt lat="44.15623" lon="7.23571">
        <ele>2355.85</ele>
        <time>2012-10-21T09:01:47Z</time>
      </trkpt>
      <trkpt lat="44.15628" lon="7.23572">
        <ele>2355.37</ele>
        <time>2012-10-21T09:02:03Z</time>
      </trkpt>
      <trkpt lat="44.15632" lon="7.23577">
        <ele>2356.81</ele>
        <time>2012-10-21T09:02:16Z</time>
      </trkpt>
      <trkpt lat="44.15631" lon="7.23576">
        <ele>2356.33</ele>
        <time>2012-10-21T09:02:27Z</time>
      </trkpt>
      <trkpt lat="44.1563" lon="7.23575">
        <ele>2346.72</ele>
        <time>2012-10-21T09:04:26Z</time>
      </trkpt>
      <trkpt lat="44.1563" lon="7.23575">
        <ele>2359.69</ele>
        <time>2012-10-21T09:04:27Z</time>
      </trkpt>
      <trkpt lat="44.1563" lon="7.23575">
        <ele>2356.81</ele>
        <time>2012-10-21T09:04:31Z</time>
      </trkpt>
      <trkpt lat="44.1563" lon="7.23575">
        <ele>2352.48</ele>
        <time>2012-10-21T09:04:51Z</time>
      </trkpt>
      <trkpt lat="44.1563" lon="7.23575">
        <ele>2357.29</ele>
        <time>2012-10-21T09:04:52Z</time>
      </trkpt>
      <trkpt lat="44.1563" lon="7.23575">
        <ele>2353.93</ele>
        <time>2012-10-21T09:04:58Z</time>
      </trkpt>
      <trkpt lat="44.1563" lon="7.23575">
        <ele>2357.77</ele>
        <time>2012-10-21T09:05:01Z</time>
      </trkpt>
      <trkpt lat="44.15629" lon="7.23575">
        <ele>2354.41</ele>
        <time>2012-10-21T09:05:10Z</time>
      </trkpt>
      <trkpt lat="44.15629" lon="7.23575">
        <ele>2357.29</ele>
        <time>2012-10-21T09:05:20Z</time>
      </trkpt>
      <trkpt lat="44.15629" lon="7.23575">
        <ele>2357.29</ele>
        <time>2012-10-21T09:06:34Z</time>
      </trkpt>
      <trkpt lat="44.1563" lon="7.23576">
        <ele>2361.14</ele>
        <time>2012-10-21T09:07:24Z</time>
      </trkpt>
      <trkpt lat="44.1563" lon="7.23576">
        <ele>2357.77</ele>
        <time>2012-10-21T09:07:27Z</time>
      </trkpt>
      <trkpt lat="44.15629" lon="7.23576">
        <ele>2358.73</ele>
        <time>2012-10-21T09:07:51Z</time>
      </trkpt>
      <trkpt lat="44.15629" lon="7.23576">
        <ele>2354.41</ele>
        <time>2012-10-21T09:08:06Z</time>
      </trkpt>
      <trkpt lat="44.15629" lon="7.23576">
        <ele>2358.25</ele>
        <time>2012-10-21T09:08:07Z</time>
      </trkpt>
      <trkpt lat="44.1563" lon="7.23579">
        <ele>2360.65</ele>
        <time>2012-10-21T09:09:47Z</time>
      </trkpt>
      <trkpt lat="44.1563" lon="7.23579">
        <ele>2360.65</ele>
        <time>2012-10-21T09:10:31Z</time>
      </trkpt>
      <trkpt lat="44.15631" lon="7.2358">
        <ele>2360.17</ele>
        <time>2012-10-21T09:10:56Z</time>
      </trkpt>
      <trkpt lat="44.15631" lon="7.2358">
        <ele>2360.17</ele>
        <time>2012-10-21T09:11:25Z</time>
      </trkpt>
      <trkpt lat="44.15631" lon="7.2358">
        <ele>2360.65</ele>
        <time>2012-10-21T09:12:29Z</time>
      </trkpt>
      <trkpt lat="44.15631" lon="7.2358">
        <ele>2359.69</ele>
        <time>2012-10-21T09:12:51Z</time>
      </trkpt>
      <trkpt lat="44.15632" lon="7.23581">
        <ele>2362.1</ele>
        <time>2012-10-21T09:13:31Z</time>
      </trkpt>
      <trkpt lat="44.15632" lon="7.23581">
        <ele>2363.06</ele>
        <time>2012-10-21T09:13:48Z</time>
      </trkpt>
      <trkpt lat="44.15632" lon="7.23581">
        <ele>2363.06</ele>
        <time>2012-10-21T09:14:11Z</time>
      </trkpt>
      <trkpt lat="44.15633" lon="7.23581">
        <ele>2362.1</ele>
        <time>2012-10-21T09:14:22Z</time>
      </trkpt>
      <trkpt lat="44.1563" lon="7.23579">
        <ele>2362.1</ele>
        <time>2012-10-21T09:14:51Z</time>
      </trkpt>
      <trkpt lat="44.15631" lon="7.23578">
        <ele>2362.58</ele>
        <time>2012-10-21T09:15:14Z</time>
      </trkpt>
      <trkpt lat="44.15631" lon="7.23577">
        <ele>2362.1</ele>
        <time>2012-10-21T09:15:29Z</time>
      </trkpt>
      <trkpt lat="44.15639" lon="7.23582">
        <ele>2363.06</ele>
        <time>2012-10-21T09:15:37Z</time>
      </trkpt>
      <trkpt lat="44.15643" lon="7.23587">
        <ele>2363.06</ele>
        <time>2012-10-21T09:15:43Z</time>
      </trkpt>
      <trkpt lat="44.15648" lon="7.23592">
        <ele>2363.06</ele>
        <time>2012-10-21T09:15:50Z</time>
      </trkpt>
      <trkpt lat="44.15658" lon="7.23599">
        <ele>2363.06</ele>
        <time>2012-10-21T09:16:02Z</time>
      </trkpt>
      <trkpt lat="44.1566" lon="7.23603">
        <ele>2363.06</ele>
        <time>2012-10-21T09:16:05Z</time>
      </trkpt>
      <trkpt lat="44.15661" lon="7.23605">
        <ele>2363.06</ele>
        <time>2012-10-21T09:16:07Z</time>
      </trkpt>
      <trkpt lat="44.15667" lon="7.23612">
        <ele>2363.06</ele>
        <time>2012-10-21T09:16:15Z</time>
      </trkpt>
      <trkpt lat="44.15673" lon="7.23619">
        <ele>2363.54</ele>
        <time>2012-10-21T09:16:25Z</time>
      </trkpt>
      <trkpt lat="44.15673" lon="7.23622">
        <ele>2364.02</ele>
        <time>2012-10-21T09:16:27Z</time>
      </trkpt>
      <trkpt lat="44.15672" lon="7.23634">
        <ele>2363.54</ele>
        <time>2012-10-21T09:16:37Z</time>
      </trkpt>
      <trkpt lat="44.15667" lon="7.23642">
        <ele>2364.02</ele>
        <time>2012-10-21T09:16:47Z</time>
      </trkpt>
      <trkpt lat="44.15668" lon="7.23645">
        <ele>2363.54</ele>
        <time>2012-10-21T09:16:49Z</time>
      </trkpt>
      <trkpt lat="44.15669" lon="7.23648">
        <ele>2363.06</ele>
        <time>2012-10-21T09:16:52Z</time>
      </trkpt>
      <trkpt lat="44.15667" lon="7.23659">
        <ele>2363.06</ele>
        <time>2012-10-21T09:16:58Z</time>
      </trkpt>
      <trkpt lat="44.15667" lon="7.23665">
        <ele>2363.06</ele>
        <time>2012-10-21T09:17:02Z</time>
      </trkpt>
      <trkpt lat="44.15669" lon="7.23669">
        <ele>2362.1</ele>
        <time>2012-10-21T09:17:14Z</time>
      </trkpt>
      <trkpt lat="44.15669" lon="7.23671">
        <ele>2362.58</ele>
        <time>2012-10-21T09:17:31Z</time>
      </trkpt>
      <trkpt lat="44.15669" lon="7.23684">
        <ele>2362.1</ele>
        <time>2012-10-21T09:17:42Z</time>
      </trkpt>
      <trkpt lat="44.15667" lon="7.23695">
        <ele>2363.06</ele>
        <time>2012-10-21T09:17:52Z</time>
      </trkpt>
      <trkpt lat="44.15666" lon="7.23701">
        <ele>2362.58</ele>
        <time>2012-10-21T09:18:04Z</time>
      </trkpt>
      <trkpt lat="44.15664" lon="7.23705">
        <ele>2362.1</ele>
        <time>2012-10-21T09:18:22Z</time>
      </trkpt>
      <trkpt lat="44.15666" lon="7.23706">
        <ele>2363.06</ele>
        <time>2012-10-21T09:18:25Z</time>
      </trkpt>
      <trkpt lat="44.15667" lon="7.23708">
        <ele>2362.58</ele>
        <time>2012-10-21T09:18:27Z</time>
      </trkpt>
      <trkpt lat="44.1567" lon="7.23711">
        <ele>2362.58</ele>
        <time>2012-10-21T09:18:31Z</time>
      </trkpt>
      <trkpt lat="44.15671" lon="7.23716">
        <ele>2362.58</ele>
        <time>2012-10-21T09:18:35Z</time>
      </trkpt>
      <trkpt lat="44.15673" lon="7.23721">
        <ele>2362.1</ele>
        <time>2012-10-21T09:18:39Z</time>
      </trkpt>
      <trkpt lat="44.15678" lon="7.23736">
        <ele>2363.06</ele>
        <time>2012-10-21T09:18:52Z</time>
      </trkpt>
      <trkpt lat="44.15683" lon="7.23748">
        <ele>2363.06</ele>
        <time>2012-10-21T09:19:04Z</time>
      </trkpt>
      <trkpt lat="44.15684" lon="7.23749">
        <ele>2363.54</ele>
        <time>2012-10-21T09:19:05Z</time>
      </trkpt>
      <trkpt lat="44.15694" lon="7.2376">
        <ele>2362.58</ele>
        <time>2012-10-21T09:19:18Z</time>
      </trkpt>
      <trkpt lat="44.15696" lon="7.23764">
        <ele>2362.58</ele>
        <time>2012-10-21T09:19:21Z</time>
      </trkpt>
      <trkpt lat="44.15702" lon="7.23767">
        <ele>2362.1</ele>
        <time>2012-10-21T09:19:27Z</time>
      </trkpt>
      <trkpt lat="44.15707" lon="7.23776">
        <ele>2363.06</ele>
        <time>2012-10-21T09:19:33Z</time>
      </trkpt>
      <trkpt lat="44.15712" lon="7.23781">
        <ele>2363.06</ele>
        <time>2012-10-21T09:19:38Z</time>
      </trkpt>
      <trkpt lat="44.15718" lon="7.23784">
        <ele>2363.06</ele>
        <time>2012-10-21T09:19:43Z</time>
      </trkpt>
      <trkpt lat="44.15723" lon="7.23785">
        <ele>2363.06</ele>
        <time>2012-10-21T09:19:48Z</time>
      </trkpt>
      <trkpt lat="44.15725" lon="7.23786">
        <ele>2363.06</ele>
        <time>2012-10-21T09:19:50Z</time>
      </trkpt>
      <trkpt lat="44.15729" lon="7.23789">
        <ele>2363.06</ele>
        <time>2012-10-21T09:19:54Z</time>
      </trkpt>
      <trkpt lat="44.1573" lon="7.23789">
        <ele>2364.02</ele>
        <time>2012-10-21T09:19:56Z</time>
      </trkpt>
      <trkpt lat="44.15744" lon="7.2379">
        <ele>2364.5</ele>
        <time>2012-10-21T09:20:09Z</time>
      </trkpt>
      <trkpt lat="44.15746" lon="7.23791">
        <ele>2364.02</ele>
        <time>2012-10-21T09:20:11Z</time>
      </trkpt>
      <trkpt lat="44.15752" lon="7.23792">
        <ele>2364.5</ele>
        <time>2012-10-21T09:20:16Z</time>
      </trkpt>
      <trkpt lat="44.15755" lon="7.23792">
        <ele>2364.98</ele>
        <time>2012-10-21T09:20:19Z</time>
      </trkpt>
      <trkpt lat="44.15764" lon="7.23791">
        <ele>2364.98</ele>
        <time>2012-10-21T09:20:28Z</time>
      </trkpt>
      <trkpt lat="44.15768" lon="7.23791">
        <ele>2364.98</ele>
        <time>2012-10-21T09:20:32Z</time>
      </trkpt>
      <trkpt lat="44.15777" lon="7.23795">
        <ele>2365.46</ele>
        <time>2012-10-21T09:20:44Z</time>
      </trkpt>
      <trkpt lat="44.15782" lon="7.23795">
        <ele>2365.46</ele>
        <time>2012-10-21T09:20:49Z</time>
      </trkpt>
      <trkpt lat="44.15785" lon="7.23796">
        <ele>2364.98</ele>
        <time>2012-10-21T09:20:51Z</time>
      </trkpt>
      <trkpt lat="44.15796" lon="7.23798">
        <ele>2364.98</ele>
        <time>2012-10-21T09:21:02Z</time>
      </trkpt>
      <trkpt lat="44.15797" lon="7.23798">
        <ele>2365.46</ele>
        <time>2012-10-21T09:21:04Z</time>
      </trkpt>
      <trkpt lat="44.158" lon="7.23802">
        <ele>2365.46</ele>
        <time>2012-10-21T09:21:08Z</time>
      </trkpt>
      <trkpt lat="44.15809" lon="7.23801">
        <ele>2364.02</ele>
        <time>2012-10-21T09:21:19Z</time>
      </trkpt>
      <trkpt lat="44.1581" lon="7.23796">
        <ele>2363.54</ele>
        <time>2012-10-21T09:21:23Z</time>
      </trkpt>
      <trkpt lat="44.15818" lon="7.23801">
        <ele>2364.02</ele>
        <time>2012-10-21T09:21:34Z</time>
      </trkpt>
      <trkpt lat="44.15821" lon="7.23802">
        <ele>2363.54</ele>
        <time>2012-10-21T09:21:43Z</time>
      </trkpt>
      <trkpt lat="44.15823" lon="7.23801">
        <ele>2363.54</ele>
        <time>2012-10-21T09:21:46Z</time>
      </trkpt>
      <trkpt lat="44.15826" lon="7.238">
        <ele>2362.58</ele>
        <time>2012-10-21T09:21:51Z</time>
      </trkpt>
      <trkpt lat="44.15834" lon="7.23784">
        <ele>2362.58</ele>
        <time>2012-10-21T09:22:02Z</time>
      </trkpt>
      <trkpt lat="44.15837" lon="7.23781">
        <ele>2362.1</ele>
        <time>2012-10-21T09:22:04Z</time>
      </trkpt>
      <trkpt lat="44.1584" lon="7.23779">
        <ele>2362.58</ele>
        <time>2012-10-21T09:22:07Z</time>
      </trkpt>
      <trkpt lat="44.15851" lon="7.23771">
        <ele>2364.5</ele>
        <time>2012-10-21T09:22:20Z</time>
      </trkpt>
      <trkpt lat="44.15853" lon="7.23768">
        <ele>2364.5</ele>
        <time>2012-10-21T09:22:24Z</time>
      </trkpt>
      <trkpt lat="44.15859" lon="7.23764">
        <ele>2364.5</ele>
        <time>2012-10-21T09:22:30Z</time>
      </trkpt>
      <trkpt lat="44.15862" lon="7.23761">
        <ele>2364.02</ele>
        <time>2012-10-21T09:22:33Z</time>
      </trkpt>
      <trkpt lat="44.15872" lon="7.23751">
        <ele>2364.02</ele>
        <time>2012-10-21T09:22:44Z</time>
      </trkpt>
      <trkpt lat="44.15876" lon="7.23749">
        <ele>2364.5</ele>
        <time>2012-10-21T09:22:48Z</time>
      </trkpt>
      <trkpt lat="44.15881" lon="7.23743">
        <ele>2364.5</ele>
        <time>2012-10-21T09:22:53Z</time>
      </trkpt>
      <trkpt lat="44.15891" lon="7.23736">
        <ele>2365.94</ele>
        <time>2012-10-21T09:23:04Z</time>
      </trkpt>
      <trkpt lat="44.15895" lon="7.23726">
        <ele>2367.38</ele>
        <time>2012-10-21T09:23:17Z</time>
      </trkpt>
      <trkpt lat="44.15901" lon="7.23733">
        <ele>2368.35</ele>
        <time>2012-10-21T09:23:27Z</time>
      </trkpt>
      <trkpt lat="44.15905" lon="7.23743">
        <ele>2368.83</ele>
        <time>2012-10-21T09:23:35Z</time>
      </trkpt>
      <trkpt lat="44.15912" lon="7.23746">
        <ele>2370.27</ele>
        <time>2012-10-21T09:23:45Z</time>
      </trkpt>
      <trkpt lat="44.15917" lon="7.23748">
        <ele>2370.75</ele>
        <time>2012-10-21T09:23:54Z</time>
      </trkpt>
      <trkpt lat="44.15926" lon="7.2375">
        <ele>2371.23</ele>
        <time>2012-10-21T09:24:05Z</time>
      </trkpt>
      <trkpt lat="44.15927" lon="7.23751">
        <ele>2370.75</ele>
        <time>2012-10-21T09:24:07Z</time>
      </trkpt>
      <trkpt lat="44.15929" lon="7.23751">
        <ele>2370.75</ele>
        <time>2012-10-21T09:24:09Z</time>
      </trkpt>
      <trkpt lat="44.15932" lon="7.23753">
        <ele>2370.75</ele>
        <time>2012-10-21T09:24:13Z</time>
      </trkpt>
      <trkpt lat="44.15937" lon="7.2376">
        <ele>2371.71</ele>
        <time>2012-10-21T09:24:25Z</time>
      </trkpt>
      <trkpt lat="44.1594" lon="7.23764">
        <ele>2371.23</ele>
        <time>2012-10-21T09:24:34Z</time>
      </trkpt>
      <trkpt lat="44.15944" lon="7.23769">
        <ele>2372.67</ele>
        <time>2012-10-21T09:24:45Z</time>
      </trkpt>
      <trkpt lat="44.15948" lon="7.23773">
        <ele>2373.63</ele>
        <time>2012-10-21T09:25:00Z</time>
      </trkpt>
      <trkpt lat="44.15954" lon="7.23779">
        <ele>2374.11</ele>
        <time>2012-10-21T09:25:09Z</time>
      </trkpt>
      <trkpt lat="44.15958" lon="7.2378">
        <ele>2374.59</ele>
        <time>2012-10-21T09:25:16Z</time>
      </trkpt>
      <trkpt lat="44.15962" lon="7.23782">
        <ele>2374.59</ele>
        <time>2012-10-21T09:25:21Z</time>
      </trkpt>
      <trkpt lat="44.15964" lon="7.2378">
        <ele>2375.07</ele>
        <time>2012-10-21T09:25:31Z</time>
      </trkpt>
      <trkpt lat="44.15965" lon="7.2378">
        <ele>2375.55</ele>
        <time>2012-10-21T09:25:41Z</time>
      </trkpt>
      <trkpt lat="44.15966" lon="7.23781">
        <ele>2376.52</ele>
        <time>2012-10-21T09:25:46Z</time>
      </trkpt>
      <trkpt lat="44.15968" lon="7.23785">
        <ele>2376.52</ele>
        <time>2012-10-21T09:25:50Z</time>
      </trkpt>
      <trkpt lat="44.15978" lon="7.23785">
        <ele>2376.52</ele>
        <time>2012-10-21T09:26:01Z</time>
      </trkpt>
      <trkpt lat="44.15982" lon="7.23784">
        <ele>2376.52</ele>
        <time>2012-10-21T09:26:09Z</time>
      </trkpt>
      <trkpt lat="44.15989" lon="7.23782">
        <ele>2376.52</ele>
        <time>2012-10-21T09:26:21Z</time>
      </trkpt>
      <trkpt lat="44.15991" lon="7.23784">
        <ele>2377</ele>
        <time>2012-10-21T09:26:30Z</time>
      </trkpt>
      <trkpt lat="44.15994" lon="7.23783">
        <ele>2378.44</ele>
        <time>2012-10-21T09:26:38Z</time>
      </trkpt>
      <trkpt lat="44.15997" lon="7.2379">
        <ele>2379.4</ele>
        <time>2012-10-21T09:26:48Z</time>
      </trkpt>
      <trkpt lat="44.16001" lon="7.23791">
        <ele>2380.36</ele>
        <time>2012-10-21T09:27:00Z</time>
      </trkpt>
      <trkpt lat="44.16005" lon="7.23793">
        <ele>2381.8</ele>
        <time>2012-10-21T09:27:14Z</time>
      </trkpt>
      <trkpt lat="44.16007" lon="7.23796">
        <ele>2383.73</ele>
        <time>2012-10-21T09:27:23Z</time>
      </trkpt>
      <trkpt lat="44.16008" lon="7.23803">
        <ele>2384.21</ele>
        <time>2012-10-21T09:27:36Z</time>
      </trkpt>
      <trkpt lat="44.16011" lon="7.23805">
        <ele>2386.13</ele>
        <time>2012-10-21T09:27:48Z</time>
      </trkpt>
      <trkpt lat="44.16018" lon="7.23807">
        <ele>2387.09</ele>
        <time>2012-10-21T09:27:58Z</time>
      </trkpt>
      <trkpt lat="44.16025" lon="7.23809">
        <ele>2389.01</ele>
        <time>2012-10-21T09:28:11Z</time>
      </trkpt>
      <trkpt lat="44.16028" lon="7.23812">
        <ele>2390.46</ele>
        <time>2012-10-21T09:28:22Z</time>
      </trkpt>
      <trkpt lat="44.16032" lon="7.23813">
        <ele>2392.38</ele>
        <time>2012-10-21T09:28:34Z</time>
      </trkpt>
      <trkpt lat="44.16034" lon="7.23816">
        <ele>2394.78</ele>
        <time>2012-10-21T09:28:45Z</time>
      </trkpt>
      <trkpt lat="44.16035" lon="7.23816">
        <ele>2394.3</ele>
        <time>2012-10-21T09:28:48Z</time>
      </trkpt>
      <trkpt lat="44.16038" lon="7.2382">
        <ele>2396.22</ele>
        <time>2012-10-21T09:28:58Z</time>
      </trkpt>
      <trkpt lat="44.16041" lon="7.2382">
        <ele>2397.67</ele>
        <time>2012-10-21T09:29:12Z</time>
      </trkpt>
      <trkpt lat="44.16041" lon="7.23824">
        <ele>2399.59</ele>
        <time>2012-10-21T09:29:22Z</time>
      </trkpt>
      <trkpt lat="44.16044" lon="7.23826">
        <ele>2401.51</ele>
        <time>2012-10-21T09:29:35Z</time>
      </trkpt>
      <trkpt lat="44.16045" lon="7.2383">
        <ele>2402.95</ele>
        <time>2012-10-21T09:29:46Z</time>
      </trkpt>
      <trkpt lat="44.16046" lon="7.23836">
        <ele>2405.36</ele>
        <time>2012-10-21T09:29:56Z</time>
      </trkpt>
      <trkpt lat="44.16045" lon="7.23839">
        <ele>2406.8</ele>
        <time>2012-10-21T09:30:05Z</time>
      </trkpt>
      <trkpt lat="44.16046" lon="7.2384">
        <ele>2406.8</ele>
        <time>2012-10-21T09:30:11Z</time>
      </trkpt>
      <trkpt lat="44.16046" lon="7.23842">
        <ele>2408.24</ele>
        <time>2012-10-21T09:30:23Z</time>
      </trkpt>
      <trkpt lat="44.16047" lon="7.23843">
        <ele>2410.64</ele>
        <time>2012-10-21T09:30:33Z</time>
      </trkpt>
      <trkpt lat="44.16045" lon="7.23845">
        <ele>2412.09</ele>
        <time>2012-10-21T09:30:45Z</time>
      </trkpt>
      <trkpt lat="44.16049" lon="7.23847">
        <ele>2413.05</ele>
        <time>2012-10-21T09:30:56Z</time>
      </trkpt>
      <trkpt lat="44.16051" lon="7.23848">
        <ele>2413.53</ele>
        <time>2012-10-21T09:30:59Z</time>
      </trkpt>
      <trkpt lat="44.16055" lon="7.23849">
        <ele>2415.93</ele>
        <time>2012-10-21T09:31:12Z</time>
      </trkpt>
      <trkpt lat="44.16056" lon="7.23851">
        <ele>2416.89</ele>
        <time>2012-10-21T09:31:20Z</time>
      </trkpt>
      <trkpt lat="44.16059" lon="7.23855">
        <ele>2418.81</ele>
        <time>2012-10-21T09:31:31Z</time>
      </trkpt>
      <trkpt lat="44.16054" lon="7.23861">
        <ele>2420.74</ele>
        <time>2012-10-21T09:31:47Z</time>
      </trkpt>
      <trkpt lat="44.16052" lon="7.23864">
        <ele>2422.66</ele>
        <time>2012-10-21T09:31:57Z</time>
      </trkpt>
      <trkpt lat="44.16049" lon="7.23869">
        <ele>2424.1</ele>
        <time>2012-10-21T09:32:10Z</time>
      </trkpt>
      <trkpt lat="44.16053" lon="7.23869">
        <ele>2426.02</ele>
        <time>2012-10-21T09:32:20Z</time>
      </trkpt>
      <trkpt lat="44.16057" lon="7.23871">
        <ele>2426.5</ele>
        <time>2012-10-21T09:32:32Z</time>
      </trkpt>
      <trkpt lat="44.16061" lon="7.2387">
        <ele>2427.47</ele>
        <time>2012-10-21T09:32:43Z</time>
      </trkpt>
      <trkpt lat="44.16064" lon="7.2387">
        <ele>2428.43</ele>
        <time>2012-10-21T09:32:55Z</time>
      </trkpt>
      <trkpt lat="44.16066" lon="7.23873">
        <ele>2430.35</ele>
        <time>2012-10-21T09:33:04Z</time>
      </trkpt>
      <trkpt lat="44.16068" lon="7.23873">
        <ele>2430.83</ele>
        <time>2012-10-21T09:33:10Z</time>
      </trkpt>
      <trkpt lat="44.1607" lon="7.23876">
        <ele>2431.79</ele>
        <time>2012-10-21T09:33:18Z</time>
      </trkpt>
      <trkpt lat="44.1607" lon="7.2388">
        <ele>2434.2</ele>
        <time>2012-10-21T09:33:30Z</time>
      </trkpt>
      <trkpt lat="44.16067" lon="7.23885">
        <ele>2435.64</ele>
        <time>2012-10-21T09:33:39Z</time>
      </trkpt>
      <trkpt lat="44.16065" lon="7.23889">
        <ele>2437.56</ele>
        <time>2012-10-21T09:33:52Z</time>
      </trkpt>
      <trkpt lat="44.16065" lon="7.23891">
        <ele>2438.52</ele>
        <time>2012-10-21T09:34:04Z</time>
      </trkpt>
      <trkpt lat="44.16065" lon="7.23896">
        <ele>2440.44</ele>
        <time>2012-10-21T09:34:16Z</time>
      </trkpt>
      <trkpt lat="44.16067" lon="7.23898">
        <ele>2442.37</ele>
        <time>2012-10-21T09:34:27Z</time>
      </trkpt>
      <trkpt lat="44.1607" lon="7.23899">
        <ele>2444.29</ele>
        <time>2012-10-21T09:34:38Z</time>
      </trkpt>
      <trkpt lat="44.16068" lon="7.23904">
        <ele>2446.21</ele>
        <time>2012-10-21T09:34:48Z</time>
      </trkpt>
      <trkpt lat="44.16067" lon="7.2391">
        <ele>2448.13</ele>
        <time>2012-10-21T09:34:59Z</time>
      </trkpt>
      <trkpt lat="44.16063" lon="7.23915">
        <ele>2450.06</ele>
        <time>2012-10-21T09:35:12Z</time>
      </trkpt>
      <trkpt lat="44.16063" lon="7.23916">
        <ele>2451.02</ele>
        <time>2012-10-21T09:35:21Z</time>
      </trkpt>
      <trkpt lat="44.16061" lon="7.23922">
        <ele>2452.94</ele>
        <time>2012-10-21T09:35:32Z</time>
      </trkpt>
      <trkpt lat="44.16055" lon="7.23923">
        <ele>2453.9</ele>
        <time>2012-10-21T09:35:45Z</time>
      </trkpt>
      <trkpt lat="44.16054" lon="7.23925">
        <ele>2455.34</ele>
        <time>2012-10-21T09:35:56Z</time>
      </trkpt>
      <trkpt lat="44.16052" lon="7.23929">
        <ele>2458.23</ele>
        <time>2012-10-21T09:36:11Z</time>
      </trkpt>
      <trkpt lat="44.1605" lon="7.23932">
        <ele>2459.67</ele>
        <time>2012-10-21T09:36:20Z</time>
      </trkpt>
      <trkpt lat="44.16051" lon="7.23933">
        <ele>2461.59</ele>
        <time>2012-10-21T09:36:30Z</time>
      </trkpt>
      <trkpt lat="44.16053" lon="7.23936">
        <ele>2463.04</ele>
        <time>2012-10-21T09:36:40Z</time>
      </trkpt>
      <trkpt lat="44.16054" lon="7.23938">
        <ele>2465.44</ele>
        <time>2012-10-21T09:36:54Z</time>
      </trkpt>
      <trkpt lat="44.1605" lon="7.23943">
        <ele>2467.36</ele>
        <time>2012-10-21T09:37:06Z</time>
      </trkpt>
      <trkpt lat="44.16049" lon="7.23947">
        <ele>2469.28</ele>
        <time>2012-10-21T09:37:21Z</time>
      </trkpt>
      <trkpt lat="44.16047" lon="7.23953">
        <ele>2471.69</ele>
        <time>2012-10-21T09:37:34Z</time>
      </trkpt>
      <trkpt lat="44.16046" lon="7.23953">
        <ele>2472.65</ele>
        <time>2012-10-21T09:37:41Z</time>
      </trkpt>
      <trkpt lat="44.1604" lon="7.23954">
        <ele>2474.09</ele>
        <time>2012-10-21T09:37:52Z</time>
      </trkpt>
      <trkpt lat="44.16035" lon="7.23955">
        <ele>2475.05</ele>
        <time>2012-10-21T09:38:04Z</time>
      </trkpt>
      <trkpt lat="44.16034" lon="7.23956">
        <ele>2475.05</ele>
        <time>2012-10-21T09:38:07Z</time>
      </trkpt>
      <trkpt lat="44.16028" lon="7.23958">
        <ele>2476.49</ele>
        <time>2012-10-21T09:38:17Z</time>
      </trkpt>
      <trkpt lat="44.16024" lon="7.23959">
        <ele>2476.49</ele>
        <time>2012-10-21T09:38:23Z</time>
      </trkpt>
      <trkpt lat="44.16013" lon="7.23961">
        <ele>2476.49</ele>
        <time>2012-10-21T09:38:38Z</time>
      </trkpt>
      <trkpt lat="44.16006" lon="7.23963">
        <ele>2476.49</ele>
        <time>2012-10-21T09:38:48Z</time>
      </trkpt>
      <trkpt lat="44.16001" lon="7.23965">
        <ele>2478.42</ele>
        <time>2012-10-21T09:38:59Z</time>
      </trkpt>
      <trkpt lat="44.15999" lon="7.23965">
        <ele>2478.42</ele>
        <time>2012-10-21T09:39:03Z</time>
      </trkpt>
      <trkpt lat="44.15993" lon="7.23966">
        <ele>2480.34</ele>
        <time>2012-10-21T09:39:17Z</time>
      </trkpt>
      <trkpt lat="44.15987" lon="7.23974">
        <ele>2483.22</ele>
        <time>2012-10-21T09:39:33Z</time>
      </trkpt>
      <trkpt lat="44.15982" lon="7.23979">
        <ele>2484.66</ele>
        <time>2012-10-21T09:39:43Z</time>
      </trkpt>
      <trkpt lat="44.15979" lon="7.2398">
        <ele>2485.63</ele>
        <time>2012-10-21T09:39:47Z</time>
      </trkpt>
      <trkpt lat="44.15973" lon="7.23982">
        <ele>2486.59</ele>
        <time>2012-10-21T09:39:59Z</time>
      </trkpt>
      <trkpt lat="44.15971" lon="7.23981">
        <ele>2488.03</ele>
        <time>2012-10-21T09:40:16Z</time>
      </trkpt>
      <trkpt lat="44.15967" lon="7.23981">
        <ele>2489.47</ele>
        <time>2012-10-21T09:40:36Z</time>
      </trkpt>
      <trkpt lat="44.15966" lon="7.23984">
        <ele>2489.95</ele>
        <time>2012-10-21T09:40:40Z</time>
      </trkpt>
      <trkpt lat="44.15964" lon="7.2399">
        <ele>2491.87</ele>
        <time>2012-10-21T09:40:49Z</time>
      </trkpt>
      <trkpt lat="44.15964" lon="7.2399">
        <ele>2492.36</ele>
        <time>2012-10-21T09:40:50Z</time>
      </trkpt>
      <trkpt lat="44.15957" lon="7.23995">
        <ele>2494.28</ele>
        <time>2012-10-21T09:41:01Z</time>
      </trkpt>
      <trkpt lat="44.15955" lon="7.23997">
        <ele>2494.28</ele>
        <time>2012-10-21T09:41:03Z</time>
      </trkpt>
      <trkpt lat="44.15955" lon="7.23998">
        <ele>2494.28</ele>
        <time>2012-10-21T09:41:18Z</time>
      </trkpt>
      <trkpt lat="44.15955" lon="7.23999">
        <ele>2493.8</ele>
        <time>2012-10-21T09:41:40Z</time>
      </trkpt>
      <trkpt lat="44.15954" lon="7.23998">
        <ele>2494.28</ele>
        <time>2012-10-21T09:41:56Z</time>
      </trkpt>
      <trkpt lat="44.15955" lon="7.23997">
        <ele>2493.32</ele>
        <time>2012-10-21T09:42:11Z</time>
      </trkpt>
      <trkpt lat="44.15954" lon="7.23997">
        <ele>2493.8</ele>
        <time>2012-10-21T09:42:31Z</time>
      </trkpt>
      <trkpt lat="44.15953" lon="7.23997">
        <ele>2493.8</ele>
        <time>2012-10-21T09:43:00Z</time>
      </trkpt>
      <trkpt lat="44.1595" lon="7.23995">
        <ele>2493.32</ele>
        <time>2012-10-21T09:43:16Z</time>
      </trkpt>
      <trkpt lat="44.15949" lon="7.23995">
        <ele>2493.32</ele>
        <time>2012-10-21T09:43:26Z</time>
      </trkpt>
      <trkpt lat="44.15949" lon="7.23996">
        <ele>2492.84</ele>
        <time>2012-10-21T09:44:01Z</time>
      </trkpt>
      <trkpt lat="44.1595" lon="7.23995">
        <ele>2492.84</ele>
        <time>2012-10-21T09:44:28Z</time>
      </trkpt>
      <trkpt lat="44.1595" lon="7.23995">
        <ele>2492.84</ele>
        <time>2012-10-21T09:44:49Z</time>
      </trkpt>
      <trkpt lat="44.1595" lon="7.23996">
        <ele>2492.84</ele>
        <time>2012-10-21T09:45:25Z</time>
      </trkpt>
      <trkpt lat="44.1595" lon="7.23996">
        <ele>2491.87</ele>
        <time>2012-10-21T09:45:44Z</time>
      </trkpt>
      <trkpt lat="44.15949" lon="7.23995">
        <ele>2493.8</ele>
        <time>2012-10-21T09:45:54Z</time>
      </trkpt>
      <trkpt lat="44.15954" lon="7.23996">
        <ele>2494.76</ele>
        <time>2012-10-21T09:46:13Z</time>
      </trkpt>
      <trkpt lat="44.15958" lon="7.23999">
        <ele>2494.28</ele>
        <time>2012-10-21T09:46:26Z</time>
      </trkpt>
      <trkpt lat="44.1596" lon="7.24002">
        <ele>2494.76</ele>
        <time>2012-10-21T09:46:44Z</time>
      </trkpt>
      <trkpt lat="44.15964" lon="7.24007">
        <ele>2495.24</ele>
        <time>2012-10-21T09:46:56Z</time>
      </trkpt>
      <trkpt lat="44.15971" lon="7.24009">
        <ele>2497.64</ele>
        <time>2012-10-21T09:47:11Z</time>
      </trkpt>
      <trkpt lat="44.15973" lon="7.24017">
        <ele>2498.6</ele>
        <time>2012-10-21T09:47:23Z</time>
      </trkpt>
      <trkpt lat="44.15976" lon="7.24018">
        <ele>2500.05</ele>
        <time>2012-10-21T09:47:34Z</time>
      </trkpt>
      <trkpt lat="44.15979" lon="7.2402">
        <ele>2501.49</ele>
        <time>2012-10-21T09:47:49Z</time>
      </trkpt>
      <trkpt lat="44.15983" lon="7.24022">
        <ele>2503.89</ele>
        <time>2012-10-21T09:48:01Z</time>
      </trkpt>
      <trkpt lat="44.15986" lon="7.24025">
        <ele>2504.85</ele>
        <time>2012-10-21T09:48:14Z</time>
      </trkpt>
      <trkpt lat="44.1599" lon="7.24027">
        <ele>2505.81</ele>
        <time>2012-10-21T09:48:26Z</time>
      </trkpt>
      <trkpt lat="44.15992" lon="7.24029">
        <ele>2507.74</ele>
        <time>2012-10-21T09:48:35Z</time>
      </trkpt>
      <trkpt lat="44.15995" lon="7.24031">
        <ele>2509.18</ele>
        <time>2012-10-21T09:48:48Z</time>
      </trkpt>
      <trkpt lat="44.15997" lon="7.2403">
        <ele>2509.66</ele>
        <time>2012-10-21T09:49:03Z</time>
      </trkpt>
      <trkpt lat="44.15999" lon="7.2403">
        <ele>2511.1</ele>
        <time>2012-10-21T09:49:39Z</time>
      </trkpt>
      <trkpt lat="44.16001" lon="7.2403">
        <ele>2511.1</ele>
        <time>2012-10-21T09:50:29Z</time>
      </trkpt>
      <trkpt lat="44.16001" lon="7.2403">
        <ele>2511.1</ele>
        <time>2012-10-21T09:51:29Z</time>
      </trkpt>
      <trkpt lat="44.16008" lon="7.24034">
        <ele>2511.58</ele>
        <time>2012-10-21T09:51:51Z</time>
      </trkpt>
      <trkpt lat="44.16014" lon="7.24037">
        <ele>2513.02</ele>
        <time>2012-10-21T09:52:02Z</time>
      </trkpt>
      <trkpt lat="44.16018" lon="7.2404">
        <ele>2513.5</ele>
        <time>2012-10-21T09:52:10Z</time>
      </trkpt>
      <trkpt lat="44.1602" lon="7.24041">
        <ele>2513.98</ele>
        <time>2012-10-21T09:52:23Z</time>
      </trkpt>
      <trkpt lat="44.16022" lon="7.24041">
        <ele>2515.91</ele>
        <time>2012-10-21T09:52:38Z</time>
      </trkpt>
      <trkpt lat="44.16023" lon="7.24043">
        <ele>2517.35</ele>
        <time>2012-10-21T09:52:42Z</time>
      </trkpt>
      <trkpt lat="44.16025" lon="7.24047">
        <ele>2517.83</ele>
        <time>2012-10-21T09:52:51Z</time>
      </trkpt>
      <trkpt lat="44.16025" lon="7.24056">
        <ele>2518.79</ele>
        <time>2012-10-21T09:53:01Z</time>
      </trkpt>
      <trkpt lat="44.16027" lon="7.24061">
        <ele>2520.71</ele>
        <time>2012-10-21T09:53:12Z</time>
      </trkpt>
      <trkpt lat="44.16031" lon="7.24069">
        <ele>2521.19</ele>
        <time>2012-10-21T09:53:23Z</time>
      </trkpt>
      <trkpt lat="44.16032" lon="7.24072">
        <ele>2522.16</ele>
        <time>2012-10-21T09:53:36Z</time>
      </trkpt>
      <trkpt lat="44.16037" lon="7.24074">
        <ele>2523.6</ele>
        <time>2012-10-21T09:53:45Z</time>
      </trkpt>
      <trkpt lat="44.1604" lon="7.24077">
        <ele>2525.52</ele>
        <time>2012-10-21T09:53:57Z</time>
      </trkpt>
      <trkpt lat="44.16043" lon="7.24078">
        <ele>2526.96</ele>
        <time>2012-10-21T09:54:08Z</time>
      </trkpt>
      <trkpt lat="44.16045" lon="7.24079">
        <ele>2528.4</ele>
        <time>2012-10-21T09:54:22Z</time>
      </trkpt>
      <trkpt lat="44.16048" lon="7.2408">
        <ele>2530.33</ele>
        <time>2012-10-21T09:54:33Z</time>
      </trkpt>
      <trkpt lat="44.1605" lon="7.2408">
        <ele>2532.73</ele>
        <time>2012-10-21T09:54:49Z</time>
      </trkpt>
      <trkpt lat="44.16052" lon="7.24079">
        <ele>2534.17</ele>
        <time>2012-10-21T09:54:59Z</time>
      </trkpt>
      <trkpt lat="44.16053" lon="7.24079">
        <ele>2535.13</ele>
        <time>2012-10-21T09:55:12Z</time>
      </trkpt>
      <trkpt lat="44.16056" lon="7.24078">
        <ele>2537.06</ele>
        <time>2012-10-21T09:55:23Z</time>
      </trkpt>
      <trkpt lat="44.16058" lon="7.24079">
        <ele>2538.02</ele>
        <time>2012-10-21T09:55:36Z</time>
      </trkpt>
      <trkpt lat="44.16063" lon="7.24083">
        <ele>2539.94</ele>
        <time>2012-10-21T09:55:50Z</time>
      </trkpt>
      <trkpt lat="44.16066" lon="7.24083">
        <ele>2541.38</ele>
        <time>2012-10-21T09:56:07Z</time>
      </trkpt>
      <trkpt lat="44.16068" lon="7.24083">
        <ele>2542.34</ele>
        <time>2012-10-21T09:56:14Z</time>
      </trkpt>
      <trkpt lat="44.1607" lon="7.24082">
        <ele>2544.27</ele>
        <time>2012-10-21T09:56:26Z</time>
      </trkpt>
      <trkpt lat="44.16072" lon="7.24082">
        <ele>2545.71</ele>
        <time>2012-10-21T09:56:35Z</time>
      </trkpt>
      <trkpt lat="44.16075" lon="7.24079">
        <ele>2547.63</ele>
        <time>2012-10-21T09:56:46Z</time>
      </trkpt>
      <trkpt lat="44.16078" lon="7.24075">
        <ele>2549.07</ele>
        <time>2012-10-21T09:57:09Z</time>
      </trkpt>
      <trkpt lat="44.16075" lon="7.24064">
        <ele>2550.03</ele>
        <time>2012-10-21T09:57:21Z</time>
      </trkpt>
      <trkpt lat="44.16076" lon="7.24062">
        <ele>2550.51</ele>
        <time>2012-10-21T09:57:27Z</time>
      </trkpt>
      <trkpt lat="44.1608" lon="7.24063">
        <ele>2552.44</ele>
        <time>2012-10-21T09:57:39Z</time>
      </trkpt>
      <trkpt lat="44.16084" lon="7.24063">
        <ele>2554.84</ele>
        <time>2012-10-21T09:57:53Z</time>
      </trkpt>
      <trkpt lat="44.16086" lon="7.24059">
        <ele>2555.8</ele>
        <time>2012-10-21T09:58:05Z</time>
      </trkpt>
      <trkpt lat="44.16085" lon="7.24056">
        <ele>2557.24</ele>
        <time>2012-10-21T09:58:15Z</time>
      </trkpt>
      <trkpt lat="44.16083" lon="7.24048">
        <ele>2558.21</ele>
        <time>2012-10-21T09:58:25Z</time>
      </trkpt>
      <trkpt lat="44.16083" lon="7.24045">
        <ele>2560.13</ele>
        <time>2012-10-21T09:58:37Z</time>
      </trkpt>
      <trkpt lat="44.16083" lon="7.2404">
        <ele>2560.13</ele>
        <time>2012-10-21T09:58:51Z</time>
      </trkpt>
      <trkpt lat="44.16082" lon="7.24039">
        <ele>2559.65</ele>
        <time>2012-10-21T09:59:09Z</time>
      </trkpt>
      <trkpt lat="44.16082" lon="7.24038">
        <ele>2560.13</ele>
        <time>2012-10-21T09:59:47Z</time>
      </trkpt>
      <trkpt lat="44.16083" lon="7.24039">
        <ele>2560.61</ele>
        <time>2012-10-21T10:01:32Z</time>
      </trkpt>
      <trkpt lat="44.16082" lon="7.24039">
        <ele>2559.17</ele>
        <time>2012-10-21T10:01:42Z</time>
      </trkpt>
      <trkpt lat="44.1608" lon="7.24039">
        <ele>2558.69</ele>
        <time>2012-10-21T10:02:07Z</time>
      </trkpt>
      <trkpt lat="44.1608" lon="7.24042">
        <ele>2557.73</ele>
        <time>2012-10-21T10:02:35Z</time>
      </trkpt>
      <trkpt lat="44.16084" lon="7.24049">
        <ele>2558.69</ele>
        <time>2012-10-21T10:02:49Z</time>
      </trkpt>
      <trkpt lat="44.1609" lon="7.24059">
        <ele>2557.73</ele>
        <time>2012-10-21T10:03:00Z</time>
      </trkpt>
      <trkpt lat="44.16093" lon="7.24067">
        <ele>2557.73</ele>
        <time>2012-10-21T10:03:08Z</time>
      </trkpt>
      <trkpt lat="44.16099" lon="7.24082">
        <ele>2558.69</ele>
        <time>2012-10-21T10:03:23Z</time>
      </trkpt>
      <trkpt lat="44.16104" lon="7.24091">
        <ele>2559.65</ele>
        <time>2012-10-21T10:03:33Z</time>
      </trkpt>
      <trkpt lat="44.16106" lon="7.24099">
        <ele>2562.05</ele>
        <time>2012-10-21T10:03:45Z</time>
      </trkpt>
      <trkpt lat="44.16108" lon="7.24107">
        <ele>2563.97</ele>
        <time>2012-10-21T10:03:55Z</time>
      </trkpt>
      <trkpt lat="44.16107" lon="7.24112">
        <ele>2564.45</ele>
        <time>2012-10-21T10:04:07Z</time>
      </trkpt>
      <trkpt lat="44.16111" lon="7.24114">
        <ele>2565.9</ele>
        <time>2012-10-21T10:04:20Z</time>
      </trkpt>
      <trkpt lat="44.16112" lon="7.2411">
        <ele>2566.38</ele>
        <time>2012-10-21T10:04:26Z</time>
      </trkpt>
      <trkpt lat="44.16118" lon="7.24102">
        <ele>2567.82</ele>
        <time>2012-10-21T10:04:38Z</time>
      </trkpt>
      <trkpt lat="44.16122" lon="7.24104">
        <ele>2569.74</ele>
        <time>2012-10-21T10:04:52Z</time>
      </trkpt>
      <trkpt lat="44.16125" lon="7.24108">
        <ele>2570.7</ele>
        <time>2012-10-21T10:04:59Z</time>
      </trkpt>
      <trkpt lat="44.16127" lon="7.2412">
        <ele>2572.14</ele>
        <time>2012-10-21T10:05:11Z</time>
      </trkpt>
      <trkpt lat="44.16127" lon="7.24122">
        <ele>2572.14</ele>
        <time>2012-10-21T10:05:12Z</time>
      </trkpt>
      <trkpt lat="44.16125" lon="7.24129">
        <ele>2572.63</ele>
        <time>2012-10-21T10:05:22Z</time>
      </trkpt>
      <trkpt lat="44.16125" lon="7.2414">
        <ele>2574.07</ele>
        <time>2012-10-21T10:05:33Z</time>
      </trkpt>
      <trkpt lat="44.16124" lon="7.24149">
        <ele>2576.47</ele>
        <time>2012-10-21T10:05:45Z</time>
      </trkpt>
      <trkpt lat="44.16122" lon="7.24156">
        <ele>2577.91</ele>
        <time>2012-10-21T10:05:52Z</time>
      </trkpt>
      <trkpt lat="44.16118" lon="7.24172">
        <ele>2578.87</ele>
        <time>2012-10-21T10:06:07Z</time>
      </trkpt>
      <trkpt lat="44.16117" lon="7.24182">
        <ele>2580.32</ele>
        <time>2012-10-21T10:06:17Z</time>
      </trkpt>
      <trkpt lat="44.16115" lon="7.24195">
        <ele>2580.32</ele>
        <time>2012-10-21T10:06:30Z</time>
      </trkpt>
      <trkpt lat="44.16118" lon="7.24206">
        <ele>2582.24</ele>
        <time>2012-10-21T10:06:41Z</time>
      </trkpt>
      <trkpt lat="44.16119" lon="7.24209">
        <ele>2584.16</ele>
        <time>2012-10-21T10:06:46Z</time>
      </trkpt>
      <trkpt lat="44.16119" lon="7.2421">
        <ele>2584.16</ele>
        <time>2012-10-21T10:06:47Z</time>
      </trkpt>
      <trkpt lat="44.16122" lon="7.24215">
        <ele>2585.6</ele>
        <time>2012-10-21T10:06:56Z</time>
      </trkpt>
      <trkpt lat="44.16123" lon="7.24219">
        <ele>2588.49</ele>
        <time>2012-10-21T10:07:04Z</time>
      </trkpt>
      <trkpt lat="44.16125" lon="7.24224">
        <ele>2590.41</ele>
        <time>2012-10-21T10:07:12Z</time>
      </trkpt>
      <trkpt lat="44.16125" lon="7.24235">
        <ele>2589.93</ele>
        <time>2012-10-21T10:07:22Z</time>
      </trkpt>
      <trkpt lat="44.16128" lon="7.24244">
        <ele>2590.41</ele>
        <time>2012-10-21T10:07:31Z</time>
      </trkpt>
      <trkpt lat="44.16129" lon="7.24258">
        <ele>2589.93</ele>
        <time>2012-10-21T10:07:43Z</time>
      </trkpt>
      <trkpt lat="44.16127" lon="7.24268">
        <ele>2590.89</ele>
        <time>2012-10-21T10:07:55Z</time>
      </trkpt>
      <trkpt lat="44.16126" lon="7.2428">
        <ele>2591.85</ele>
        <time>2012-10-21T10:08:05Z</time>
      </trkpt>
      <trkpt lat="44.16124" lon="7.24292">
        <ele>2590.41</ele>
        <time>2012-10-21T10:08:15Z</time>
      </trkpt>
      <trkpt lat="44.16124" lon="7.24305">
        <ele>2590.41</ele>
        <time>2012-10-21T10:08:28Z</time>
      </trkpt>
      <trkpt lat="44.16123" lon="7.24312">
        <ele>2588.49</ele>
        <time>2012-10-21T10:08:39Z</time>
      </trkpt>
      <trkpt lat="44.16127" lon="7.24318">
        <ele>2589.45</ele>
        <time>2012-10-21T10:08:49Z</time>
      </trkpt>
      <trkpt lat="44.1613" lon="7.2432">
        <ele>2588.49</ele>
        <time>2012-10-21T10:08:54Z</time>
      </trkpt>
      <trkpt lat="44.16133" lon="7.24327">
        <ele>2588.97</ele>
        <time>2012-10-21T10:09:06Z</time>
      </trkpt>
      <trkpt lat="44.16131" lon="7.24325">
        <ele>2587.53</ele>
        <time>2012-10-21T10:09:15Z</time>
      </trkpt>
      <trkpt lat="44.16132" lon="7.24331">
        <ele>2587.04</ele>
        <time>2012-10-21T10:09:22Z</time>
      </trkpt>
      <trkpt lat="44.16139" lon="7.24338">
        <ele>2587.53</ele>
        <time>2012-10-21T10:09:35Z</time>
      </trkpt>
      <trkpt lat="44.16145" lon="7.24339">
        <ele>2587.04</ele>
        <time>2012-10-21T10:09:41Z</time>
      </trkpt>
      <trkpt lat="44.16152" lon="7.2434">
        <ele>2588.01</ele>
        <time>2012-10-21T10:09:55Z</time>
      </trkpt>
      <trkpt lat="44.16155" lon="7.24341">
        <ele>2589.93</ele>
        <time>2012-10-21T10:10:07Z</time>
      </trkpt>
      <trkpt lat="44.1616" lon="7.24341">
        <ele>2588.97</ele>
        <time>2012-10-21T10:10:19Z</time>
      </trkpt>
      <trkpt lat="44.16164" lon="7.2434">
        <ele>2588.97</ele>
        <time>2012-10-21T10:10:31Z</time>
      </trkpt>
      <trkpt lat="44.16168" lon="7.24343">
        <ele>2588.01</ele>
        <time>2012-10-21T10:10:44Z</time>
      </trkpt>
      <trkpt lat="44.16172" lon="7.24346">
        <ele>2587.04</ele>
        <time>2012-10-21T10:10:55Z</time>
      </trkpt>
      <trkpt lat="44.16178" lon="7.24351">
        <ele>2586.08</ele>
        <time>2012-10-21T10:11:06Z</time>
      </trkpt>
      <trkpt lat="44.16183" lon="7.24353">
        <ele>2585.12</ele>
        <time>2012-10-21T10:11:14Z</time>
      </trkpt>
      <trkpt lat="44.16179" lon="7.24356">
        <ele>2584.16</ele>
        <time>2012-10-21T10:11:26Z</time>
      </trkpt>
      <trkpt lat="44.16175" lon="7.24363">
        <ele>2583.2</ele>
        <time>2012-10-21T10:11:38Z</time>
      </trkpt>
      <trkpt lat="44.16176" lon="7.24365">
        <ele>2581.76</ele>
        <time>2012-10-21T10:11:45Z</time>
      </trkpt>
      <trkpt lat="44.16186" lon="7.24364">
        <ele>2580.32</ele>
        <time>2012-10-21T10:11:59Z</time>
      </trkpt>
      <trkpt lat="44.16192" lon="7.24359">
        <ele>2579.84</ele>
        <time>2012-10-21T10:12:10Z</time>
      </trkpt>
      <trkpt lat="44.16197" lon="7.24356">
        <ele>2579.35</ele>
        <time>2012-10-21T10:12:22Z</time>
      </trkpt>
      <trkpt lat="44.16205" lon="7.24353">
        <ele>2579.35</ele>
        <time>2012-10-21T10:12:34Z</time>
      </trkpt>
      <trkpt lat="44.16212" lon="7.24353">
        <ele>2577.91</ele>
        <time>2012-10-21T10:12:45Z</time>
      </trkpt>
      <trkpt lat="44.16219" lon="7.24354">
        <ele>2576.95</ele>
        <time>2012-10-21T10:12:56Z</time>
      </trkpt>
      <trkpt lat="44.16224" lon="7.24356">
        <ele>2576.47</ele>
        <time>2012-10-21T10:13:08Z</time>
      </trkpt>
      <trkpt lat="44.16229" lon="7.2436">
        <ele>2574.07</ele>
        <time>2012-10-21T10:13:20Z</time>
      </trkpt>
      <trkpt lat="44.16235" lon="7.24365">
        <ele>2573.59</ele>
        <time>2012-10-21T10:13:31Z</time>
      </trkpt>
      <trkpt lat="44.16243" lon="7.24369">
        <ele>2574.07</ele>
        <time>2012-10-21T10:13:43Z</time>
      </trkpt>
      <trkpt lat="44.1625" lon="7.2437">
        <ele>2575.03</ele>
        <time>2012-10-21T10:13:54Z</time>
      </trkpt>
      <trkpt lat="44.16258" lon="7.24369">
        <ele>2575.03</ele>
        <time>2012-10-21T10:14:06Z</time>
      </trkpt>
      <trkpt lat="44.16262" lon="7.24368">
        <ele>2575.51</ele>
        <time>2012-10-21T10:14:12Z</time>
      </trkpt>
      <trkpt lat="44.16271" lon="7.24366">
        <ele>2576.47</ele>
        <time>2012-10-21T10:14:23Z</time>
      </trkpt>
      <trkpt lat="44.16278" lon="7.24368">
        <ele>2576.47</ele>
        <time>2012-10-21T10:14:35Z</time>
      </trkpt>
      <trkpt lat="44.16281" lon="7.24369">
        <ele>2577.43</ele>
        <time>2012-10-21T10:14:44Z</time>
      </trkpt>
      <trkpt lat="44.16284" lon="7.24372">
        <ele>2578.39</ele>
        <time>2012-10-21T10:14:56Z</time>
      </trkpt>
      <trkpt lat="44.16283" lon="7.24374">
        <ele>2577.91</ele>
        <time>2012-10-21T10:15:15Z</time>
      </trkpt>
      <trkpt lat="44.16283" lon="7.24375">
        <ele>2576.95</ele>
        <time>2012-10-21T10:15:33Z</time>
      </trkpt>
      <trkpt lat="44.16283" lon="7.24375">
        <ele>2576.47</ele>
        <time>2012-10-21T10:15:49Z</time>
      </trkpt>
      <trkpt lat="44.16284" lon="7.24376">
        <ele>2576.47</ele>
        <time>2012-10-21T10:17:30Z</time>
      </trkpt>
      <trkpt lat="44.16284" lon="7.24376">
        <ele>2577.43</ele>
        <time>2012-10-21T10:17:32Z</time>
      </trkpt>
      <trkpt lat="44.16287" lon="7.24371">
        <ele>2577.43</ele>
        <time>2012-10-21T10:17:41Z</time>
      </trkpt>
      <trkpt lat="44.16289" lon="7.24367">
        <ele>2578.39</ele>
        <time>2012-10-21T10:17:46Z</time>
      </trkpt>
      <trkpt lat="44.16292" lon="7.24363">
        <ele>2579.35</ele>
        <time>2012-10-21T10:17:51Z</time>
      </trkpt>
      <trkpt lat="44.16297" lon="7.24364">
        <ele>2581.28</ele>
        <time>2012-10-21T10:18:03Z</time>
      </trkpt>
      <trkpt lat="44.16299" lon="7.24368">
        <ele>2581.76</ele>
        <time>2012-10-21T10:18:09Z</time>
      </trkpt>
      <trkpt lat="44.16308" lon="7.24365">
        <ele>2582.72</ele>
        <time>2012-10-21T10:18:25Z</time>
      </trkpt>
      <trkpt lat="44.16313" lon="7.24361">
        <ele>2584.16</ele>
        <time>2012-10-21T10:18:35Z</time>
      </trkpt>
      <trkpt lat="44.16317" lon="7.24347">
        <ele>2586.08</ele>
        <time>2012-10-21T10:18:48Z</time>
      </trkpt>
      <trkpt lat="44.16321" lon="7.24339">
        <ele>2586.56</ele>
        <time>2012-10-21T10:19:00Z</time>
      </trkpt>
      <trkpt lat="44.16327" lon="7.24342">
        <ele>2588.97</ele>
        <time>2012-10-21T10:19:10Z</time>
      </trkpt>
      <trkpt lat="44.16334" lon="7.24337">
        <ele>2590.89</ele>
        <time>2012-10-21T10:19:24Z</time>
      </trkpt>
      <trkpt lat="44.16339" lon="7.24333">
        <ele>2593.29</ele>
        <time>2012-10-21T10:19:36Z</time>
      </trkpt>
      <trkpt lat="44.16342" lon="7.24328">
        <ele>2594.25</ele>
        <time>2012-10-21T10:19:46Z</time>
      </trkpt>
      <trkpt lat="44.16344" lon="7.24326">
        <ele>2595.22</ele>
        <time>2012-10-21T10:19:50Z</time>
      </trkpt>
      <trkpt lat="44.16349" lon="7.24322">
        <ele>2596.66</ele>
        <time>2012-10-21T10:20:00Z</time>
      </trkpt>
      <trkpt lat="44.16353" lon="7.24329">
        <ele>2597.14</ele>
        <time>2012-10-21T10:20:12Z</time>
      </trkpt>
      <trkpt lat="44.1636" lon="7.24332">
        <ele>2598.58</ele>
        <time>2012-10-21T10:20:24Z</time>
      </trkpt>
      <trkpt lat="44.16368" lon="7.24331">
        <ele>2599.06</ele>
        <time>2012-10-21T10:20:35Z</time>
      </trkpt>
      <trkpt lat="44.16374" lon="7.2433">
        <ele>2601.46</ele>
        <time>2012-10-21T10:20:47Z</time>
      </trkpt>
      <trkpt lat="44.16373" lon="7.24334">
        <ele>2601.46</ele>
        <time>2012-10-21T10:20:51Z</time>
      </trkpt>
      <trkpt lat="44.16368" lon="7.24339">
        <ele>2600.98</ele>
        <time>2012-10-21T10:20:57Z</time>
      </trkpt>
      <trkpt lat="44.16364" lon="7.24353">
        <ele>2598.58</ele>
        <time>2012-10-21T10:21:09Z</time>
      </trkpt>
      <trkpt lat="44.16361" lon="7.24368">
        <ele>2600.02</ele>
        <time>2012-10-21T10:21:21Z</time>
      </trkpt>
      <trkpt lat="44.16359" lon="7.24381">
        <ele>2599.54</ele>
        <time>2012-10-21T10:21:31Z</time>
      </trkpt>
      <trkpt lat="44.16357" lon="7.24394">
        <ele>2599.54</ele>
        <time>2012-10-21T10:21:41Z</time>
      </trkpt>
      <trkpt lat="44.16357" lon="7.24396">
        <ele>2600.5</ele>
        <time>2012-10-21T10:21:43Z</time>
      </trkpt>
      <trkpt lat="44.16354" lon="7.24404">
        <ele>2601.46</ele>
        <time>2012-10-21T10:21:51Z</time>
      </trkpt>
      <trkpt lat="44.16352" lon="7.24417">
        <ele>2600.5</ele>
        <time>2012-10-21T10:22:03Z</time>
      </trkpt>
      <trkpt lat="44.16351" lon="7.24421">
        <ele>2600.5</ele>
        <time>2012-10-21T10:22:07Z</time>
      </trkpt>
      <trkpt lat="44.16356" lon="7.24432">
        <ele>2599.54</ele>
        <time>2012-10-21T10:22:19Z</time>
      </trkpt>
      <trkpt lat="44.16361" lon="7.24441">
        <ele>2600.98</ele>
        <time>2012-10-21T10:22:33Z</time>
      </trkpt>
      <trkpt lat="44.16367" lon="7.24449">
        <ele>2602.91</ele>
        <time>2012-10-21T10:22:49Z</time>
      </trkpt>
      <trkpt lat="44.16371" lon="7.24456">
        <ele>2604.83</ele>
        <time>2012-10-21T10:23:03Z</time>
      </trkpt>
      <trkpt lat="44.16375" lon="7.24462">
        <ele>2605.79</ele>
        <time>2012-10-21T10:23:14Z</time>
      </trkpt>
      <trkpt lat="44.1638" lon="7.24465">
        <ele>2607.71</ele>
        <time>2012-10-21T10:23:23Z</time>
      </trkpt>
      <trkpt lat="44.16382" lon="7.24466">
        <ele>2609.16</ele>
        <time>2012-10-21T10:23:26Z</time>
      </trkpt>
      <trkpt lat="44.16385" lon="7.24466">
        <ele>2610.6</ele>
        <time>2012-10-21T10:23:37Z</time>
      </trkpt>
      <trkpt lat="44.16388" lon="7.24466">
        <ele>2613</ele>
        <time>2012-10-21T10:23:49Z</time>
      </trkpt>
      <trkpt lat="44.16396" lon="7.24469">
        <ele>2613.96</ele>
        <time>2012-10-21T10:24:01Z</time>
      </trkpt>
      <trkpt lat="44.16398" lon="7.24479">
        <ele>2613.96</ele>
        <time>2012-10-21T10:24:13Z</time>
      </trkpt>
      <trkpt lat="44.16401" lon="7.2448">
        <ele>2614.44</ele>
        <time>2012-10-21T10:24:17Z</time>
      </trkpt>
      <trkpt lat="44.16408" lon="7.24483">
        <ele>2615.4</ele>
        <time>2012-10-21T10:24:30Z</time>
      </trkpt>
      <trkpt lat="44.16417" lon="7.24488">
        <ele>2616.37</ele>
        <time>2012-10-21T10:24:42Z</time>
      </trkpt>
      <trkpt lat="44.16426" lon="7.24498">
        <ele>2614.92</ele>
        <time>2012-10-21T10:24:56Z</time>
      </trkpt>
      <trkpt lat="44.16429" lon="7.245">
        <ele>2615.4</ele>
        <time>2012-10-21T10:25:01Z</time>
      </trkpt>
      <trkpt lat="44.16433" lon="7.24501">
        <ele>2614.92</ele>
        <time>2012-10-21T10:25:13Z</time>
      </trkpt>
      <trkpt lat="44.16432" lon="7.24501">
        <ele>2614.92</ele>
        <time>2012-10-21T10:25:40Z</time>
      </trkpt>
      <trkpt lat="44.16432" lon="7.24501">
        <ele>2615.4</ele>
        <time>2012-10-21T10:26:15Z</time>
      </trkpt>
      <trkpt lat="44.16434" lon="7.24503">
        <ele>2614.92</ele>
        <time>2012-10-21T10:26:59Z</time>
      </trkpt>
      <trkpt lat="44.16434" lon="7.24503">
        <ele>2615.4</ele>
        <time>2012-10-21T10:27:13Z</time>
      </trkpt>
      <trkpt lat="44.16433" lon="7.24501">
        <ele>2614.92</ele>
        <time>2012-10-21T10:27:25Z</time>
      </trkpt>
      <trkpt lat="44.16434" lon="7.24502">
        <ele>2614.92</ele>
        <time>2012-10-21T10:27:49Z</time>
      </trkpt>
      <trkpt lat="44.16438" lon="7.24502">
        <ele>2615.4</ele>
        <time>2012-10-21T10:28:35Z</time>
      </trkpt>
      <trkpt lat="44.16447" lon="7.24495">
        <ele>2616.85</ele>
        <time>2012-10-21T10:28:49Z</time>
      </trkpt>
      <trkpt lat="44.16454" lon="7.24491">
        <ele>2618.77</ele>
        <time>2012-10-21T10:29:02Z</time>
      </trkpt>
      <trkpt lat="44.16457" lon="7.24494">
        <ele>2619.25</ele>
        <time>2012-10-21T10:29:13Z</time>
      </trkpt>
      <trkpt lat="44.16461" lon="7.24503">
        <ele>2620.69</ele>
        <time>2012-10-21T10:29:26Z</time>
      </trkpt>
      <trkpt lat="44.16461" lon="7.24504">
        <ele>2622.61</ele>
        <time>2012-10-21T10:29:39Z</time>
      </trkpt>
      <trkpt lat="44.1646" lon="7.24512">
        <ele>2625.02</ele>
        <time>2012-10-21T10:29:52Z</time>
      </trkpt>
      <trkpt lat="44.16459" lon="7.24522">
        <ele>2625.02</ele>
        <time>2012-10-21T10:30:06Z</time>
      </trkpt>
      <trkpt lat="44.16463" lon="7.24531">
        <ele>2625.5</ele>
        <time>2012-10-21T10:30:21Z</time>
      </trkpt>
      <trkpt lat="44.16462" lon="7.24539">
        <ele>2623.58</ele>
        <time>2012-10-21T10:30:34Z</time>
      </trkpt>
      <trkpt lat="44.16461" lon="7.24543">
        <ele>2623.58</ele>
        <time>2012-10-21T10:30:40Z</time>
      </trkpt>
      <trkpt lat="44.16459" lon="7.24547">
        <ele>2622.13</ele>
        <time>2012-10-21T10:30:53Z</time>
      </trkpt>
      <trkpt lat="44.16456" lon="7.2455">
        <ele>2621.65</ele>
        <time>2012-10-21T10:31:06Z</time>
      </trkpt>
      <trkpt lat="44.16455" lon="7.24552">
        <ele>2620.69</ele>
        <time>2012-10-21T10:31:21Z</time>
      </trkpt>
      <trkpt lat="44.16455" lon="7.24553">
        <ele>2621.17</ele>
        <time>2012-10-21T10:31:40Z</time>
      </trkpt>
      <trkpt lat="44.16455" lon="7.24553">
        <ele>2623.58</ele>
        <time>2012-10-21T10:32:51Z</time>
      </trkpt>
      <trkpt lat="44.16454" lon="7.24555">
        <ele>2620.21</ele>
        <time>2012-10-21T10:33:34Z</time>
      </trkpt>
      <trkpt lat="44.16454" lon="7.24556">
        <ele>2620.21</ele>
        <time>2012-10-21T10:34:14Z</time>
      </trkpt>
      <trkpt lat="44.16455" lon="7.24557">
        <ele>2620.69</ele>
        <time>2012-10-21T10:34:37Z</time>
      </trkpt>
      <trkpt lat="44.16455" lon="7.24558">
        <ele>2618.77</ele>
        <time>2012-10-21T10:34:47Z</time>
      </trkpt>
      <trkpt lat="44.16455" lon="7.24558">
        <ele>2619.25</ele>
        <time>2012-10-21T10:35:04Z</time>
      </trkpt>
      <trkpt lat="44.16455" lon="7.24558">
        <ele>2619.25</ele>
        <time>2012-10-21T10:35:24Z</time>
      </trkpt>
      <trkpt lat="44.16455" lon="7.24559">
        <ele>2619.25</ele>
        <time>2012-10-21T10:36:17Z</time>
      </trkpt>
      <trkpt lat="44.16455" lon="7.24557">
        <ele>2620.21</ele>
        <time>2012-10-21T10:36:20Z</time>
      </trkpt>
      <trkpt lat="44.16455" lon="7.24558">
        <ele>2620.21</ele>
        <time>2012-10-21T10:36:32Z</time>
      </trkpt>
      <trkpt lat="44.16457" lon="7.24554">
        <ele>2622.13</ele>
        <time>2012-10-21T10:36:40Z</time>
      </trkpt>
      <trkpt lat="44.1646" lon="7.24548">
        <ele>2624.06</ele>
        <time>2012-10-21T10:36:53Z</time>
      </trkpt>
      <trkpt lat="44.16462" lon="7.24544">
        <ele>2625.98</ele>
        <time>2012-10-21T10:37:01Z</time>
      </trkpt>
      <trkpt lat="44.1646" lon="7.24532">
        <ele>2626.46</ele>
        <time>2012-10-21T10:37:12Z</time>
      </trkpt>
      <trkpt lat="44.16463" lon="7.24519">
        <ele>2626.46</ele>
        <time>2012-10-21T10:37:25Z</time>
      </trkpt>
      <trkpt lat="44.16464" lon="7.24513">
        <ele>2624.06</ele>
        <time>2012-10-21T10:37:36Z</time>
      </trkpt>
      <trkpt lat="44.16463" lon="7.24512">
        <ele>2624.06</ele>
        <time>2012-10-21T10:37:38Z</time>
      </trkpt>
      <trkpt lat="44.16462" lon="7.24512">
        <ele>2623.58</ele>
        <time>2012-10-21T10:37:40Z</time>
      </trkpt>
      <trkpt lat="44.16461" lon="7.24501">
        <ele>2622.13</ele>
        <time>2012-10-21T10:37:48Z</time>
      </trkpt>
      <trkpt lat="44.16456" lon="7.24491">
        <ele>2620.69</ele>
        <time>2012-10-21T10:37:59Z</time>
      </trkpt>
      <trkpt lat="44.16449" lon="7.24492">
        <ele>2619.25</ele>
        <time>2012-10-21T10:38:10Z</time>
      </trkpt>
      <trkpt lat="44.16446" lon="7.24496">
        <ele>2617.81</ele>
        <time>2012-10-21T10:38:19Z</time>
      </trkpt>
      <trkpt lat="44.16442" lon="7.24497">
        <ele>2616.37</ele>
        <time>2012-10-21T10:38:23Z</time>
      </trkpt>
      <trkpt lat="44.16441" lon="7.24494">
        <ele>2616.85</ele>
        <time>2012-10-21T10:38:26Z</time>
      </trkpt>
      <trkpt lat="44.16439" lon="7.24481">
        <ele>2615.4</ele>
        <time>2012-10-21T10:38:38Z</time>
      </trkpt>
      <trkpt lat="44.16438" lon="7.24467">
        <ele>2614.44</ele>
        <time>2012-10-21T10:38:49Z</time>
      </trkpt>
      <trkpt lat="44.16437" lon="7.24458">
        <ele>2613.48</ele>
        <time>2012-10-21T10:38:59Z</time>
      </trkpt>
      <trkpt lat="44.16436" lon="7.24457">
        <ele>2613.48</ele>
        <time>2012-10-21T10:39:15Z</time>
      </trkpt>
      <trkpt lat="44.16439" lon="7.24452">
        <ele>2613.48</ele>
        <time>2012-10-21T10:39:25Z</time>
      </trkpt>
      <trkpt lat="44.16438" lon="7.24453">
        <ele>2612.52</ele>
        <time>2012-10-21T10:39:27Z</time>
      </trkpt>
      <trkpt lat="44.16439" lon="7.24454">
        <ele>2611.56</ele>
        <time>2012-10-21T10:39:39Z</time>
      </trkpt>
      <trkpt lat="44.16439" lon="7.24454">
        <ele>2612.04</ele>
        <time>2012-10-21T10:41:01Z</time>
      </trkpt>
      <trkpt lat="44.16439" lon="7.24454">
        <ele>2612.04</ele>
        <time>2012-10-21T10:43:18Z</time>
      </trkpt>
      <trkpt lat="44.16439" lon="7.24454">
        <ele>2612.52</ele>
        <time>2012-10-21T10:47:07Z</time>
      </trkpt>
      <trkpt lat="44.1644" lon="7.24453">
        <ele>2612.52</ele>
        <time>2012-10-21T10:50:19Z</time>
      </trkpt>
      <trkpt lat="44.1644" lon="7.24453">
        <ele>2613</ele>
        <time>2012-10-21T10:52:53Z</time>
      </trkpt>
      <trkpt lat="44.16441" lon="7.24452">
        <ele>2613.48</ele>
        <time>2012-10-21T10:56:00Z</time>
      </trkpt>
      <trkpt lat="44.1644" lon="7.24453">
        <ele>2613.48</ele>
        <time>2012-10-21T10:59:34Z</time>
      </trkpt>
      <trkpt lat="44.1644" lon="7.24453">
        <ele>2610.12</ele>
        <time>2012-10-21T10:59:41Z</time>
      </trkpt>
      <trkpt lat="44.1644" lon="7.24453">
        <ele>2613.48</ele>
        <time>2012-10-21T10:59:42Z</time>
      </trkpt>
      <trkpt lat="44.1644" lon="7.24453">
        <ele>2610.12</ele>
        <time>2012-10-21T10:59:49Z</time>
      </trkpt>
      <trkpt lat="44.1644" lon="7.24453">
        <ele>2613.48</ele>
        <time>2012-10-21T11:00:01Z</time>
      </trkpt>
      <trkpt lat="44.1644" lon="7.24453">
        <ele>2613.48</ele>
        <time>2012-10-21T11:00:09Z</time>
      </trkpt>
      <trkpt lat="44.1644" lon="7.24453">
        <ele>2612.52</ele>
        <time>2012-10-21T11:00:11Z</time>
      </trkpt>
      <trkpt lat="44.1644" lon="7.24454">
        <ele>2613.48</ele>
        <time>2012-10-21T11:00:39Z</time>
      </trkpt>
      <trkpt lat="44.1644" lon="7.24454">
        <ele>2613</ele>
        <time>2012-10-21T11:01:15Z</time>
      </trkpt>
      <trkpt lat="44.1644" lon="7.24454">
        <ele>2613</ele>
        <time>2012-10-21T11:02:37Z</time>
      </trkpt>
      <trkpt lat="44.1644" lon="7.24454">
        <ele>2613.96</ele>
        <time>2012-10-21T11:03:08Z</time>
      </trkpt>
      <trkpt lat="44.1644" lon="7.24454">
        <ele>2613</ele>
        <time>2012-10-21T11:03:43Z</time>
      </trkpt>
      <trkpt lat="44.1644" lon="7.24454">
        <ele>2613</ele>
        <time>2012-10-21T11:05:04Z</time>
      </trkpt>
      <trkpt lat="44.1644" lon="7.24454">
        <ele>2613.96</ele>
        <time>2012-10-21T11:05:39Z</time>
      </trkpt>
      <trkpt lat="44.16441" lon="7.24452">
        <ele>2613.48</ele>
        <time>2012-10-21T11:06:46Z</time>
      </trkpt>
      <trkpt lat="44.16441" lon="7.24455">
        <ele>2614.92</ele>
        <time>2012-10-21T11:08:32Z</time>
      </trkpt>
      <trkpt lat="44.16442" lon="7.24454">
        <ele>2614.92</ele>
        <time>2012-10-21T11:08:44Z</time>
      </trkpt>
      <trkpt lat="44.16442" lon="7.24454">
        <ele>2614.92</ele>
        <time>2012-10-21T11:09:05Z</time>
      </trkpt>
      <trkpt lat="44.16441" lon="7.24455">
        <ele>2614.92</ele>
        <time>2012-10-21T11:09:17Z</time>
      </trkpt>
      <trkpt lat="44.1644" lon="7.24457">
        <ele>2615.4</ele>
        <time>2012-10-21T11:09:40Z</time>
      </trkpt>
      <trkpt lat="44.1644" lon="7.24457">
        <ele>2614.92</ele>
        <time>2012-10-21T11:10:12Z</time>
      </trkpt>
      <trkpt lat="44.1644" lon="7.24457">
        <ele>2614.92</ele>
        <time>2012-10-21T11:10:50Z</time>
      </trkpt>
      <trkpt lat="44.16442" lon="7.24458">
        <ele>2614.44</ele>
        <time>2012-10-21T11:11:30Z</time>
      </trkpt>
      <trkpt lat="44.16442" lon="7.24457">
        <ele>2615.4</ele>
        <time>2012-10-21T11:11:47Z</time>
      </trkpt>
      <trkpt lat="44.16443" lon="7.24454">
        <ele>2614.92</ele>
        <time>2012-10-21T11:11:57Z</time>
      </trkpt>
      <trkpt lat="44.16442" lon="7.24442">
        <ele>2613.48</ele>
        <time>2012-10-21T11:12:09Z</time>
      </trkpt>
      <trkpt lat="44.16442" lon="7.24432">
        <ele>2611.08</ele>
        <time>2012-10-21T11:12:20Z</time>
      </trkpt>
      <trkpt lat="44.16442" lon="7.24423">
        <ele>2609.16</ele>
        <time>2012-10-21T11:12:32Z</time>
      </trkpt>
      <trkpt lat="44.16442" lon="7.24421">
        <ele>2609.16</ele>
        <time>2012-10-21T11:12:33Z</time>
      </trkpt>
      <trkpt lat="44.16432" lon="7.24411">
        <ele>2606.75</ele>
        <time>2012-10-21T11:12:46Z</time>
      </trkpt>
      <trkpt lat="44.16429" lon="7.24409">
        <ele>2605.79</ele>
        <time>2012-10-21T11:12:50Z</time>
      </trkpt>
      <trkpt lat="44.16422" lon="7.24407">
        <ele>2604.83</ele>
        <time>2012-10-21T11:12:59Z</time>
      </trkpt>
      <trkpt lat="44.16415" lon="7.244">
        <ele>2602.43</ele>
        <time>2012-10-21T11:13:05Z</time>
      </trkpt>
      <trkpt lat="44.16411" lon="7.24394">
        <ele>2601.95</ele>
        <time>2012-10-21T11:13:11Z</time>
      </trkpt>
      <trkpt lat="44.16407" lon="7.24392">
        <ele>2601.95</ele>
        <time>2012-10-21T11:13:17Z</time>
      </trkpt>
      <trkpt lat="44.16403" lon="7.24385">
        <ele>2600.98</ele>
        <time>2012-10-21T11:13:25Z</time>
      </trkpt>
      <trkpt lat="44.16401" lon="7.2438">
        <ele>2601.46</ele>
        <time>2012-10-21T11:13:29Z</time>
      </trkpt>
      <trkpt lat="44.164" lon="7.24377">
        <ele>2601.46</ele>
        <time>2012-10-21T11:13:32Z</time>
      </trkpt>
      <trkpt lat="44.16397" lon="7.24369">
        <ele>2601.46</ele>
        <time>2012-10-21T11:13:39Z</time>
      </trkpt>
      <trkpt lat="44.1639" lon="7.24359">
        <ele>2601.46</ele>
        <time>2012-10-21T11:13:51Z</time>
      </trkpt>
      <trkpt lat="44.16388" lon="7.24356">
        <ele>2601.95</ele>
        <time>2012-10-21T11:13:54Z</time>
      </trkpt>
      <trkpt lat="44.16386" lon="7.2435">
        <ele>2601.46</ele>
        <time>2012-10-21T11:13:59Z</time>
      </trkpt>
      <trkpt lat="44.16384" lon="7.24342">
        <ele>2602.43</ele>
        <time>2012-10-21T11:14:06Z</time>
      </trkpt>
      <trkpt lat="44.16378" lon="7.2434">
        <ele>2602.43</ele>
        <time>2012-10-21T11:14:12Z</time>
      </trkpt>
      <trkpt lat="44.16371" lon="7.24332">
        <ele>2602.91</ele>
        <time>2012-10-21T11:14:23Z</time>
      </trkpt>
      <trkpt lat="44.16371" lon="7.24332">
        <ele>2602.91</ele>
        <time>2012-10-21T11:14:24Z</time>
      </trkpt>
      <trkpt lat="44.16363" lon="7.24335">
        <ele>2601.95</ele>
        <time>2012-10-21T11:14:32Z</time>
      </trkpt>
      <trkpt lat="44.16355" lon="7.24331">
        <ele>2600.02</ele>
        <time>2012-10-21T11:14:44Z</time>
      </trkpt>
      <trkpt lat="44.16354" lon="7.2433">
        <ele>2600.02</ele>
        <time>2012-10-21T11:14:46Z</time>
      </trkpt>
      <trkpt lat="44.16353" lon="7.24325">
        <ele>2598.1</ele>
        <time>2012-10-21T11:14:50Z</time>
      </trkpt>
      <trkpt lat="44.16348" lon="7.24325">
        <ele>2598.1</ele>
        <time>2012-10-21T11:15:00Z</time>
      </trkpt>
      <trkpt lat="44.16347" lon="7.24325">
        <ele>2598.1</ele>
        <time>2012-10-21T11:15:02Z</time>
      </trkpt>
      <trkpt lat="44.16341" lon="7.24328">
        <ele>2595.7</ele>
        <time>2012-10-21T11:15:13Z</time>
      </trkpt>
      <trkpt lat="44.16337" lon="7.24332">
        <ele>2594.74</ele>
        <time>2012-10-21T11:15:18Z</time>
      </trkpt>
      <trkpt lat="44.16332" lon="7.24334">
        <ele>2592.81</ele>
        <time>2012-10-21T11:15:26Z</time>
      </trkpt>
      <trkpt lat="44.16328" lon="7.24334">
        <ele>2592.81</ele>
        <time>2012-10-21T11:15:29Z</time>
      </trkpt>
      <trkpt lat="44.16321" lon="7.24338">
        <ele>2588.97</ele>
        <time>2012-10-21T11:15:41Z</time>
      </trkpt>
      <trkpt lat="44.16318" lon="7.2434">
        <ele>2588.97</ele>
        <time>2012-10-21T11:15:46Z</time>
      </trkpt>
      <trkpt lat="44.16312" lon="7.24356">
        <ele>2587.04</ele>
        <time>2012-10-21T11:15:59Z</time>
      </trkpt>
      <trkpt lat="44.16311" lon="7.24359">
        <ele>2586.56</ele>
        <time>2012-10-21T11:16:04Z</time>
      </trkpt>
      <trkpt lat="44.16305" lon="7.24362">
        <ele>2586.08</ele>
        <time>2012-10-21T11:16:11Z</time>
      </trkpt>
      <trkpt lat="44.16302" lon="7.24363">
        <ele>2584.64</ele>
        <time>2012-10-21T11:16:14Z</time>
      </trkpt>
      <trkpt lat="44.16299" lon="7.24364">
        <ele>2584.16</ele>
        <time>2012-10-21T11:16:17Z</time>
      </trkpt>
      <trkpt lat="44.16296" lon="7.24362">
        <ele>2583.68</ele>
        <time>2012-10-21T11:16:22Z</time>
      </trkpt>
      <trkpt lat="44.16296" lon="7.24359">
        <ele>2582.72</ele>
        <time>2012-10-21T11:16:27Z</time>
      </trkpt>
      <trkpt lat="44.16293" lon="7.24361">
        <ele>2581.76</ele>
        <time>2012-10-21T11:16:30Z</time>
      </trkpt>
      <trkpt lat="44.16287" lon="7.24362">
        <ele>2580.8</ele>
        <time>2012-10-21T11:16:37Z</time>
      </trkpt>
      <trkpt lat="44.16282" lon="7.24365">
        <ele>2580.32</ele>
        <time>2012-10-21T11:16:42Z</time>
      </trkpt>
      <trkpt lat="44.16278" lon="7.24367">
        <ele>2578.39</ele>
        <time>2012-10-21T11:16:54Z</time>
      </trkpt>
      <trkpt lat="44.16276" lon="7.24365">
        <ele>2577.91</ele>
        <time>2012-10-21T11:16:57Z</time>
      </trkpt>
      <trkpt lat="44.16274" lon="7.24364">
        <ele>2578.39</ele>
        <time>2012-10-21T11:16:59Z</time>
      </trkpt>
      <trkpt lat="44.16269" lon="7.24361">
        <ele>2577.91</ele>
        <time>2012-10-21T11:17:12Z</time>
      </trkpt>
      <trkpt lat="44.16266" lon="7.24363">
        <ele>2577.91</ele>
        <time>2012-10-21T11:17:42Z</time>
      </trkpt>
      <trkpt lat="44.16256" lon="7.24362">
        <ele>2577.43</ele>
        <time>2012-10-21T11:17:53Z</time>
      </trkpt>
      <trkpt lat="44.16255" lon="7.24369">
        <ele>2576.47</ele>
        <time>2012-10-21T11:18:11Z</time>
      </trkpt>
      <trkpt lat="44.16256" lon="7.24373">
        <ele>2576.47</ele>
        <time>2012-10-21T11:18:22Z</time>
      </trkpt>
      <trkpt lat="44.16255" lon="7.24374">
        <ele>2575.99</ele>
        <time>2012-10-21T11:18:39Z</time>
      </trkpt>
      <trkpt lat="44.1625" lon="7.24376">
        <ele>2575.51</ele>
        <time>2012-10-21T11:18:52Z</time>
      </trkpt>
      <trkpt lat="44.1625" lon="7.24376">
        <ele>2575.51</ele>
        <time>2012-10-21T11:19:01Z</time>
      </trkpt>
      <trkpt lat="44.16247" lon="7.24379">
        <ele>2575.03</ele>
        <time>2012-10-21T11:19:11Z</time>
      </trkpt>
      <trkpt lat="44.16243" lon="7.24383">
        <ele>2574.07</ele>
        <time>2012-10-21T11:19:24Z</time>
      </trkpt>
      <trkpt lat="44.16236" lon="7.24388">
        <ele>2572.63</ele>
        <time>2012-10-21T11:19:37Z</time>
      </trkpt>
      <trkpt lat="44.16235" lon="7.24389">
        <ele>2572.63</ele>
        <time>2012-10-21T11:19:44Z</time>
      </trkpt>
      <trkpt lat="44.16229" lon="7.24396">
        <ele>2571.66</ele>
        <time>2012-10-21T11:19:55Z</time>
      </trkpt>
      <trkpt lat="44.16221" lon="7.24405">
        <ele>2569.26</ele>
        <time>2012-10-21T11:20:07Z</time>
      </trkpt>
      <trkpt lat="44.16214" lon="7.24413">
        <ele>2567.34</ele>
        <time>2012-10-21T11:20:18Z</time>
      </trkpt>
      <trkpt lat="44.16213" lon="7.24416">
        <ele>2566.38</ele>
        <time>2012-10-21T11:20:21Z</time>
      </trkpt>
      <trkpt lat="44.16213" lon="7.2442">
        <ele>2565.42</ele>
        <time>2012-10-21T11:20:25Z</time>
      </trkpt>
      <trkpt lat="44.16209" lon="7.24427">
        <ele>2562.53</ele>
        <time>2012-10-21T11:20:34Z</time>
      </trkpt>
      <trkpt lat="44.16206" lon="7.24433">
        <ele>2561.57</ele>
        <time>2012-10-21T11:20:42Z</time>
      </trkpt>
      <trkpt lat="44.162" lon="7.24434">
        <ele>2559.17</ele>
        <time>2012-10-21T11:20:51Z</time>
      </trkpt>
      <trkpt lat="44.16199" lon="7.24434">
        <ele>2558.69</ele>
        <time>2012-10-21T11:20:52Z</time>
      </trkpt>
      <trkpt lat="44.16194" lon="7.24438">
        <ele>2557.24</ele>
        <time>2012-10-21T11:20:59Z</time>
      </trkpt>
      <trkpt lat="44.16193" lon="7.2444">
        <ele>2556.76</ele>
        <time>2012-10-21T11:21:01Z</time>
      </trkpt>
      <trkpt lat="44.16186" lon="7.24441">
        <ele>2554.84</ele>
        <time>2012-10-21T11:21:09Z</time>
      </trkpt>
      <trkpt lat="44.16184" lon="7.24441">
        <ele>2553.88</ele>
        <time>2012-10-21T11:21:11Z</time>
      </trkpt>
      <trkpt lat="44.16176" lon="7.24442">
        <ele>2552.44</ele>
        <time>2012-10-21T11:21:22Z</time>
      </trkpt>
      <trkpt lat="44.16175" lon="7.24441">
        <ele>2552.44</ele>
        <time>2012-10-21T11:21:23Z</time>
      </trkpt>
      <trkpt lat="44.16168" lon="7.24442">
        <ele>2550.03</ele>
        <time>2012-10-21T11:21:34Z</time>
      </trkpt>
      <trkpt lat="44.16165" lon="7.24443">
        <ele>2548.59</ele>
        <time>2012-10-21T11:21:37Z</time>
      </trkpt>
      <trkpt lat="44.16161" lon="7.24442">
        <ele>2547.63</ele>
        <time>2012-10-21T11:21:42Z</time>
      </trkpt>
      <trkpt lat="44.1616" lon="7.24441">
        <ele>2546.67</ele>
        <time>2012-10-21T11:21:47Z</time>
      </trkpt>
      <trkpt lat="44.16155" lon="7.2444">
        <ele>2544.27</ele>
        <time>2012-10-21T11:21:58Z</time>
      </trkpt>
      <trkpt lat="44.16152" lon="7.24438">
        <ele>2542.34</ele>
        <time>2012-10-21T11:22:04Z</time>
      </trkpt>
      <trkpt lat="44.16146" lon="7.24439">
        <ele>2539.94</ele>
        <time>2012-10-21T11:22:16Z</time>
      </trkpt>
      <trkpt lat="44.1614" lon="7.24439">
        <ele>2538.02</ele>
        <time>2012-10-21T11:22:25Z</time>
      </trkpt>
      <trkpt lat="44.16134" lon="7.24438">
        <ele>2536.58</ele>
        <time>2012-10-21T11:22:34Z</time>
      </trkpt>
      <trkpt lat="44.16131" lon="7.2444">
        <ele>2535.13</ele>
        <time>2012-10-21T11:22:41Z</time>
      </trkpt>
      <trkpt lat="44.16125" lon="7.24442">
        <ele>2533.69</ele>
        <time>2012-10-21T11:22:51Z</time>
      </trkpt>
      <trkpt lat="44.16121" lon="7.24439">
        <ele>2530.81</ele>
        <time>2012-10-21T11:23:03Z</time>
      </trkpt>
      <trkpt lat="44.16117" lon="7.24439">
        <ele>2529.37</ele>
        <time>2012-10-21T11:23:13Z</time>
      </trkpt>
      <trkpt lat="44.16114" lon="7.24443">
        <ele>2526.96</ele>
        <time>2012-10-21T11:23:22Z</time>
      </trkpt>
      <trkpt lat="44.16113" lon="7.24443">
        <ele>2527.44</ele>
        <time>2012-10-21T11:23:24Z</time>
      </trkpt>
      <trkpt lat="44.16103" lon="7.24444">
        <ele>2526</ele>
        <time>2012-10-21T11:23:33Z</time>
      </trkpt>
      <trkpt lat="44.16101" lon="7.24444">
        <ele>2526</ele>
        <time>2012-10-21T11:23:35Z</time>
      </trkpt>
      <trkpt lat="44.16098" lon="7.2445">
        <ele>2526</ele>
        <time>2012-10-21T11:23:40Z</time>
      </trkpt>
      <trkpt lat="44.16093" lon="7.24453">
        <ele>2523.6</ele>
        <time>2012-10-21T11:23:51Z</time>
      </trkpt>
      <trkpt lat="44.1609" lon="7.24455">
        <ele>2522.16</ele>
        <time>2012-10-21T11:23:58Z</time>
      </trkpt>
      <trkpt lat="44.16089" lon="7.24454">
        <ele>2521.68</ele>
        <time>2012-10-21T11:24:00Z</time>
      </trkpt>
      <trkpt lat="44.16087" lon="7.24451">
        <ele>2521.68</ele>
        <time>2012-10-21T11:24:03Z</time>
      </trkpt>
      <trkpt lat="44.16081" lon="7.24449">
        <ele>2521.19</ele>
        <time>2012-10-21T11:24:08Z</time>
      </trkpt>
      <trkpt lat="44.16077" lon="7.24449">
        <ele>2521.19</ele>
        <time>2012-10-21T11:24:12Z</time>
      </trkpt>
      <trkpt lat="44.16072" lon="7.24446">
        <ele>2520.23</ele>
        <time>2012-10-21T11:24:20Z</time>
      </trkpt>
      <trkpt lat="44.16067" lon="7.24447">
        <ele>2518.79</ele>
        <time>2012-10-21T11:24:26Z</time>
      </trkpt>
      <trkpt lat="44.16062" lon="7.24448">
        <ele>2518.31</ele>
        <time>2012-10-21T11:24:31Z</time>
      </trkpt>
      <trkpt lat="44.1606" lon="7.24448">
        <ele>2517.83</ele>
        <time>2012-10-21T11:24:34Z</time>
      </trkpt>
      <trkpt lat="44.16054" lon="7.24449">
        <ele>2516.39</ele>
        <time>2012-10-21T11:24:45Z</time>
      </trkpt>
      <trkpt lat="44.16053" lon="7.24451">
        <ele>2516.39</ele>
        <time>2012-10-21T11:24:48Z</time>
      </trkpt>
      <trkpt lat="44.16045" lon="7.24453">
        <ele>2514.95</ele>
        <time>2012-10-21T11:24:57Z</time>
      </trkpt>
      <trkpt lat="44.16041" lon="7.24451">
        <ele>2514.95</ele>
        <time>2012-10-21T11:25:00Z</time>
      </trkpt>
      <trkpt lat="44.16037" lon="7.24453">
        <ele>2514.47</ele>
        <time>2012-10-21T11:25:04Z</time>
      </trkpt>
      <trkpt lat="44.16028" lon="7.24462">
        <ele>2514.47</ele>
        <time>2012-10-21T11:25:14Z</time>
      </trkpt>
      <trkpt lat="44.16028" lon="7.24468">
        <ele>2515.43</ele>
        <time>2012-10-21T11:25:31Z</time>
      </trkpt>
      <trkpt lat="44.16024" lon="7.2447">
        <ele>2515.43</ele>
        <time>2012-10-21T11:25:41Z</time>
      </trkpt>
      <trkpt lat="44.16021" lon="7.24473">
        <ele>2515.91</ele>
        <time>2012-10-21T11:25:46Z</time>
      </trkpt>
      <trkpt lat="44.16017" lon="7.24474">
        <ele>2516.39</ele>
        <time>2012-10-21T11:25:49Z</time>
      </trkpt>
      <trkpt lat="44.16012" lon="7.24481">
        <ele>2516.39</ele>
        <time>2012-10-21T11:25:57Z</time>
      </trkpt>
      <trkpt lat="44.16008" lon="7.24484">
        <ele>2516.87</ele>
        <time>2012-10-21T11:26:03Z</time>
      </trkpt>
      <trkpt lat="44.16003" lon="7.24489">
        <ele>2517.83</ele>
        <time>2012-10-21T11:26:14Z</time>
      </trkpt>
      <trkpt lat="44.16003" lon="7.2449">
        <ele>2517.83</ele>
        <time>2012-10-21T11:26:17Z</time>
      </trkpt>
      <trkpt lat="44.16002" lon="7.24491">
        <ele>2517.83</ele>
        <time>2012-10-21T11:26:19Z</time>
      </trkpt>
      <trkpt lat="44.15999" lon="7.24496">
        <ele>2517.35</ele>
        <time>2012-10-21T11:26:23Z</time>
      </trkpt>
      <trkpt lat="44.15993" lon="7.24499">
        <ele>2517.35</ele>
        <time>2012-10-21T11:26:30Z</time>
      </trkpt>
      <trkpt lat="44.15987" lon="7.24509">
        <ele>2516.39</ele>
        <time>2012-10-21T11:26:41Z</time>
      </trkpt>
      <trkpt lat="44.15982" lon="7.24505">
        <ele>2516.87</ele>
        <time>2012-10-21T11:26:49Z</time>
      </trkpt>
      <trkpt lat="44.15982" lon="7.24501">
        <ele>2517.35</ele>
        <time>2012-10-21T11:26:53Z</time>
      </trkpt>
      <trkpt lat="44.15981" lon="7.24498">
        <ele>2517.35</ele>
        <time>2012-10-21T11:26:56Z</time>
      </trkpt>
      <trkpt lat="44.15977" lon="7.24495">
        <ele>2517.83</ele>
        <time>2012-10-21T11:27:00Z</time>
      </trkpt>
      <trkpt lat="44.15977" lon="7.24491">
        <ele>2518.31</ele>
        <time>2012-10-21T11:27:04Z</time>
      </trkpt>
      <trkpt lat="44.15975" lon="7.24491">
        <ele>2518.31</ele>
        <time>2012-10-21T11:27:06Z</time>
      </trkpt>
      <trkpt lat="44.15969" lon="7.24491">
        <ele>2517.83</ele>
        <time>2012-10-21T11:27:12Z</time>
      </trkpt>
      <trkpt lat="44.15955" lon="7.24491">
        <ele>2517.35</ele>
        <time>2012-10-21T11:27:23Z</time>
      </trkpt>
      <trkpt lat="44.15954" lon="7.24491">
        <ele>2516.87</ele>
        <time>2012-10-21T11:27:24Z</time>
      </trkpt>
      <trkpt lat="44.15945" lon="7.24497">
        <ele>2516.39</ele>
        <time>2012-10-21T11:27:33Z</time>
      </trkpt>
      <trkpt lat="44.15941" lon="7.24501">
        <ele>2514.95</ele>
        <time>2012-10-21T11:27:39Z</time>
      </trkpt>
      <trkpt lat="44.15937" lon="7.24505">
        <ele>2513.98</ele>
        <time>2012-10-21T11:27:44Z</time>
      </trkpt>
      <trkpt lat="44.15933" lon="7.24513">
        <ele>2512.06</ele>
        <time>2012-10-21T11:27:56Z</time>
      </trkpt>
      <trkpt lat="44.15931" lon="7.24509">
        <ele>2510.62</ele>
        <time>2012-10-21T11:28:08Z</time>
      </trkpt>
      <trkpt lat="44.1593" lon="7.24509">
        <ele>2511.1</ele>
        <time>2012-10-21T11:28:09Z</time>
      </trkpt>
      <trkpt lat="44.15926" lon="7.24505">
        <ele>2511.58</ele>
        <time>2012-10-21T11:28:18Z</time>
      </trkpt>
      <trkpt lat="44.1592" lon="7.24504">
        <ele>2510.14</ele>
        <time>2012-10-21T11:28:29Z</time>
      </trkpt>
      <trkpt lat="44.15915" lon="7.24502">
        <ele>2508.7</ele>
        <time>2012-10-21T11:28:43Z</time>
      </trkpt>
      <trkpt lat="44.15911" lon="7.24503">
        <ele>2507.74</ele>
        <time>2012-10-21T11:28:52Z</time>
      </trkpt>
      <trkpt lat="44.15904" lon="7.24506">
        <ele>2506.77</ele>
        <time>2012-10-21T11:29:02Z</time>
      </trkpt>
      <trkpt lat="44.15901" lon="7.24507">
        <ele>2506.77</ele>
        <time>2012-10-21T11:29:06Z</time>
      </trkpt>
      <trkpt lat="44.15897" lon="7.24508">
        <ele>2507.74</ele>
        <time>2012-10-21T11:29:18Z</time>
      </trkpt>
      <trkpt lat="44.15897" lon="7.24508">
        <ele>2507.26</ele>
        <time>2012-10-21T11:29:19Z</time>
      </trkpt>
      <trkpt lat="44.1589" lon="7.24506">
        <ele>2507.26</ele>
        <time>2012-10-21T11:29:31Z</time>
      </trkpt>
      <trkpt lat="44.15881" lon="7.24502">
        <ele>2508.22</ele>
        <time>2012-10-21T11:29:42Z</time>
      </trkpt>
      <trkpt lat="44.15877" lon="7.24498">
        <ele>2507.26</ele>
        <time>2012-10-21T11:29:54Z</time>
      </trkpt>
      <trkpt lat="44.15874" lon="7.24496">
        <ele>2506.77</ele>
        <time>2012-10-21T11:29:57Z</time>
      </trkpt>
      <trkpt lat="44.15873" lon="7.24494">
        <ele>2505.81</ele>
        <time>2012-10-21T11:29:59Z</time>
      </trkpt>
      <trkpt lat="44.15866" lon="7.2449">
        <ele>2505.33</ele>
        <time>2012-10-21T11:30:11Z</time>
      </trkpt>
      <trkpt lat="44.15865" lon="7.24489">
        <ele>2505.33</ele>
        <time>2012-10-21T11:30:13Z</time>
      </trkpt>
      <trkpt lat="44.15863" lon="7.2449">
        <ele>2505.33</ele>
        <time>2012-10-21T11:30:16Z</time>
      </trkpt>
      <trkpt lat="44.15855" lon="7.2449">
        <ele>2504.37</ele>
        <time>2012-10-21T11:30:29Z</time>
      </trkpt>
      <trkpt lat="44.15854" lon="7.2449">
        <ele>2503.89</ele>
        <time>2012-10-21T11:30:32Z</time>
      </trkpt>
      <trkpt lat="44.15851" lon="7.24491">
        <ele>2502.93</ele>
        <time>2012-10-21T11:30:46Z</time>
      </trkpt>
      <trkpt lat="44.15845" lon="7.24493">
        <ele>2501.49</ele>
        <time>2012-10-21T11:30:57Z</time>
      </trkpt>
      <trkpt lat="44.15838" lon="7.24497">
        <ele>2499.57</ele>
        <time>2012-10-21T11:31:08Z</time>
      </trkpt>
      <trkpt lat="44.1583" lon="7.24496">
        <ele>2498.12</ele>
        <time>2012-10-21T11:31:20Z</time>
      </trkpt>
      <trkpt lat="44.15824" lon="7.24496">
        <ele>2497.16</ele>
        <time>2012-10-21T11:31:28Z</time>
      </trkpt>
      <trkpt lat="44.15818" lon="7.24496">
        <ele>2495.24</ele>
        <time>2012-10-21T11:31:42Z</time>
      </trkpt>
      <trkpt lat="44.15814" lon="7.24494">
        <ele>2493.32</ele>
        <time>2012-10-21T11:31:55Z</time>
      </trkpt>
      <trkpt lat="44.15811" lon="7.24487">
        <ele>2492.36</ele>
        <time>2012-10-21T11:32:08Z</time>
      </trkpt>
      <trkpt lat="44.15812" lon="7.24482">
        <ele>2489.95</ele>
        <time>2012-10-21T11:32:18Z</time>
      </trkpt>
      <trkpt lat="44.1581" lon="7.24478">
        <ele>2488.51</ele>
        <time>2012-10-21T11:32:29Z</time>
      </trkpt>
      <trkpt lat="44.1581" lon="7.24476">
        <ele>2488.03</ele>
        <time>2012-10-21T11:32:32Z</time>
      </trkpt>
      <trkpt lat="44.1581" lon="7.24465">
        <ele>2485.63</ele>
        <time>2012-10-21T11:32:45Z</time>
      </trkpt>
      <trkpt lat="44.15807" lon="7.24461">
        <ele>2483.7</ele>
        <time>2012-10-21T11:32:55Z</time>
      </trkpt>
      <trkpt lat="44.15805" lon="7.24455">
        <ele>2482.26</ele>
        <time>2012-10-21T11:33:09Z</time>
      </trkpt>
      <trkpt lat="44.15803" lon="7.24453">
        <ele>2480.34</ele>
        <time>2012-10-21T11:33:20Z</time>
      </trkpt>
      <trkpt lat="44.15801" lon="7.24447">
        <ele>2477.94</ele>
        <time>2012-10-21T11:33:31Z</time>
      </trkpt>
      <trkpt lat="44.15799" lon="7.24445">
        <ele>2476.97</ele>
        <time>2012-10-21T11:33:51Z</time>
      </trkpt>
      <trkpt lat="44.15799" lon="7.24445">
        <ele>2477.94</ele>
        <time>2012-10-21T11:34:08Z</time>
      </trkpt>
      <trkpt lat="44.15798" lon="7.24436">
        <ele>2478.42</ele>
        <time>2012-10-21T11:34:25Z</time>
      </trkpt>
      <trkpt lat="44.15797" lon="7.24427">
        <ele>2480.34</ele>
        <time>2012-10-21T11:34:39Z</time>
      </trkpt>
      <trkpt lat="44.15797" lon="7.24423">
        <ele>2481.3</ele>
        <time>2012-10-21T11:34:50Z</time>
      </trkpt>
      <trkpt lat="44.15796" lon="7.2442">
        <ele>2482.74</ele>
        <time>2012-10-21T11:35:00Z</time>
      </trkpt>
      <trkpt lat="44.15796" lon="7.24416">
        <ele>2485.15</ele>
        <time>2012-10-21T11:35:11Z</time>
      </trkpt>
      <trkpt lat="44.15793" lon="7.24409">
        <ele>2485.63</ele>
        <time>2012-10-21T11:35:22Z</time>
      </trkpt>
      <trkpt lat="44.15788" lon="7.24394">
        <ele>2486.11</ele>
        <time>2012-10-21T11:35:34Z</time>
      </trkpt>
      <trkpt lat="44.15788" lon="7.24394">
        <ele>2487.55</ele>
        <time>2012-10-21T11:35:51Z</time>
      </trkpt>
      <trkpt lat="44.15788" lon="7.24393">
        <ele>2487.07</ele>
        <time>2012-10-21T11:36:15Z</time>
      </trkpt>
      <trkpt lat="44.15788" lon="7.2439">
        <ele>2488.03</ele>
        <time>2012-10-21T11:36:36Z</time>
      </trkpt>
      <trkpt lat="44.1579" lon="7.24384">
        <ele>2487.07</ele>
        <time>2012-10-21T11:36:47Z</time>
      </trkpt>
      <trkpt lat="44.15791" lon="7.24378">
        <ele>2484.66</ele>
        <time>2012-10-21T11:36:57Z</time>
      </trkpt>
      <trkpt lat="44.15792" lon="7.24373">
        <ele>2483.22</ele>
        <time>2012-10-21T11:37:03Z</time>
      </trkpt>
      <trkpt lat="44.15792" lon="7.24361">
        <ele>2481.3</ele>
        <time>2012-10-21T11:37:12Z</time>
      </trkpt>
      <trkpt lat="44.15791" lon="7.24356">
        <ele>2479.86</ele>
        <time>2012-10-21T11:37:16Z</time>
      </trkpt>
      <trkpt lat="44.15785" lon="7.24343">
        <ele>2479.38</ele>
        <time>2012-10-21T11:37:24Z</time>
      </trkpt>
      <trkpt lat="44.15785" lon="7.24339">
        <ele>2478.9</ele>
        <time>2012-10-21T11:37:27Z</time>
      </trkpt>
      <trkpt lat="44.15783" lon="7.24332">
        <ele>2477.94</ele>
        <time>2012-10-21T11:37:38Z</time>
      </trkpt>
      <trkpt lat="44.15782" lon="7.24328">
        <ele>2477.45</ele>
        <time>2012-10-21T11:37:49Z</time>
      </trkpt>
      <trkpt lat="44.15781" lon="7.24322">
        <ele>2476.97</ele>
        <time>2012-10-21T11:37:58Z</time>
      </trkpt>
      <trkpt lat="44.15779" lon="7.2432">
        <ele>2476.97</ele>
        <time>2012-10-21T11:38:00Z</time>
      </trkpt>
      <trkpt lat="44.15778" lon="7.24323">
        <ele>2475.53</ele>
        <time>2012-10-21T11:38:13Z</time>
      </trkpt>
      <trkpt lat="44.15778" lon="7.24322">
        <ele>2474.57</ele>
        <time>2012-10-21T11:38:28Z</time>
      </trkpt>
      <trkpt lat="44.15778" lon="7.24317">
        <ele>2476.49</ele>
        <time>2012-10-21T11:38:49Z</time>
      </trkpt>
      <trkpt lat="44.15778" lon="7.24317">
        <ele>2476.49</ele>
        <time>2012-10-21T11:39:12Z</time>
      </trkpt>
      <trkpt lat="44.15779" lon="7.24317">
        <ele>2475.53</ele>
        <time>2012-10-21T11:39:52Z</time>
      </trkpt>
      <trkpt lat="44.15779" lon="7.24317">
        <ele>2475.53</ele>
        <time>2012-10-21T11:40:07Z</time>
      </trkpt>
      <trkpt lat="44.15778" lon="7.24317">
        <ele>2476.49</ele>
        <time>2012-10-21T11:40:58Z</time>
      </trkpt>
      <trkpt lat="44.15777" lon="7.2431">
        <ele>2475.53</ele>
        <time>2012-10-21T11:43:19Z</time>
      </trkpt>
      <trkpt lat="44.15774" lon="7.24304">
        <ele>2473.61</ele>
        <time>2012-10-21T11:43:26Z</time>
      </trkpt>
      <trkpt lat="44.15763" lon="7.24292">
        <ele>2473.61</ele>
        <time>2012-10-21T11:43:40Z</time>
      </trkpt>
      <trkpt lat="44.15754" lon="7.24286">
        <ele>2473.61</ele>
        <time>2012-10-21T11:43:53Z</time>
      </trkpt>
      <trkpt lat="44.15749" lon="7.24283">
        <ele>2472.65</ele>
        <time>2012-10-21T11:44:05Z</time>
      </trkpt>
      <trkpt lat="44.15746" lon="7.24282">
        <ele>2472.65</ele>
        <time>2012-10-21T11:44:17Z</time>
      </trkpt>
      <trkpt lat="44.15742" lon="7.24279">
        <ele>2472.17</ele>
        <time>2012-10-21T11:44:37Z</time>
      </trkpt>
      <trkpt lat="44.15738" lon="7.24265">
        <ele>2472.65</ele>
        <time>2012-10-21T11:44:50Z</time>
      </trkpt>
      <trkpt lat="44.15737" lon="7.24258">
        <ele>2473.61</ele>
        <time>2012-10-21T11:44:56Z</time>
      </trkpt>
      <trkpt lat="44.15737" lon="7.24247">
        <ele>2475.05</ele>
        <time>2012-10-21T11:45:07Z</time>
      </trkpt>
      <trkpt lat="44.15737" lon="7.24241">
        <ele>2477.45</ele>
        <time>2012-10-21T11:45:18Z</time>
      </trkpt>
      <trkpt lat="44.15736" lon="7.24235">
        <ele>2476.97</ele>
        <time>2012-10-21T11:45:22Z</time>
      </trkpt>
      <trkpt lat="44.15739" lon="7.24222">
        <ele>2477.94</ele>
        <time>2012-10-21T11:45:34Z</time>
      </trkpt>
      <trkpt lat="44.15741" lon="7.2421">
        <ele>2476.97</ele>
        <time>2012-10-21T11:45:46Z</time>
      </trkpt>
      <trkpt lat="44.15742" lon="7.24209">
        <ele>2476.97</ele>
        <time>2012-10-21T11:45:47Z</time>
      </trkpt>
      <trkpt lat="44.15744" lon="7.242">
        <ele>2474.09</ele>
        <time>2012-10-21T11:45:57Z</time>
      </trkpt>
      <trkpt lat="44.15751" lon="7.24193">
        <ele>2471.69</ele>
        <time>2012-10-21T11:46:08Z</time>
      </trkpt>
      <trkpt lat="44.1575" lon="7.2419">
        <ele>2471.69</ele>
        <time>2012-10-21T11:46:12Z</time>
      </trkpt>
      <trkpt lat="44.15748" lon="7.24187">
        <ele>2470.24</ele>
        <time>2012-10-21T11:46:17Z</time>
      </trkpt>
      <trkpt lat="44.15738" lon="7.24184">
        <ele>2468.32</ele>
        <time>2012-10-21T11:46:30Z</time>
      </trkpt>
      <trkpt lat="44.1573" lon="7.24171">
        <ele>2465.92</ele>
        <time>2012-10-21T11:46:43Z</time>
      </trkpt>
      <trkpt lat="44.15725" lon="7.24165">
        <ele>2463.52</ele>
        <time>2012-10-21T11:46:55Z</time>
      </trkpt>
      <trkpt lat="44.15721" lon="7.2416">
        <ele>2463.04</ele>
        <time>2012-10-21T11:47:10Z</time>
      </trkpt>
      <trkpt lat="44.15721" lon="7.24153">
        <ele>2460.63</ele>
        <time>2012-10-21T11:47:17Z</time>
      </trkpt>
      <trkpt lat="44.1572" lon="7.24147">
        <ele>2458.71</ele>
        <time>2012-10-21T11:47:22Z</time>
      </trkpt>
      <trkpt lat="44.15718" lon="7.24136">
        <ele>2456.79</ele>
        <time>2012-10-21T11:47:33Z</time>
      </trkpt>
      <trkpt lat="44.15714" lon="7.24131">
        <ele>2454.86</ele>
        <time>2012-10-21T11:47:44Z</time>
      </trkpt>
      <trkpt lat="44.1571" lon="7.24126">
        <ele>2451.98</ele>
        <time>2012-10-21T11:47:55Z</time>
      </trkpt>
      <trkpt lat="44.15708" lon="7.24122">
        <ele>2451.02</ele>
        <time>2012-10-21T11:48:03Z</time>
      </trkpt>
      <trkpt lat="44.15705" lon="7.2412">
        <ele>2449.1</ele>
        <time>2012-10-21T11:48:16Z</time>
      </trkpt>
      <trkpt lat="44.15702" lon="7.2412">
        <ele>2446.21</ele>
        <time>2012-10-21T11:48:28Z</time>
      </trkpt>
      <trkpt lat="44.15697" lon="7.24124">
        <ele>2444.29</ele>
        <time>2012-10-21T11:48:38Z</time>
      </trkpt>
      <trkpt lat="44.15691" lon="7.2413">
        <ele>2440.92</ele>
        <time>2012-10-21T11:48:48Z</time>
      </trkpt>
      <trkpt lat="44.15683" lon="7.24133">
        <ele>2439</ele>
        <time>2012-10-21T11:49:00Z</time>
      </trkpt>
      <trkpt lat="44.15679" lon="7.24136">
        <ele>2437.08</ele>
        <time>2012-10-21T11:49:06Z</time>
      </trkpt>
      <trkpt lat="44.15674" lon="7.2414">
        <ele>2433.71</ele>
        <time>2012-10-21T11:49:15Z</time>
      </trkpt>
      <trkpt lat="44.15673" lon="7.2414">
        <ele>2434.2</ele>
        <time>2012-10-21T11:49:16Z</time>
      </trkpt>
      <trkpt lat="44.15665" lon="7.24143">
        <ele>2431.79</ele>
        <time>2012-10-21T11:49:29Z</time>
      </trkpt>
      <trkpt lat="44.15664" lon="7.24145">
        <ele>2430.35</ele>
        <time>2012-10-21T11:49:31Z</time>
      </trkpt>
      <trkpt lat="44.15663" lon="7.24146">
        <ele>2431.31</ele>
        <time>2012-10-21T11:49:32Z</time>
      </trkpt>
      <trkpt lat="44.15655" lon="7.24151">
        <ele>2428.91</ele>
        <time>2012-10-21T11:49:44Z</time>
      </trkpt>
      <trkpt lat="44.15645" lon="7.24161">
        <ele>2426.5</ele>
        <time>2012-10-21T11:49:58Z</time>
      </trkpt>
      <trkpt lat="44.15638" lon="7.24172">
        <ele>2423.62</ele>
        <time>2012-10-21T11:50:10Z</time>
      </trkpt>
      <trkpt lat="44.15637" lon="7.24173">
        <ele>2423.14</ele>
        <time>2012-10-21T11:50:11Z</time>
      </trkpt>
      <trkpt lat="44.15635" lon="7.24175">
        <ele>2423.14</ele>
        <time>2012-10-21T11:50:13Z</time>
      </trkpt>
      <trkpt lat="44.15632" lon="7.24179">
        <ele>2421.7</ele>
        <time>2012-10-21T11:50:16Z</time>
      </trkpt>
      <trkpt lat="44.15625" lon="7.24184">
        <ele>2421.22</ele>
        <time>2012-10-21T11:50:24Z</time>
      </trkpt>
      <trkpt lat="44.15624" lon="7.24187">
        <ele>2420.74</ele>
        <time>2012-10-21T11:50:28Z</time>
      </trkpt>
      <trkpt lat="44.1562" lon="7.24199">
        <ele>2417.85</ele>
        <time>2012-10-21T11:50:39Z</time>
      </trkpt>
      <trkpt lat="44.15616" lon="7.24207">
        <ele>2415.45</ele>
        <time>2012-10-21T11:50:47Z</time>
      </trkpt>
      <trkpt lat="44.15606" lon="7.24213">
        <ele>2414.49</ele>
        <time>2012-10-21T11:50:57Z</time>
      </trkpt>
      <trkpt lat="44.15602" lon="7.24216">
        <ele>2413.05</ele>
        <time>2012-10-21T11:51:02Z</time>
      </trkpt>
      <trkpt lat="44.15591" lon="7.24221">
        <ele>2412.09</ele>
        <time>2012-10-21T11:51:14Z</time>
      </trkpt>
      <trkpt lat="44.15583" lon="7.24225">
        <ele>2410.16</ele>
        <time>2012-10-21T11:51:23Z</time>
      </trkpt>
      <trkpt lat="44.15578" lon="7.24225">
        <ele>2409.68</ele>
        <time>2012-10-21T11:51:37Z</time>
      </trkpt>
      <trkpt lat="44.15577" lon="7.24229">
        <ele>2408.24</ele>
        <time>2012-10-21T11:51:58Z</time>
      </trkpt>
      <trkpt lat="44.15575" lon="7.24236">
        <ele>2407.28</ele>
        <time>2012-10-21T11:52:04Z</time>
      </trkpt>
      <trkpt lat="44.15573" lon="7.24243">
        <ele>2406.32</ele>
        <time>2012-10-21T11:52:10Z</time>
      </trkpt>
      <trkpt lat="44.15568" lon="7.24253">
        <ele>2404.39</ele>
        <time>2012-10-21T11:52:22Z</time>
      </trkpt>
      <trkpt lat="44.15564" lon="7.24262">
        <ele>2401.99</ele>
        <time>2012-10-21T11:52:37Z</time>
      </trkpt>
      <trkpt lat="44.15563" lon="7.24265">
        <ele>2400.07</ele>
        <time>2012-10-21T11:52:41Z</time>
      </trkpt>
      <trkpt lat="44.15561" lon="7.24268">
        <ele>2398.63</ele>
        <time>2012-10-21T11:52:46Z</time>
      </trkpt>
      <trkpt lat="44.15552" lon="7.24278">
        <ele>2395.74</ele>
        <time>2012-10-21T11:52:59Z</time>
      </trkpt>
      <trkpt lat="44.15548" lon="7.24279">
        <ele>2394.78</ele>
        <time>2012-10-21T11:53:13Z</time>
      </trkpt>
      <trkpt lat="44.15544" lon="7.24283">
        <ele>2392.86</ele>
        <time>2012-10-21T11:53:28Z</time>
      </trkpt>
      <trkpt lat="44.15536" lon="7.24292">
        <ele>2389.97</ele>
        <time>2012-10-21T11:53:41Z</time>
      </trkpt>
      <trkpt lat="44.15538" lon="7.24298">
        <ele>2388.53</ele>
        <time>2012-10-21T11:53:51Z</time>
      </trkpt>
      <trkpt lat="44.15537" lon="7.24305">
        <ele>2386.61</ele>
        <time>2012-10-21T11:54:01Z</time>
      </trkpt>
      <trkpt lat="44.15537" lon="7.24315">
        <ele>2383.73</ele>
        <time>2012-10-21T11:54:14Z</time>
      </trkpt>
      <trkpt lat="44.15537" lon="7.24325">
        <ele>2381.32</ele>
        <time>2012-10-21T11:54:25Z</time>
      </trkpt>
      <trkpt lat="44.15537" lon="7.24329">
        <ele>2380.36</ele>
        <time>2012-10-21T11:54:29Z</time>
      </trkpt>
      <trkpt lat="44.15538" lon="7.24342">
        <ele>2377</ele>
        <time>2012-10-21T11:54:41Z</time>
      </trkpt>
      <trkpt lat="44.15539" lon="7.24349">
        <ele>2375.55</ele>
        <time>2012-10-21T11:54:46Z</time>
      </trkpt>
      <trkpt lat="44.15538" lon="7.24361">
        <ele>2372.67</ele>
        <time>2012-10-21T11:54:59Z</time>
      </trkpt>
      <trkpt lat="44.15536" lon="7.24368">
        <ele>2370.27</ele>
        <time>2012-10-21T11:55:10Z</time>
      </trkpt>
      <trkpt lat="44.15533" lon="7.24376">
        <ele>2366.9</ele>
        <time>2012-10-21T11:55:20Z</time>
      </trkpt>
      <trkpt lat="44.15532" lon="7.24389">
        <ele>2364.02</ele>
        <time>2012-10-21T11:55:32Z</time>
      </trkpt>
      <trkpt lat="44.15525" lon="7.24398">
        <ele>2362.1</ele>
        <time>2012-10-21T11:55:42Z</time>
      </trkpt>
      <trkpt lat="44.15524" lon="7.244">
        <ele>2361.14</ele>
        <time>2012-10-21T11:55:44Z</time>
      </trkpt>
      <trkpt lat="44.15523" lon="7.24402">
        <ele>2361.14</ele>
        <time>2012-10-21T11:55:47Z</time>
      </trkpt>
      <trkpt lat="44.15517" lon="7.24399">
        <ele>2359.21</ele>
        <time>2012-10-21T11:55:52Z</time>
      </trkpt>
      <trkpt lat="44.15513" lon="7.24398">
        <ele>2360.17</ele>
        <time>2012-10-21T11:55:56Z</time>
      </trkpt>
      <trkpt lat="44.15507" lon="7.24399">
        <ele>2358.73</ele>
        <time>2012-10-21T11:56:01Z</time>
      </trkpt>
      <trkpt lat="44.155" lon="7.24398">
        <ele>2357.29</ele>
        <time>2012-10-21T11:56:09Z</time>
      </trkpt>
      <trkpt lat="44.15492" lon="7.24393">
        <ele>2355.85</ele>
        <time>2012-10-21T11:56:17Z</time>
      </trkpt>
      <trkpt lat="44.15486" lon="7.24386">
        <ele>2354.89</ele>
        <time>2012-10-21T11:56:26Z</time>
      </trkpt>
      <trkpt lat="44.15483" lon="7.24381">
        <ele>2352.48</ele>
        <time>2012-10-21T11:56:32Z</time>
      </trkpt>
      <trkpt lat="44.15481" lon="7.24374">
        <ele>2349.6</ele>
        <time>2012-10-21T11:56:41Z</time>
      </trkpt>
      <trkpt lat="44.15478" lon="7.24368">
        <ele>2347.2</ele>
        <time>2012-10-21T11:56:52Z</time>
      </trkpt>
      <trkpt lat="44.15476" lon="7.24364">
        <ele>2345.27</ele>
        <time>2012-10-21T11:56:57Z</time>
      </trkpt>
      <trkpt lat="44.15469" lon="7.24363">
        <ele>2343.35</ele>
        <time>2012-10-21T11:57:08Z</time>
      </trkpt>
      <trkpt lat="44.15463" lon="7.2436">
        <ele>2342.39</ele>
        <time>2012-10-21T11:57:21Z</time>
      </trkpt>
      <trkpt lat="44.15464" lon="7.24358">
        <ele>2341.91</ele>
        <time>2012-10-21T11:57:38Z</time>
      </trkpt>
      <trkpt lat="44.15464" lon="7.24357">
        <ele>2341.91</ele>
        <time>2012-10-21T11:58:07Z</time>
      </trkpt>
      <trkpt lat="44.15464" lon="7.24356">
        <ele>2342.39</ele>
        <time>2012-10-21T11:58:35Z</time>
      </trkpt>
      <trkpt lat="44.15464" lon="7.24356">
        <ele>2341.43</ele>
        <time>2012-10-21T11:59:42Z</time>
      </trkpt>
      <trkpt lat="44.15465" lon="7.24356">
        <ele>2341.91</ele>
        <time>2012-10-21T12:00:03Z</time>
      </trkpt>
      <trkpt lat="44.15463" lon="7.24355">
        <ele>2340.95</ele>
        <time>2012-10-21T12:00:20Z</time>
      </trkpt>
      <trkpt lat="44.15457" lon="7.24349">
        <ele>2339.51</ele>
        <time>2012-10-21T12:00:40Z</time>
      </trkpt>
      <trkpt lat="44.15456" lon="7.24346">
        <ele>2339.51</ele>
        <time>2012-10-21T12:00:43Z</time>
      </trkpt>
      <trkpt lat="44.15448" lon="7.2434">
        <ele>2338.54</ele>
        <time>2012-10-21T12:00:54Z</time>
      </trkpt>
      <trkpt lat="44.15444" lon="7.24331">
        <ele>2337.58</ele>
        <time>2012-10-21T12:01:06Z</time>
      </trkpt>
      <trkpt lat="44.15441" lon="7.24327">
        <ele>2335.66</ele>
        <time>2012-10-21T12:01:10Z</time>
      </trkpt>
      <trkpt lat="44.15439" lon="7.24324">
        <ele>2336.14</ele>
        <time>2012-10-21T12:01:13Z</time>
      </trkpt>
      <trkpt lat="44.15428" lon="7.24308">
        <ele>2334.7</ele>
        <time>2012-10-21T12:01:26Z</time>
      </trkpt>
      <trkpt lat="44.15421" lon="7.24302">
        <ele>2332.78</ele>
        <time>2012-10-21T12:01:38Z</time>
      </trkpt>
      <trkpt lat="44.15417" lon="7.243">
        <ele>2332.3</ele>
        <time>2012-10-21T12:01:41Z</time>
      </trkpt>
      <trkpt lat="44.15404" lon="7.24297">
        <ele>2331.33</ele>
        <time>2012-10-21T12:01:53Z</time>
      </trkpt>
      <trkpt lat="44.15394" lon="7.24302">
        <ele>2328.93</ele>
        <time>2012-10-21T12:02:06Z</time>
      </trkpt>
      <trkpt lat="44.15388" lon="7.24301">
        <ele>2328.45</ele>
        <time>2012-10-21T12:02:16Z</time>
      </trkpt>
      <trkpt lat="44.15383" lon="7.24299">
        <ele>2327.01</ele>
        <time>2012-10-21T12:02:33Z</time>
      </trkpt>
      <trkpt lat="44.15381" lon="7.24298">
        <ele>2327.01</ele>
        <time>2012-10-21T12:02:35Z</time>
      </trkpt>
      <trkpt lat="44.15378" lon="7.24294">
        <ele>2326.53</ele>
        <time>2012-10-21T12:02:38Z</time>
      </trkpt>
      <trkpt lat="44.15372" lon="7.24291">
        <ele>2325.57</ele>
        <time>2012-10-21T12:02:46Z</time>
      </trkpt>
      <trkpt lat="44.15362" lon="7.24282">
        <ele>2323.16</ele>
        <time>2012-10-21T12:03:00Z</time>
      </trkpt>
      <trkpt lat="44.15361" lon="7.24282">
        <ele>2322.68</ele>
        <time>2012-10-21T12:03:01Z</time>
      </trkpt>
      <trkpt lat="44.15355" lon="7.24277">
        <ele>2322.68</ele>
        <time>2012-10-21T12:03:07Z</time>
      </trkpt>
      <trkpt lat="44.15349" lon="7.24271">
        <ele>2321.24</ele>
        <time>2012-10-21T12:03:14Z</time>
      </trkpt>
      <trkpt lat="44.1534" lon="7.24262">
        <ele>2320.28</ele>
        <time>2012-10-21T12:03:27Z</time>
      </trkpt>
      <trkpt lat="44.15337" lon="7.24261">
        <ele>2319.8</ele>
        <time>2012-10-21T12:03:30Z</time>
      </trkpt>
      <trkpt lat="44.15331" lon="7.24256">
        <ele>2319.32</ele>
        <time>2012-10-21T12:03:42Z</time>
      </trkpt>
      <trkpt lat="44.15322" lon="7.24251">
        <ele>2318.36</ele>
        <time>2012-10-21T12:03:54Z</time>
      </trkpt>
      <trkpt lat="44.15314" lon="7.24245">
        <ele>2317.4</ele>
        <time>2012-10-21T12:04:07Z</time>
      </trkpt>
      <trkpt lat="44.15309" lon="7.24245">
        <ele>2317.4</ele>
        <time>2012-10-21T12:04:22Z</time>
      </trkpt>
      <trkpt lat="44.15302" lon="7.24241">
        <ele>2317.4</ele>
        <time>2012-10-21T12:04:40Z</time>
      </trkpt>
      <trkpt lat="44.153" lon="7.24239">
        <ele>2316.91</ele>
        <time>2012-10-21T12:04:48Z</time>
      </trkpt>
      <trkpt lat="44.15292" lon="7.24242">
        <ele>2314.99</ele>
        <time>2012-10-21T12:05:00Z</time>
      </trkpt>
      <trkpt lat="44.1529" lon="7.24247">
        <ele>2314.99</ele>
        <time>2012-10-21T12:05:08Z</time>
      </trkpt>
      <trkpt lat="44.15285" lon="7.24262">
        <ele>2313.55</ele>
        <time>2012-10-21T12:05:21Z</time>
      </trkpt>
      <trkpt lat="44.1528" lon="7.24267">
        <ele>2313.07</ele>
        <time>2012-10-21T12:05:27Z</time>
      </trkpt>
      <trkpt lat="44.15271" lon="7.24277">
        <ele>2312.11</ele>
        <time>2012-10-21T12:05:40Z</time>
      </trkpt>
      <trkpt lat="44.15268" lon="7.24282">
        <ele>2311.63</ele>
        <time>2012-10-21T12:05:44Z</time>
      </trkpt>
      <trkpt lat="44.15267" lon="7.24285">
        <ele>2311.63</ele>
        <time>2012-10-21T12:05:47Z</time>
      </trkpt>
      <trkpt lat="44.15257" lon="7.243">
        <ele>2310.19</ele>
        <time>2012-10-21T12:06:01Z</time>
      </trkpt>
      <trkpt lat="44.15248" lon="7.24311">
        <ele>2308.74</ele>
        <time>2012-10-21T12:06:10Z</time>
      </trkpt>
      <trkpt lat="44.15245" lon="7.24314">
        <ele>2309.22</ele>
        <time>2012-10-21T12:06:14Z</time>
      </trkpt>
      <trkpt lat="44.15229" lon="7.24326">
        <ele>2306.82</ele>
        <time>2012-10-21T12:06:28Z</time>
      </trkpt>
      <trkpt lat="44.15222" lon="7.24329">
        <ele>2306.82</ele>
        <time>2012-10-21T12:06:40Z</time>
      </trkpt>
      <trkpt lat="44.15217" lon="7.24325">
        <ele>2305.38</ele>
        <time>2012-10-21T12:06:51Z</time>
      </trkpt>
      <trkpt lat="44.15214" lon="7.24321">
        <ele>2305.38</ele>
        <time>2012-10-21T12:06:57Z</time>
      </trkpt>
      <trkpt lat="44.15204" lon="7.2431">
        <ele>2303.46</ele>
        <time>2012-10-21T12:07:10Z</time>
      </trkpt>
      <trkpt lat="44.15199" lon="7.24299">
        <ele>2301.05</ele>
        <time>2012-10-21T12:07:22Z</time>
      </trkpt>
      <trkpt lat="44.15197" lon="7.24295">
        <ele>2301.53</ele>
        <time>2012-10-21T12:07:24Z</time>
      </trkpt>
      <trkpt lat="44.15192" lon="7.24292">
        <ele>2301.05</ele>
        <time>2012-10-21T12:07:29Z</time>
      </trkpt>
      <trkpt lat="44.15184" lon="7.24287">
        <ele>2299.13</ele>
        <time>2012-10-21T12:07:41Z</time>
      </trkpt>
      <trkpt lat="44.15176" lon="7.24283">
        <ele>2298.65</ele>
        <time>2012-10-21T12:07:51Z</time>
      </trkpt>
      <trkpt lat="44.15173" lon="7.24278">
        <ele>2298.65</ele>
        <time>2012-10-21T12:07:54Z</time>
      </trkpt>
      <trkpt lat="44.15172" lon="7.24268">
        <ele>2297.21</ele>
        <time>2012-10-21T12:08:02Z</time>
      </trkpt>
      <trkpt lat="44.15169" lon="7.24258">
        <ele>2295.77</ele>
        <time>2012-10-21T12:08:14Z</time>
      </trkpt>
      <trkpt lat="44.15162" lon="7.24247">
        <ele>2294.32</ele>
        <time>2012-10-21T12:08:27Z</time>
      </trkpt>
      <trkpt lat="44.1516" lon="7.2424">
        <ele>2292.88</ele>
        <time>2012-10-21T12:08:47Z</time>
      </trkpt>
      <trkpt lat="44.15159" lon="7.24237">
        <ele>2292.88</ele>
        <time>2012-10-21T12:08:50Z</time>
      </trkpt>
      <trkpt lat="44.15152" lon="7.24225">
        <ele>2291.44</ele>
        <time>2012-10-21T12:09:03Z</time>
      </trkpt>
      <trkpt lat="44.15147" lon="7.24209">
        <ele>2290</ele>
        <time>2012-10-21T12:09:17Z</time>
      </trkpt>
      <trkpt lat="44.15144" lon="7.242">
        <ele>2289.04</ele>
        <time>2012-10-21T12:09:23Z</time>
      </trkpt>
      <trkpt lat="44.15143" lon="7.24192">
        <ele>2288.56</ele>
        <time>2012-10-21T12:09:27Z</time>
      </trkpt>
      <trkpt lat="44.15145" lon="7.24181">
        <ele>2288.08</ele>
        <time>2012-10-21T12:09:36Z</time>
      </trkpt>
      <trkpt lat="44.15146" lon="7.24169">
        <ele>2287.59</ele>
        <time>2012-10-21T12:09:45Z</time>
      </trkpt>
      <trkpt lat="44.15152" lon="7.24152">
        <ele>2287.59</ele>
        <time>2012-10-21T12:09:59Z</time>
      </trkpt>
      <trkpt lat="44.15153" lon="7.24146">
        <ele>2287.59</ele>
        <time>2012-10-21T12:10:03Z</time>
      </trkpt>
      <trkpt lat="44.15155" lon="7.24129">
        <ele>2287.59</ele>
        <time>2012-10-21T12:10:14Z</time>
      </trkpt>
      <trkpt lat="44.15156" lon="7.24121">
        <ele>2287.59</ele>
        <time>2012-10-21T12:10:19Z</time>
      </trkpt>
      <trkpt lat="44.15159" lon="7.24117">
        <ele>2287.59</ele>
        <time>2012-10-21T12:10:30Z</time>
      </trkpt>
      <trkpt lat="44.15158" lon="7.2411">
        <ele>2287.59</ele>
        <time>2012-10-21T12:10:35Z</time>
      </trkpt>
      <trkpt lat="44.15159" lon="7.24105">
        <ele>2287.59</ele>
        <time>2012-10-21T12:10:53Z</time>
      </trkpt>
      <trkpt lat="44.15161" lon="7.24099">
        <ele>2287.11</ele>
        <time>2012-10-21T12:11:14Z</time>
      </trkpt>
      <trkpt lat="44.15161" lon="7.24096">
        <ele>2288.08</ele>
        <time>2012-10-21T12:13:13Z</time>
      </trkpt>
      <trkpt lat="44.15162" lon="7.24091">
        <ele>2288.56</ele>
        <time>2012-10-21T12:13:29Z</time>
      </trkpt>
      <trkpt lat="44.15163" lon="7.24093">
        <ele>2288.56</ele>
        <time>2012-10-21T12:13:43Z</time>
      </trkpt>
      <trkpt lat="44.15163" lon="7.24093">
        <ele>2288.08</ele>
        <time>2012-10-21T12:14:25Z</time>
      </trkpt>
      <trkpt lat="44.15163" lon="7.24092">
        <ele>2288.08</ele>
        <time>2012-10-21T12:15:22Z</time>
      </trkpt>
      <trkpt lat="44.15163" lon="7.24092">
        <ele>2288.08</ele>
        <time>2012-10-21T12:15:40Z</time>
      </trkpt>
      <trkpt lat="44.15163" lon="7.24094">
        <ele>2288.08</ele>
        <time>2012-10-21T12:15:54Z</time>
      </trkpt>
      <trkpt lat="44.15163" lon="7.24094">
        <ele>2287.59</ele>
        <time>2012-10-21T12:16:24Z</time>
      </trkpt>
      <trkpt lat="44.15164" lon="7.24099">
        <ele>2286.63</ele>
        <time>2012-10-21T12:16:46Z</time>
      </trkpt>
      <trkpt lat="44.15163" lon="7.24099">
        <ele>2287.11</ele>
        <time>2012-10-21T12:16:59Z</time>
      </trkpt>
      <trkpt lat="44.15163" lon="7.24099">
        <ele>2287.11</ele>
        <time>2012-10-21T12:17:27Z</time>
      </trkpt>
      <trkpt lat="44.15163" lon="7.24099">
        <ele>2287.11</ele>
        <time>2012-10-21T12:18:19Z</time>
      </trkpt>
      <trkpt lat="44.15163" lon="7.24097">
        <ele>2287.11</ele>
        <time>2012-10-21T12:19:04Z</time>
      </trkpt>
      <trkpt lat="44.15163" lon="7.24097">
        <ele>2286.63</ele>
        <time>2012-10-21T12:19:05Z</time>
      </trkpt>
      <trkpt lat="44.15161" lon="7.24084">
        <ele>2287.11</ele>
        <time>2012-10-21T12:19:17Z</time>
      </trkpt>
      <trkpt lat="44.1516" lon="7.24076">
        <ele>2287.11</ele>
        <time>2012-10-21T12:19:22Z</time>
      </trkpt>
      <trkpt lat="44.1516" lon="7.24069">
        <ele>2286.15</ele>
        <time>2012-10-21T12:19:27Z</time>
      </trkpt>
      <trkpt lat="44.1516" lon="7.24067">
        <ele>2286.15</ele>
        <time>2012-10-21T12:19:29Z</time>
      </trkpt>
      <trkpt lat="44.15159" lon="7.24054">
        <ele>2285.67</ele>
        <time>2012-10-21T12:19:36Z</time>
      </trkpt>
      <trkpt lat="44.15157" lon="7.24047">
        <ele>2285.67</ele>
        <time>2012-10-21T12:19:41Z</time>
      </trkpt>
      <trkpt lat="44.15159" lon="7.24037">
        <ele>2285.19</ele>
        <time>2012-10-21T12:19:47Z</time>
      </trkpt>
      <trkpt lat="44.15159" lon="7.2402">
        <ele>2283.27</ele>
        <time>2012-10-21T12:20:01Z</time>
      </trkpt>
      <trkpt lat="44.1516" lon="7.24011">
        <ele>2280.87</ele>
        <time>2012-10-21T12:20:12Z</time>
      </trkpt>
      <trkpt lat="44.15159" lon="7.24011">
        <ele>2278.46</ele>
        <time>2012-10-21T12:20:17Z</time>
      </trkpt>
      <trkpt lat="44.15153" lon="7.24008">
        <ele>2277.98</ele>
        <time>2012-10-21T12:20:28Z</time>
      </trkpt>
      <trkpt lat="44.15154" lon="7.24006">
        <ele>2277.98</ele>
        <time>2012-10-21T12:20:30Z</time>
      </trkpt>
      <trkpt lat="44.15155" lon="7.24001">
        <ele>2277.5</ele>
        <time>2012-10-21T12:20:34Z</time>
      </trkpt>
      <trkpt lat="44.15155" lon="7.2399">
        <ele>2274.62</ele>
        <time>2012-10-21T12:20:43Z</time>
      </trkpt>
      <trkpt lat="44.15155" lon="7.23984">
        <ele>2273.66</ele>
        <time>2012-10-21T12:20:49Z</time>
      </trkpt>
      <trkpt lat="44.15155" lon="7.23981">
        <ele>2273.66</ele>
        <time>2012-10-21T12:20:51Z</time>
      </trkpt>
      <trkpt lat="44.15156" lon="7.23977">
        <ele>2272.21</ele>
        <time>2012-10-21T12:20:54Z</time>
      </trkpt>
      <trkpt lat="44.15157" lon="7.23971">
        <ele>2271.25</ele>
        <time>2012-10-21T12:20:59Z</time>
      </trkpt>
      <trkpt lat="44.1516" lon="7.23955">
        <ele>2269.33</ele>
        <time>2012-10-21T12:21:11Z</time>
      </trkpt>
      <trkpt lat="44.1516" lon="7.23951">
        <ele>2267.41</ele>
        <time>2012-10-21T12:21:14Z</time>
      </trkpt>
      <trkpt lat="44.15162" lon="7.23939">
        <ele>2265</ele>
        <time>2012-10-21T12:21:25Z</time>
      </trkpt>
      <trkpt lat="44.15165" lon="7.23924">
        <ele>2262.6</ele>
        <time>2012-10-21T12:21:39Z</time>
      </trkpt>
      <trkpt lat="44.15164" lon="7.23921">
        <ele>2260.68</ele>
        <time>2012-10-21T12:21:49Z</time>
      </trkpt>
      <trkpt lat="44.15159" lon="7.23922">
        <ele>2257.31</ele>
        <time>2012-10-21T12:22:01Z</time>
      </trkpt>
      <trkpt lat="44.15158" lon="7.23918">
        <ele>2257.79</ele>
        <time>2012-10-21T12:22:05Z</time>
      </trkpt>
      <trkpt lat="44.15162" lon="7.23898">
        <ele>2255.87</ele>
        <time>2012-10-21T12:22:19Z</time>
      </trkpt>
      <trkpt lat="44.15162" lon="7.23884">
        <ele>2255.39</ele>
        <time>2012-10-21T12:22:30Z</time>
      </trkpt>
      <trkpt lat="44.15163" lon="7.23869">
        <ele>2253.95</ele>
        <time>2012-10-21T12:22:41Z</time>
      </trkpt>
      <trkpt lat="44.15167" lon="7.23854">
        <ele>2252.51</ele>
        <time>2012-10-21T12:22:50Z</time>
      </trkpt>
      <trkpt lat="44.15167" lon="7.23851">
        <ele>2252.51</ele>
        <time>2012-10-21T12:22:52Z</time>
      </trkpt>
      <trkpt lat="44.15167" lon="7.23839">
        <ele>2251.54</ele>
        <time>2012-10-21T12:22:59Z</time>
      </trkpt>
      <trkpt lat="44.15167" lon="7.23831">
        <ele>2252.03</ele>
        <time>2012-10-21T12:23:04Z</time>
      </trkpt>
      <trkpt lat="44.15168" lon="7.23816">
        <ele>2252.51</ele>
        <time>2012-10-21T12:23:17Z</time>
      </trkpt>
      <trkpt lat="44.15166" lon="7.23808">
        <ele>2250.1</ele>
        <time>2012-10-21T12:23:27Z</time>
      </trkpt>
      <trkpt lat="44.15162" lon="7.23798">
        <ele>2248.18</ele>
        <time>2012-10-21T12:23:36Z</time>
      </trkpt>
      <trkpt lat="44.1516" lon="7.23778">
        <ele>2246.26</ele>
        <time>2012-10-21T12:23:49Z</time>
      </trkpt>
      <trkpt lat="44.15161" lon="7.2377">
        <ele>2243.85</ele>
        <time>2012-10-21T12:23:55Z</time>
      </trkpt>
      <trkpt lat="44.15158" lon="7.23771">
        <ele>2242.89</ele>
        <time>2012-10-21T12:24:00Z</time>
      </trkpt>
      <trkpt lat="44.15152" lon="7.23778">
        <ele>2241.45</ele>
        <time>2012-10-21T12:24:11Z</time>
      </trkpt>
      <trkpt lat="44.1515" lon="7.2378">
        <ele>2241.93</ele>
        <time>2012-10-21T12:24:14Z</time>
      </trkpt>
      <trkpt lat="44.15144" lon="7.23786">
        <ele>2240.01</ele>
        <time>2012-10-21T12:24:21Z</time>
      </trkpt>
      <trkpt lat="44.15137" lon="7.23774">
        <ele>2238.09</ele>
        <time>2012-10-21T12:24:34Z</time>
      </trkpt>
      <trkpt lat="44.15135" lon="7.2377">
        <ele>2236.64</ele>
        <time>2012-10-21T12:24:37Z</time>
      </trkpt>
      <trkpt lat="44.15134" lon="7.23761">
        <ele>2237.13</ele>
        <time>2012-10-21T12:24:43Z</time>
      </trkpt>
      <trkpt lat="44.15132" lon="7.23758">
        <ele>2235.2</ele>
        <time>2012-10-21T12:24:51Z</time>
      </trkpt>
      <trkpt lat="44.15129" lon="7.23763">
        <ele>2235.2</ele>
        <time>2012-10-21T12:24:57Z</time>
      </trkpt>
      <trkpt lat="44.15122" lon="7.23772">
        <ele>2233.76</ele>
        <time>2012-10-21T12:25:08Z</time>
      </trkpt>
      <trkpt lat="44.15119" lon="7.23776">
        <ele>2234.24</ele>
        <time>2012-10-21T12:25:13Z</time>
      </trkpt>
      <trkpt lat="44.15116" lon="7.23782">
        <ele>2232.32</ele>
        <time>2012-10-21T12:25:20Z</time>
      </trkpt>
      <trkpt lat="44.15117" lon="7.23795">
        <ele>2230.88</ele>
        <time>2012-10-21T12:25:30Z</time>
      </trkpt>
      <trkpt lat="44.15116" lon="7.23799">
        <ele>2230.4</ele>
        <time>2012-10-21T12:25:37Z</time>
      </trkpt>
      <trkpt lat="44.15109" lon="7.23786">
        <ele>2228.95</ele>
        <time>2012-10-21T12:25:52Z</time>
      </trkpt>
      <trkpt lat="44.15105" lon="7.23781">
        <ele>2227.51</ele>
        <time>2012-10-21T12:25:58Z</time>
      </trkpt>
      <trkpt lat="44.15101" lon="7.23768">
        <ele>2226.07</ele>
        <time>2012-10-21T12:26:10Z</time>
      </trkpt>
      <trkpt lat="44.15101" lon="7.23766">
        <ele>2226.07</ele>
        <time>2012-10-21T12:26:11Z</time>
      </trkpt>
      <trkpt lat="44.15101" lon="7.23761">
        <ele>2226.07</ele>
        <time>2012-10-21T12:26:15Z</time>
      </trkpt>
      <trkpt lat="44.15101" lon="7.23753">
        <ele>2225.11</ele>
        <time>2012-10-21T12:26:23Z</time>
      </trkpt>
      <trkpt lat="44.15099" lon="7.23737">
        <ele>2223.67</ele>
        <time>2012-10-21T12:26:36Z</time>
      </trkpt>
      <trkpt lat="44.15097" lon="7.23732">
        <ele>2221.74</ele>
        <time>2012-10-21T12:26:46Z</time>
      </trkpt>
      <trkpt lat="44.15096" lon="7.23733">
        <ele>2221.74</ele>
        <time>2012-10-21T12:26:50Z</time>
      </trkpt>
      <trkpt lat="44.15093" lon="7.23741">
        <ele>2220.3</ele>
        <time>2012-10-21T12:27:00Z</time>
      </trkpt>
      <trkpt lat="44.15084" lon="7.23754">
        <ele>2218.86</ele>
        <time>2012-10-21T12:27:13Z</time>
      </trkpt>
      <trkpt lat="44.15077" lon="7.23754">
        <ele>2217.9</ele>
        <time>2012-10-21T12:27:22Z</time>
      </trkpt>
      <trkpt lat="44.15075" lon="7.23752">
        <ele>2216.94</ele>
        <time>2012-10-21T12:27:24Z</time>
      </trkpt>
      <trkpt lat="44.15075" lon="7.23744">
        <ele>2216.46</ele>
        <time>2012-10-21T12:27:31Z</time>
      </trkpt>
      <trkpt lat="44.15068" lon="7.23731">
        <ele>2214.53</ele>
        <time>2012-10-21T12:27:45Z</time>
      </trkpt>
      <trkpt lat="44.15064" lon="7.23723">
        <ele>2214.53</ele>
        <time>2012-10-21T12:27:59Z</time>
      </trkpt>
      <trkpt lat="44.15063" lon="7.23721">
        <ele>2213.09</ele>
        <time>2012-10-21T12:28:02Z</time>
      </trkpt>
      <trkpt lat="44.15061" lon="7.23717">
        <ele>2212.13</ele>
        <time>2012-10-21T12:28:06Z</time>
      </trkpt>
      <trkpt lat="44.15058" lon="7.23712">
        <ele>2211.65</ele>
        <time>2012-10-21T12:28:11Z</time>
      </trkpt>
      <trkpt lat="44.15055" lon="7.23697">
        <ele>2212.13</ele>
        <time>2012-10-21T12:28:22Z</time>
      </trkpt>
      <trkpt lat="44.15054" lon="7.23683">
        <ele>2210.21</ele>
        <time>2012-10-21T12:28:35Z</time>
      </trkpt>
      <trkpt lat="44.15055" lon="7.2367">
        <ele>2209.25</ele>
        <time>2012-10-21T12:28:43Z</time>
      </trkpt>
      <trkpt lat="44.15055" lon="7.23666">
        <ele>2207.81</ele>
        <time>2012-10-21T12:28:47Z</time>
      </trkpt>
      <trkpt lat="44.15053" lon="7.23648">
        <ele>2208.29</ele>
        <time>2012-10-21T12:28:59Z</time>
      </trkpt>
      <trkpt lat="44.15053" lon="7.23647">
        <ele>2208.77</ele>
        <time>2012-10-21T12:29:00Z</time>
      </trkpt>
      <trkpt lat="44.15049" lon="7.23642">
        <ele>2207.32</ele>
        <time>2012-10-21T12:29:07Z</time>
      </trkpt>
      <trkpt lat="44.15047" lon="7.2364">
        <ele>2208.29</ele>
        <time>2012-10-21T12:29:09Z</time>
      </trkpt>
      <trkpt lat="44.15044" lon="7.23638">
        <ele>2207.81</ele>
        <time>2012-10-21T12:29:12Z</time>
      </trkpt>
      <trkpt lat="44.15034" lon="7.23631">
        <ele>2207.32</ele>
        <time>2012-10-21T12:29:23Z</time>
      </trkpt>
      <trkpt lat="44.15025" lon="7.23626">
        <ele>2206.84</ele>
        <time>2012-10-21T12:29:35Z</time>
      </trkpt>
      <trkpt lat="44.15014" lon="7.23613">
        <ele>2205.4</ele>
        <time>2012-10-21T12:29:47Z</time>
      </trkpt>
      <trkpt lat="44.15013" lon="7.23612">
        <ele>2205.4</ele>
        <time>2012-10-21T12:29:48Z</time>
      </trkpt>
      <trkpt lat="44.15002" lon="7.23602">
        <ele>2203.96</ele>
        <time>2012-10-21T12:29:57Z</time>
      </trkpt>
      <trkpt lat="44.14999" lon="7.236">
        <ele>2203.96</ele>
        <time>2012-10-21T12:30:00Z</time>
      </trkpt>
      <trkpt lat="44.14991" lon="7.23595">
        <ele>2203.48</ele>
        <time>2012-10-21T12:30:07Z</time>
      </trkpt>
      <trkpt lat="44.14989" lon="7.23591">
        <ele>2203.48</ele>
        <time>2012-10-21T12:30:12Z</time>
      </trkpt>
      <trkpt lat="44.1498" lon="7.23588">
        <ele>2200.59</ele>
        <time>2012-10-21T12:30:21Z</time>
      </trkpt>
      <trkpt lat="44.14977" lon="7.23587">
        <ele>2201.56</ele>
        <time>2012-10-21T12:30:23Z</time>
      </trkpt>
      <trkpt lat="44.14965" lon="7.23577">
        <ele>2198.19</ele>
        <time>2012-10-21T12:30:36Z</time>
      </trkpt>
      <trkpt lat="44.14963" lon="7.23573">
        <ele>2197.71</ele>
        <time>2012-10-21T12:30:39Z</time>
      </trkpt>
      <trkpt lat="44.1496" lon="7.23567">
        <ele>2197.71</ele>
        <time>2012-10-21T12:30:43Z</time>
      </trkpt>
      <trkpt lat="44.14956" lon="7.23566">
        <ele>2197.23</ele>
        <time>2012-10-21T12:30:49Z</time>
      </trkpt>
      <trkpt lat="44.14948" lon="7.23563">
        <ele>2196.75</ele>
        <time>2012-10-21T12:30:53Z</time>
      </trkpt>
      <trkpt lat="44.14946" lon="7.23562">
        <ele>2195.31</ele>
        <time>2012-10-21T12:30:58Z</time>
      </trkpt>
      <trkpt lat="44.14943" lon="7.23565">
        <ele>2193.87</ele>
        <time>2012-10-21T12:31:06Z</time>
      </trkpt>
      <trkpt lat="44.14936" lon="7.2357">
        <ele>2193.39</ele>
        <time>2012-10-21T12:31:13Z</time>
      </trkpt>
      <trkpt lat="44.1493" lon="7.2357">
        <ele>2192.9</ele>
        <time>2012-10-21T12:31:16Z</time>
      </trkpt>
      <trkpt lat="44.14911" lon="7.23577">
        <ele>2191.94</ele>
        <time>2012-10-21T12:31:30Z</time>
      </trkpt>
      <trkpt lat="44.14906" lon="7.2358">
        <ele>2191.46</ele>
        <time>2012-10-21T12:31:34Z</time>
      </trkpt>
      <trkpt lat="44.14894" lon="7.23584">
        <ele>2189.06</ele>
        <time>2012-10-21T12:31:47Z</time>
      </trkpt>
      <trkpt lat="44.14888" lon="7.23589">
        <ele>2188.1</ele>
        <time>2012-10-21T12:31:53Z</time>
      </trkpt>
      <trkpt lat="44.14874" lon="7.236">
        <ele>2185.69</ele>
        <time>2012-10-21T12:32:06Z</time>
      </trkpt>
      <trkpt lat="44.14871" lon="7.23603">
        <ele>2184.25</ele>
        <time>2012-10-21T12:32:10Z</time>
      </trkpt>
      <trkpt lat="44.1486" lon="7.23611">
        <ele>2182.81</ele>
        <time>2012-10-21T12:32:22Z</time>
      </trkpt>
      <trkpt lat="44.14853" lon="7.23612">
        <ele>2181.85</ele>
        <time>2012-10-21T12:32:29Z</time>
      </trkpt>
      <trkpt lat="44.14844" lon="7.23614">
        <ele>2180.41</ele>
        <time>2012-10-21T12:32:40Z</time>
      </trkpt>
      <trkpt lat="44.14838" lon="7.23616">
        <ele>2177.52</ele>
        <time>2012-10-21T12:32:51Z</time>
      </trkpt>
      <trkpt lat="44.14833" lon="7.23618">
        <ele>2175.6</ele>
        <time>2012-10-21T12:32:57Z</time>
      </trkpt>
      <trkpt lat="44.14832" lon="7.23618">
        <ele>2175.6</ele>
        <time>2012-10-21T12:32:58Z</time>
      </trkpt>
      <trkpt lat="44.14826" lon="7.23618">
        <ele>2174.64</ele>
        <time>2012-10-21T12:33:04Z</time>
      </trkpt>
      <trkpt lat="44.14822" lon="7.2362">
        <ele>2174.16</ele>
        <time>2012-10-21T12:33:07Z</time>
      </trkpt>
      <trkpt lat="44.14806" lon="7.23617">
        <ele>2172.24</ele>
        <time>2012-10-21T12:33:21Z</time>
      </trkpt>
      <trkpt lat="44.14794" lon="7.23612">
        <ele>2170.31</ele>
        <time>2012-10-21T12:33:33Z</time>
      </trkpt>
      <trkpt lat="44.14792" lon="7.23612">
        <ele>2170.31</ele>
        <time>2012-10-21T12:33:35Z</time>
      </trkpt>
      <trkpt lat="44.14783" lon="7.23612">
        <ele>2167.91</ele>
        <time>2012-10-21T12:33:48Z</time>
      </trkpt>
      <trkpt lat="44.1477" lon="7.23605">
        <ele>2165.99</ele>
        <time>2012-10-21T12:33:58Z</time>
      </trkpt>
      <trkpt lat="44.14763" lon="7.23603">
        <ele>2165.99</ele>
        <time>2012-10-21T12:34:05Z</time>
      </trkpt>
      <trkpt lat="44.14761" lon="7.23599">
        <ele>2164.55</ele>
        <time>2012-10-21T12:34:08Z</time>
      </trkpt>
      <trkpt lat="44.14756" lon="7.23598">
        <ele>2164.06</ele>
        <time>2012-10-21T12:34:13Z</time>
      </trkpt>
      <trkpt lat="44.14752" lon="7.236">
        <ele>2162.62</ele>
        <time>2012-10-21T12:34:18Z</time>
      </trkpt>
      <trkpt lat="44.14749" lon="7.23601">
        <ele>2162.62</ele>
        <time>2012-10-21T12:34:20Z</time>
      </trkpt>
      <trkpt lat="44.14741" lon="7.23602">
        <ele>2160.22</ele>
        <time>2012-10-21T12:34:31Z</time>
      </trkpt>
      <trkpt lat="44.14736" lon="7.23602">
        <ele>2159.74</ele>
        <time>2012-10-21T12:34:34Z</time>
      </trkpt>
      <trkpt lat="44.1473" lon="7.23604">
        <ele>2159.74</ele>
        <time>2012-10-21T12:34:37Z</time>
      </trkpt>
      <trkpt lat="44.14718" lon="7.23608">
        <ele>2158.78</ele>
        <time>2012-10-21T12:34:49Z</time>
      </trkpt>
      <trkpt lat="44.14715" lon="7.23608">
        <ele>2158.3</ele>
        <time>2012-10-21T12:34:51Z</time>
      </trkpt>
      <trkpt lat="44.14712" lon="7.23609">
        <ele>2157.34</ele>
        <time>2012-10-21T12:34:53Z</time>
      </trkpt>
      <trkpt lat="44.1471" lon="7.23609">
        <ele>2158.3</ele>
        <time>2012-10-21T12:34:55Z</time>
      </trkpt>
      <trkpt lat="44.14704" lon="7.23608">
        <ele>2157.34</ele>
        <time>2012-10-21T12:35:00Z</time>
      </trkpt>
      <trkpt lat="44.14697" lon="7.23612">
        <ele>2156.86</ele>
        <time>2012-10-21T12:35:05Z</time>
      </trkpt>
      <trkpt lat="44.14689" lon="7.23618">
        <ele>2156.86</ele>
        <time>2012-10-21T12:35:12Z</time>
      </trkpt>
      <trkpt lat="44.14673" lon="7.23619">
        <ele>2156.86</ele>
        <time>2012-10-21T12:35:28Z</time>
      </trkpt>
      <trkpt lat="44.14671" lon="7.23619">
        <ele>2156.86</ele>
        <time>2012-10-21T12:35:30Z</time>
      </trkpt>
      <trkpt lat="44.14659" lon="7.23613">
        <ele>2155.89</ele>
        <time>2012-10-21T12:35:43Z</time>
      </trkpt>
      <trkpt lat="44.1465" lon="7.23608">
        <ele>2154.93</ele>
        <time>2012-10-21T12:35:50Z</time>
      </trkpt>
      <trkpt lat="44.14647" lon="7.23605">
        <ele>2153.97</ele>
        <time>2012-10-21T12:35:53Z</time>
      </trkpt>
      <trkpt lat="44.14643" lon="7.23603">
        <ele>2153.49</ele>
        <time>2012-10-21T12:35:56Z</time>
      </trkpt>
      <trkpt lat="44.1464" lon="7.23587">
        <ele>2150.61</ele>
        <time>2012-10-21T12:36:07Z</time>
      </trkpt>
      <trkpt lat="44.1464" lon="7.23585">
        <ele>2150.61</ele>
        <time>2012-10-21T12:36:09Z</time>
      </trkpt>
      <trkpt lat="44.14641" lon="7.23577">
        <ele>2150.61</ele>
        <time>2012-10-21T12:36:14Z</time>
      </trkpt>
      <trkpt lat="44.1464" lon="7.23573">
        <ele>2149.16</ele>
        <time>2012-10-21T12:36:17Z</time>
      </trkpt>
      <trkpt lat="44.1464" lon="7.23558">
        <ele>2148.2</ele>
        <time>2012-10-21T12:36:27Z</time>
      </trkpt>
      <trkpt lat="44.14642" lon="7.23549">
        <ele>2145.8</ele>
        <time>2012-10-21T12:36:33Z</time>
      </trkpt>
      <trkpt lat="44.14648" lon="7.23542">
        <ele>2145.32</ele>
        <time>2012-10-21T12:36:40Z</time>
      </trkpt>
      <trkpt lat="44.14651" lon="7.23542">
        <ele>2145.32</ele>
        <time>2012-10-21T12:36:43Z</time>
      </trkpt>
      <trkpt lat="44.14655" lon="7.23537">
        <ele>2143.4</ele>
        <time>2012-10-21T12:36:49Z</time>
      </trkpt>
      <trkpt lat="44.14663" lon="7.23529">
        <ele>2140.51</ele>
        <time>2012-10-21T12:37:02Z</time>
      </trkpt>
      <trkpt lat="44.14664" lon="7.23527">
        <ele>2139.55</ele>
        <time>2012-10-21T12:37:04Z</time>
      </trkpt>
      <trkpt lat="44.14666" lon="7.23525">
        <ele>2139.55</ele>
        <time>2012-10-21T12:37:06Z</time>
      </trkpt>
      <trkpt lat="44.1467" lon="7.2352">
        <ele>2138.11</ele>
        <time>2012-10-21T12:37:10Z</time>
      </trkpt>
      <trkpt lat="44.14673" lon="7.23516">
        <ele>2137.63</ele>
        <time>2012-10-21T12:37:15Z</time>
      </trkpt>
      <trkpt lat="44.14674" lon="7.23514">
        <ele>2137.63</ele>
        <time>2012-10-21T12:37:17Z</time>
      </trkpt>
      <trkpt lat="44.14676" lon="7.23509">
        <ele>2136.67</ele>
        <time>2012-10-21T12:37:23Z</time>
      </trkpt>
      <trkpt lat="44.14678" lon="7.23493">
        <ele>2132.82</ele>
        <time>2012-10-21T12:37:37Z</time>
      </trkpt>
      <trkpt lat="44.14679" lon="7.23486">
        <ele>2130.42</ele>
        <time>2012-10-21T12:37:46Z</time>
      </trkpt>
      <trkpt lat="44.1468" lon="7.2348">
        <ele>2128.5</ele>
        <time>2012-10-21T12:37:51Z</time>
      </trkpt>
      <trkpt lat="44.1468" lon="7.23464">
        <ele>2125.61</ele>
        <time>2012-10-21T12:38:05Z</time>
      </trkpt>
      <trkpt lat="44.14678" lon="7.23461">
        <ele>2125.13</ele>
        <time>2012-10-21T12:38:08Z</time>
      </trkpt>
      <trkpt lat="44.14676" lon="7.23462">
        <ele>2124.65</ele>
        <time>2012-10-21T12:38:13Z</time>
      </trkpt>
      <trkpt lat="44.14667" lon="7.23461">
        <ele>2120.81</ele>
        <time>2012-10-21T12:38:26Z</time>
      </trkpt>
      <trkpt lat="44.14664" lon="7.23455">
        <ele>2118.88</ele>
        <time>2012-10-21T12:38:33Z</time>
      </trkpt>
      <trkpt lat="44.14661" lon="7.23453">
        <ele>2117.44</ele>
        <time>2012-10-21T12:38:45Z</time>
      </trkpt>
      <trkpt lat="44.14656" lon="7.23445">
        <ele>2114.56</ele>
        <time>2012-10-21T12:38:55Z</time>
      </trkpt>
      <trkpt lat="44.14652" lon="7.23444">
        <ele>2113.6</ele>
        <time>2012-10-21T12:39:05Z</time>
      </trkpt>
      <trkpt lat="44.14645" lon="7.2344">
        <ele>2112.63</ele>
        <time>2012-10-21T12:39:15Z</time>
      </trkpt>
      <trkpt lat="44.1464" lon="7.23438">
        <ele>2111.19</ele>
        <time>2012-10-21T12:39:20Z</time>
      </trkpt>
      <trkpt lat="44.14638" lon="7.23431">
        <ele>2108.79</ele>
        <time>2012-10-21T12:39:26Z</time>
      </trkpt>
      <trkpt lat="44.14637" lon="7.2342">
        <ele>2106.87</ele>
        <time>2012-10-21T12:39:37Z</time>
      </trkpt>
      <trkpt lat="44.14633" lon="7.23418">
        <ele>2105.42</ele>
        <time>2012-10-21T12:39:42Z</time>
      </trkpt>
      <trkpt lat="44.1463" lon="7.23414">
        <ele>2104.94</ele>
        <time>2012-10-21T12:39:47Z</time>
      </trkpt>
      <trkpt lat="44.1463" lon="7.23408">
        <ele>2103.5</ele>
        <time>2012-10-21T12:39:54Z</time>
      </trkpt>
      <trkpt lat="44.14617" lon="7.23401">
        <ele>2099.18</ele>
        <time>2012-10-21T12:40:07Z</time>
      </trkpt>
      <trkpt lat="44.14616" lon="7.23401">
        <ele>2099.66</ele>
        <time>2012-10-21T12:40:10Z</time>
      </trkpt>
      <trkpt lat="44.14612" lon="7.23395">
        <ele>2097.73</ele>
        <time>2012-10-21T12:40:17Z</time>
      </trkpt>
      <trkpt lat="44.14608" lon="7.23392">
        <ele>2096.77</ele>
        <time>2012-10-21T12:40:21Z</time>
      </trkpt>
      <trkpt lat="44.14602" lon="7.23385">
        <ele>2094.85</ele>
        <time>2012-10-21T12:40:29Z</time>
      </trkpt>
      <trkpt lat="44.14593" lon="7.23381">
        <ele>2093.41</ele>
        <time>2012-10-21T12:40:39Z</time>
      </trkpt>
      <trkpt lat="44.14588" lon="7.23381">
        <ele>2091.49</ele>
        <time>2012-10-21T12:40:43Z</time>
      </trkpt>
      <trkpt lat="44.14578" lon="7.23377">
        <ele>2089.56</ele>
        <time>2012-10-21T12:40:56Z</time>
      </trkpt>
      <trkpt lat="44.14574" lon="7.23376">
        <ele>2089.08</ele>
        <time>2012-10-21T12:40:59Z</time>
      </trkpt>
      <trkpt lat="44.14572" lon="7.23372">
        <ele>2089.08</ele>
        <time>2012-10-21T12:41:02Z</time>
      </trkpt>
      <trkpt lat="44.14564" lon="7.23372">
        <ele>2085.24</ele>
        <time>2012-10-21T12:41:13Z</time>
      </trkpt>
      <trkpt lat="44.14563" lon="7.23372">
        <ele>2085.24</ele>
        <time>2012-10-21T12:41:14Z</time>
      </trkpt>
      <trkpt lat="44.14559" lon="7.23371">
        <ele>2085.72</ele>
        <time>2012-10-21T12:41:18Z</time>
      </trkpt>
      <trkpt lat="44.14545" lon="7.23369">
        <ele>2082.35</ele>
        <time>2012-10-21T12:41:30Z</time>
      </trkpt>
      <trkpt lat="44.14536" lon="7.2337">
        <ele>2080.43</ele>
        <time>2012-10-21T12:41:41Z</time>
      </trkpt>
      <trkpt lat="44.14531" lon="7.23372">
        <ele>2079.47</ele>
        <time>2012-10-21T12:41:48Z</time>
      </trkpt>
      <trkpt lat="44.14529" lon="7.23373">
        <ele>2078.51</ele>
        <time>2012-10-21T12:41:53Z</time>
      </trkpt>
      <trkpt lat="44.14527" lon="7.23372">
        <ele>2077.55</ele>
        <time>2012-10-21T12:42:12Z</time>
      </trkpt>
      <trkpt lat="44.14527" lon="7.23371">
        <ele>2077.55</ele>
        <time>2012-10-21T12:42:48Z</time>
      </trkpt>
      <trkpt lat="44.14528" lon="7.23371">
        <ele>2077.07</ele>
        <time>2012-10-21T12:45:01Z</time>
      </trkpt>
      <trkpt lat="44.14527" lon="7.23371">
        <ele>2077.55</ele>
        <time>2012-10-21T12:46:08Z</time>
      </trkpt>
      <trkpt lat="44.14526" lon="7.23371">
        <ele>2077.07</ele>
        <time>2012-10-21T12:47:27Z</time>
      </trkpt>
      <trkpt lat="44.14519" lon="7.23381">
        <ele>2077.55</ele>
        <time>2012-10-21T12:47:38Z</time>
      </trkpt>
      <trkpt lat="44.14513" lon="7.23394">
        <ele>2077.07</ele>
        <time>2012-10-21T12:47:50Z</time>
      </trkpt>
      <trkpt lat="44.14513" lon="7.23396">
        <ele>2077.07</ele>
        <time>2012-10-21T12:47:52Z</time>
      </trkpt>
      <trkpt lat="44.14505" lon="7.23406">
        <ele>2077.07</ele>
        <time>2012-10-21T12:48:07Z</time>
      </trkpt>
      <trkpt lat="44.14499" lon="7.23412">
        <ele>2076.59</ele>
        <time>2012-10-21T12:48:16Z</time>
      </trkpt>
      <trkpt lat="44.1449" lon="7.23422">
        <ele>2076.1</ele>
        <time>2012-10-21T12:48:28Z</time>
      </trkpt>
      <trkpt lat="44.14488" lon="7.23435">
        <ele>2075.62</ele>
        <time>2012-10-21T12:48:37Z</time>
      </trkpt>
      <trkpt lat="44.14485" lon="7.23446">
        <ele>2075.62</ele>
        <time>2012-10-21T12:48:46Z</time>
      </trkpt>
      <trkpt lat="44.14484" lon="7.23455">
        <ele>2074.66</ele>
        <time>2012-10-21T12:48:55Z</time>
      </trkpt>
      <trkpt lat="44.14479" lon="7.2346">
        <ele>2074.18</ele>
        <time>2012-10-21T12:49:02Z</time>
      </trkpt>
      <trkpt lat="44.14475" lon="7.23467">
        <ele>2075.14</ele>
        <time>2012-10-21T12:49:10Z</time>
      </trkpt>
      <trkpt lat="44.1447" lon="7.23467">
        <ele>2075.14</ele>
        <time>2012-10-21T12:49:17Z</time>
      </trkpt>
      <trkpt lat="44.14468" lon="7.23467">
        <ele>2075.62</ele>
        <time>2012-10-21T12:49:20Z</time>
      </trkpt>
      <trkpt lat="44.14463" lon="7.23466">
        <ele>2077.07</ele>
        <time>2012-10-21T12:49:27Z</time>
      </trkpt>
      <trkpt lat="44.14461" lon="7.23463">
        <ele>2076.59</ele>
        <time>2012-10-21T12:49:31Z</time>
      </trkpt>
      <trkpt lat="44.14448" lon="7.23456">
        <ele>2078.03</ele>
        <time>2012-10-21T12:49:43Z</time>
      </trkpt>
      <trkpt lat="44.14447" lon="7.23454">
        <ele>2078.03</ele>
        <time>2012-10-21T12:49:45Z</time>
      </trkpt>
      <trkpt lat="44.14432" lon="7.23456">
        <ele>2076.1</ele>
        <time>2012-10-21T12:50:00Z</time>
      </trkpt>
      <trkpt lat="44.14419" lon="7.23458">
        <ele>2074.18</ele>
        <time>2012-10-21T12:50:13Z</time>
      </trkpt>
      <trkpt lat="44.14409" lon="7.23463">
        <ele>2073.7</ele>
        <time>2012-10-21T12:50:23Z</time>
      </trkpt>
      <trkpt lat="44.14405" lon="7.23468">
        <ele>2074.18</ele>
        <time>2012-10-21T12:50:28Z</time>
      </trkpt>
      <trkpt lat="44.14396" lon="7.23469">
        <ele>2074.18</ele>
        <time>2012-10-21T12:50:34Z</time>
      </trkpt>
      <trkpt lat="44.14388" lon="7.23476">
        <ele>2073.22</ele>
        <time>2012-10-21T12:50:45Z</time>
      </trkpt>
      <trkpt lat="44.14383" lon="7.23476">
        <ele>2073.7</ele>
        <time>2012-10-21T12:50:49Z</time>
      </trkpt>
      <trkpt lat="44.14379" lon="7.23477">
        <ele>2073.7</ele>
        <time>2012-10-21T12:50:52Z</time>
      </trkpt>
      <trkpt lat="44.14363" lon="7.23484">
        <ele>2072.74</ele>
        <time>2012-10-21T12:51:05Z</time>
      </trkpt>
      <trkpt lat="44.14356" lon="7.2349">
        <ele>2073.22</ele>
        <time>2012-10-21T12:51:12Z</time>
      </trkpt>
      <trkpt lat="44.14346" lon="7.23496">
        <ele>2072.74</ele>
        <time>2012-10-21T12:51:21Z</time>
      </trkpt>
      <trkpt lat="44.14335" lon="7.23508">
        <ele>2072.26</ele>
        <time>2012-10-21T12:51:33Z</time>
      </trkpt>
      <trkpt lat="44.14327" lon="7.23514">
        <ele>2070.82</ele>
        <time>2012-10-21T12:51:42Z</time>
      </trkpt>
      <trkpt lat="44.14321" lon="7.23522">
        <ele>2070.82</ele>
        <time>2012-10-21T12:51:48Z</time>
      </trkpt>
      <trkpt lat="44.1431" lon="7.23525">
        <ele>2069.86</ele>
        <time>2012-10-21T12:51:58Z</time>
      </trkpt>
      <trkpt lat="44.14304" lon="7.23528">
        <ele>2069.86</ele>
        <time>2012-10-21T12:52:03Z</time>
      </trkpt>
      <trkpt lat="44.143" lon="7.23527">
        <ele>2069.86</ele>
        <time>2012-10-21T12:52:07Z</time>
      </trkpt>
      <trkpt lat="44.14284" lon="7.2353">
        <ele>2067.45</ele>
        <time>2012-10-21T12:52:21Z</time>
      </trkpt>
      <trkpt lat="44.14271" lon="7.23527">
        <ele>2066.49</ele>
        <time>2012-10-21T12:52:35Z</time>
      </trkpt>
      <trkpt lat="44.14264" lon="7.23528">
        <ele>2066.01</ele>
        <time>2012-10-21T12:52:43Z</time>
      </trkpt>
      <trkpt lat="44.14252" lon="7.23527">
        <ele>2063.61</ele>
        <time>2012-10-21T12:52:55Z</time>
      </trkpt>
      <trkpt lat="44.14249" lon="7.23525">
        <ele>2063.61</ele>
        <time>2012-10-21T12:52:59Z</time>
      </trkpt>
      <trkpt lat="44.14242" lon="7.23525">
        <ele>2063.13</ele>
        <time>2012-10-21T12:53:04Z</time>
      </trkpt>
      <trkpt lat="44.14234" lon="7.23518">
        <ele>2061.68</ele>
        <time>2012-10-21T12:53:11Z</time>
      </trkpt>
      <trkpt lat="44.14219" lon="7.23512">
        <ele>2060.24</ele>
        <time>2012-10-21T12:53:23Z</time>
      </trkpt>
      <trkpt lat="44.1421" lon="7.23502">
        <ele>2058.32</ele>
        <time>2012-10-21T12:53:33Z</time>
      </trkpt>
      <trkpt lat="44.14208" lon="7.235">
        <ele>2059.28</ele>
        <time>2012-10-21T12:53:35Z</time>
      </trkpt>
      <trkpt lat="44.14197" lon="7.23493">
        <ele>2059.28</ele>
        <time>2012-10-21T12:53:44Z</time>
      </trkpt>
      <trkpt lat="44.14195" lon="7.23492">
        <ele>2059.76</ele>
        <time>2012-10-21T12:53:46Z</time>
      </trkpt>
      <trkpt lat="44.14186" lon="7.23489">
        <ele>2060.24</ele>
        <time>2012-10-21T12:53:53Z</time>
      </trkpt>
      <trkpt lat="44.1417" lon="7.23486">
        <ele>2060.24</ele>
        <time>2012-10-21T12:54:05Z</time>
      </trkpt>
      <trkpt lat="44.14164" lon="7.23487">
        <ele>2060.72</ele>
        <time>2012-10-21T12:54:10Z</time>
      </trkpt>
      <trkpt lat="44.14147" lon="7.2349">
        <ele>2058.8</ele>
        <time>2012-10-21T12:54:21Z</time>
      </trkpt>
      <trkpt lat="44.14135" lon="7.2349">
        <ele>2057.36</ele>
        <time>2012-10-21T12:54:32Z</time>
      </trkpt>
      <trkpt lat="44.1412" lon="7.23491">
        <ele>2056.88</ele>
        <time>2012-10-21T12:54:44Z</time>
      </trkpt>
      <trkpt lat="44.14111" lon="7.23491">
        <ele>2055.44</ele>
        <time>2012-10-21T12:54:52Z</time>
      </trkpt>
      <trkpt lat="44.14101" lon="7.23482">
        <ele>2054.96</ele>
        <time>2012-10-21T12:55:02Z</time>
      </trkpt>
      <trkpt lat="44.14101" lon="7.23468">
        <ele>2053.51</ele>
        <time>2012-10-21T12:55:14Z</time>
      </trkpt>
      <trkpt lat="44.14098" lon="7.23464">
        <ele>2052.07</ele>
        <time>2012-10-21T12:55:17Z</time>
      </trkpt>
      <trkpt lat="44.14097" lon="7.23463">
        <ele>2052.55</ele>
        <time>2012-10-21T12:55:18Z</time>
      </trkpt>
      <trkpt lat="44.14088" lon="7.23459">
        <ele>2051.59</ele>
        <time>2012-10-21T12:55:25Z</time>
      </trkpt>
      <trkpt lat="44.14084" lon="7.2345">
        <ele>2051.11</ele>
        <time>2012-10-21T12:55:31Z</time>
      </trkpt>
      <trkpt lat="44.14083" lon="7.23447">
        <ele>2050.63</ele>
        <time>2012-10-21T12:55:33Z</time>
      </trkpt>
      <trkpt lat="44.14079" lon="7.23433">
        <ele>2049.67</ele>
        <time>2012-10-21T12:55:42Z</time>
      </trkpt>
      <trkpt lat="44.14078" lon="7.23427">
        <ele>2048.71</ele>
        <time>2012-10-21T12:55:46Z</time>
      </trkpt>
      <trkpt lat="44.1407" lon="7.23414">
        <ele>2047.75</ele>
        <time>2012-10-21T12:55:56Z</time>
      </trkpt>
      <trkpt lat="44.14065" lon="7.23408">
        <ele>2045.34</ele>
        <time>2012-10-21T12:56:02Z</time>
      </trkpt>
      <trkpt lat="44.14061" lon="7.23401">
        <ele>2045.34</ele>
        <time>2012-10-21T12:56:07Z</time>
      </trkpt>
      <trkpt lat="44.14059" lon="7.23394">
        <ele>2043.9</ele>
        <time>2012-10-21T12:56:13Z</time>
      </trkpt>
      <trkpt lat="44.14054" lon="7.23387">
        <ele>2042.46</ele>
        <time>2012-10-21T12:56:19Z</time>
      </trkpt>
      <trkpt lat="44.14054" lon="7.23383">
        <ele>2042.94</ele>
        <time>2012-10-21T12:56:22Z</time>
      </trkpt>
      <trkpt lat="44.14047" lon="7.23363">
        <ele>2041.02</ele>
        <time>2012-10-21T12:56:35Z</time>
      </trkpt>
      <trkpt lat="44.14044" lon="7.23345">
        <ele>2040.54</ele>
        <time>2012-10-21T12:56:47Z</time>
      </trkpt>
      <trkpt lat="44.14042" lon="7.23344">
        <ele>2040.54</ele>
        <time>2012-10-21T12:56:48Z</time>
      </trkpt>
      <trkpt lat="44.14032" lon="7.23343">
        <ele>2038.13</ele>
        <time>2012-10-21T12:56:59Z</time>
      </trkpt>
      <trkpt lat="44.14016" lon="7.23344">
        <ele>2038.13</ele>
        <time>2012-10-21T12:57:08Z</time>
      </trkpt>
      <trkpt lat="44.14012" lon="7.23352">
        <ele>2038.61</ele>
        <time>2012-10-21T12:57:15Z</time>
      </trkpt>
      <trkpt lat="44.14007" lon="7.2336">
        <ele>2040.05</ele>
        <time>2012-10-21T12:57:21Z</time>
      </trkpt>
      <trkpt lat="44.13996" lon="7.2337">
        <ele>2041.02</ele>
        <time>2012-10-21T12:57:33Z</time>
      </trkpt>
      <trkpt lat="44.1399" lon="7.23381">
        <ele>2041.02</ele>
        <time>2012-10-21T12:57:44Z</time>
      </trkpt>
      <trkpt lat="44.13987" lon="7.23387">
        <ele>2040.05</ele>
        <time>2012-10-21T12:57:47Z</time>
      </trkpt>
      <trkpt lat="44.13987" lon="7.23388">
        <ele>2040.54</ele>
        <time>2012-10-21T12:57:48Z</time>
      </trkpt>
      <trkpt lat="44.13979" lon="7.23402">
        <ele>2039.57</ele>
        <time>2012-10-21T12:57:58Z</time>
      </trkpt>
      <trkpt lat="44.13969" lon="7.23414">
        <ele>2039.57</ele>
        <time>2012-10-21T12:58:07Z</time>
      </trkpt>
      <trkpt lat="44.13957" lon="7.23427">
        <ele>2039.09</ele>
        <time>2012-10-21T12:58:20Z</time>
      </trkpt>
      <trkpt lat="44.13945" lon="7.23441">
        <ele>2038.13</ele>
        <time>2012-10-21T12:58:32Z</time>
      </trkpt>
      <trkpt lat="44.1394" lon="7.23448">
        <ele>2038.61</ele>
        <time>2012-10-21T12:58:38Z</time>
      </trkpt>
      <trkpt lat="44.13933" lon="7.23457">
        <ele>2039.57</ele>
        <time>2012-10-21T12:58:46Z</time>
      </trkpt>
      <trkpt lat="44.13927" lon="7.23466">
        <ele>2040.05</ele>
        <time>2012-10-21T12:58:53Z</time>
      </trkpt>
      <trkpt lat="44.13922" lon="7.23471">
        <ele>2040.05</ele>
        <time>2012-10-21T12:58:58Z</time>
      </trkpt>
      <trkpt lat="44.13909" lon="7.23482">
        <ele>2041.5</ele>
        <time>2012-10-21T12:59:11Z</time>
      </trkpt>
      <trkpt lat="44.13907" lon="7.23484">
        <ele>2041.98</ele>
        <time>2012-10-21T12:59:13Z</time>
      </trkpt>
      <trkpt lat="44.13893" lon="7.23484">
        <ele>2042.94</ele>
        <time>2012-10-21T12:59:27Z</time>
      </trkpt>
      <trkpt lat="44.13889" lon="7.23485">
        <ele>2042.46</ele>
        <time>2012-10-21T12:59:30Z</time>
      </trkpt>
      <trkpt lat="44.13876" lon="7.23483">
        <ele>2043.42</ele>
        <time>2012-10-21T12:59:42Z</time>
      </trkpt>
      <trkpt lat="44.13864" lon="7.23488">
        <ele>2044.38</ele>
        <time>2012-10-21T12:59:54Z</time>
      </trkpt>
      <trkpt lat="44.1386" lon="7.23492">
        <ele>2045.34</ele>
        <time>2012-10-21T12:59:59Z</time>
      </trkpt>
      <trkpt lat="44.13856" lon="7.235">
        <ele>2046.3</ele>
        <time>2012-10-21T13:00:05Z</time>
      </trkpt>
      <trkpt lat="44.1385" lon="7.23517">
        <ele>2046.3</ele>
        <time>2012-10-21T13:00:17Z</time>
      </trkpt>
      <trkpt lat="44.13843" lon="7.23533">
        <ele>2048.23</ele>
        <time>2012-10-21T13:00:30Z</time>
      </trkpt>
      <trkpt lat="44.13834" lon="7.23547">
        <ele>2048.71</ele>
        <time>2012-10-21T13:00:43Z</time>
      </trkpt>
      <trkpt lat="44.13824" lon="7.23558">
        <ele>2050.15</ele>
        <time>2012-10-21T13:00:55Z</time>
      </trkpt>
      <trkpt lat="44.13822" lon="7.23561">
        <ele>2050.15</ele>
        <time>2012-10-21T13:00:58Z</time>
      </trkpt>
      <trkpt lat="44.13821" lon="7.23563">
        <ele>2050.63</ele>
        <time>2012-10-21T13:01:00Z</time>
      </trkpt>
      <trkpt lat="44.13806" lon="7.23576">
        <ele>2050.63</ele>
        <time>2012-10-21T13:01:15Z</time>
      </trkpt>
      <trkpt lat="44.13796" lon="7.2358">
        <ele>2052.55</ele>
        <time>2012-10-21T13:01:27Z</time>
      </trkpt>
      <trkpt lat="44.13789" lon="7.2358">
        <ele>2052.55</ele>
        <time>2012-10-21T13:01:34Z</time>
      </trkpt>
      <trkpt lat="44.13783" lon="7.2358">
        <ele>2052.55</ele>
        <time>2012-10-21T13:01:39Z</time>
      </trkpt>
      <trkpt lat="44.1378" lon="7.23577">
        <ele>2052.55</ele>
        <time>2012-10-21T13:01:41Z</time>
      </trkpt>
      <trkpt lat="44.13769" lon="7.23573">
        <ele>2053.03</ele>
        <time>2012-10-21T13:01:52Z</time>
      </trkpt>
      <trkpt lat="44.13765" lon="7.23571">
        <ele>2053.03</ele>
        <time>2012-10-21T13:01:56Z</time>
      </trkpt>
      <trkpt lat="44.13756" lon="7.23572">
        <ele>2053.51</ele>
        <time>2012-10-21T13:02:09Z</time>
      </trkpt>
      <trkpt lat="44.13756" lon="7.23572">
        <ele>2053.51</ele>
        <time>2012-10-21T13:02:36Z</time>
      </trkpt>
      <trkpt lat="44.13752" lon="7.2357">
        <ele>2052.07</ele>
        <time>2012-10-21T13:03:15Z</time>
      </trkpt>
      <trkpt lat="44.13745" lon="7.23564">
        <ele>2049.19</ele>
        <time>2012-10-21T13:03:26Z</time>
      </trkpt>
      <trkpt lat="44.13742" lon="7.23561">
        <ele>2046.78</ele>
        <time>2012-10-21T13:03:34Z</time>
      </trkpt>
      <trkpt lat="44.1374" lon="7.23557">
        <ele>2046.3</ele>
        <time>2012-10-21T13:03:39Z</time>
      </trkpt>
      <trkpt lat="44.13738" lon="7.2356">
        <ele>2043.9</ele>
        <time>2012-10-21T13:03:42Z</time>
      </trkpt>
      <trkpt lat="44.13736" lon="7.23559">
        <ele>2043.9</ele>
        <time>2012-10-21T13:03:44Z</time>
      </trkpt>
      <trkpt lat="44.13735" lon="7.2356">
        <ele>2043.42</ele>
        <time>2012-10-21T13:03:46Z</time>
      </trkpt>
      <trkpt lat="44.13733" lon="7.23562">
        <ele>2042.94</ele>
        <time>2012-10-21T13:03:49Z</time>
      </trkpt>
      <trkpt lat="44.1373" lon="7.2356">
        <ele>2041.5</ele>
        <time>2012-10-21T13:03:52Z</time>
      </trkpt>
      <trkpt lat="44.13727" lon="7.23558">
        <ele>2041.5</ele>
        <time>2012-10-21T13:03:56Z</time>
      </trkpt>
      <trkpt lat="44.13723" lon="7.23557">
        <ele>2039.57</ele>
        <time>2012-10-21T13:04:03Z</time>
      </trkpt>
      <trkpt lat="44.13722" lon="7.23554">
        <ele>2039.09</ele>
        <time>2012-10-21T13:04:07Z</time>
      </trkpt>
      <trkpt lat="44.13724" lon="7.23549">
        <ele>2038.13</ele>
        <time>2012-10-21T13:04:12Z</time>
      </trkpt>
      <trkpt lat="44.13723" lon="7.23547">
        <ele>2034.77</ele>
        <time>2012-10-21T13:04:24Z</time>
      </trkpt>
      <trkpt lat="44.13718" lon="7.23546">
        <ele>2033.81</ele>
        <time>2012-10-21T13:04:30Z</time>
      </trkpt>
      <trkpt lat="44.13713" lon="7.23549">
        <ele>2030.92</ele>
        <time>2012-10-21T13:04:39Z</time>
      </trkpt>
      <trkpt lat="44.13708" lon="7.23549">
        <ele>2029.48</ele>
        <time>2012-10-21T13:04:42Z</time>
      </trkpt>
      <trkpt lat="44.13707" lon="7.2355">
        <ele>2029.48</ele>
        <time>2012-10-21T13:04:43Z</time>
      </trkpt>
      <trkpt lat="44.13703" lon="7.2355">
        <ele>2028.52</ele>
        <time>2012-10-21T13:04:46Z</time>
      </trkpt>
      <trkpt lat="44.13696" lon="7.23553">
        <ele>2025.64</ele>
        <time>2012-10-21T13:04:58Z</time>
      </trkpt>
      <trkpt lat="44.13695" lon="7.23554">
        <ele>2025.64</ele>
        <time>2012-10-21T13:05:00Z</time>
      </trkpt>
      <trkpt lat="44.13691" lon="7.23557">
        <ele>2023.71</ele>
        <time>2012-10-21T13:05:06Z</time>
      </trkpt>
      <trkpt lat="44.13687" lon="7.23555">
        <ele>2021.79</ele>
        <time>2012-10-21T13:05:09Z</time>
      </trkpt>
      <trkpt lat="44.13685" lon="7.23557">
        <ele>2021.31</ele>
        <time>2012-10-21T13:05:12Z</time>
      </trkpt>
      <trkpt lat="44.13683" lon="7.23557">
        <ele>2021.79</ele>
        <time>2012-10-21T13:05:14Z</time>
      </trkpt>
      <trkpt lat="44.13676" lon="7.23564">
        <ele>2018.91</ele>
        <time>2012-10-21T13:05:25Z</time>
      </trkpt>
      <trkpt lat="44.13672" lon="7.23564">
        <ele>2017.94</ele>
        <time>2012-10-21T13:05:28Z</time>
      </trkpt>
      <trkpt lat="44.13671" lon="7.23567">
        <ele>2017.94</ele>
        <time>2012-10-21T13:05:30Z</time>
      </trkpt>
      <trkpt lat="44.13666" lon="7.23568">
        <ele>2016.5</ele>
        <time>2012-10-21T13:05:34Z</time>
      </trkpt>
      <trkpt lat="44.13664" lon="7.23569">
        <ele>2015.06</ele>
        <time>2012-10-21T13:05:36Z</time>
      </trkpt>
      <trkpt lat="44.13658" lon="7.23576">
        <ele>2012.18</ele>
        <time>2012-10-21T13:05:46Z</time>
      </trkpt>
      <trkpt lat="44.13656" lon="7.23576">
        <ele>2010.25</ele>
        <time>2012-10-21T13:05:48Z</time>
      </trkpt>
      <trkpt lat="44.13648" lon="7.23574">
        <ele>2009.29</ele>
        <time>2012-10-21T13:05:59Z</time>
      </trkpt>
      <trkpt lat="44.13646" lon="7.23572">
        <ele>2007.37</ele>
        <time>2012-10-21T13:06:09Z</time>
      </trkpt>
      <trkpt lat="44.13638" lon="7.2358">
        <ele>2005.93</ele>
        <time>2012-10-21T13:06:17Z</time>
      </trkpt>
      <trkpt lat="44.13636" lon="7.23582">
        <ele>2004.49</ele>
        <time>2012-10-21T13:06:20Z</time>
      </trkpt>
      <trkpt lat="44.13636" lon="7.23583">
        <ele>2004.97</ele>
        <time>2012-10-21T13:06:21Z</time>
      </trkpt>
      <trkpt lat="44.13626" lon="7.23588">
        <ele>2003.04</ele>
        <time>2012-10-21T13:06:31Z</time>
      </trkpt>
      <trkpt lat="44.13623" lon="7.23592">
        <ele>2002.08</ele>
        <time>2012-10-21T13:06:35Z</time>
      </trkpt>
      <trkpt lat="44.13621" lon="7.23595">
        <ele>2002.08</ele>
        <time>2012-10-21T13:06:38Z</time>
      </trkpt>
      <trkpt lat="44.13617" lon="7.23597">
        <ele>2000.64</ele>
        <time>2012-10-21T13:06:41Z</time>
      </trkpt>
      <trkpt lat="44.13613" lon="7.23596">
        <ele>2000.64</ele>
        <time>2012-10-21T13:06:44Z</time>
      </trkpt>
      <trkpt lat="44.13609" lon="7.23602">
        <ele>1999.68</ele>
        <time>2012-10-21T13:06:49Z</time>
      </trkpt>
      <trkpt lat="44.13604" lon="7.2362">
        <ele>1998.72</ele>
        <time>2012-10-21T13:07:01Z</time>
      </trkpt>
      <trkpt lat="44.13598" lon="7.23642">
        <ele>1996.8</ele>
        <time>2012-10-21T13:07:14Z</time>
      </trkpt>
      <trkpt lat="44.13596" lon="7.23649">
        <ele>1996.32</ele>
        <time>2012-10-21T13:07:20Z</time>
      </trkpt>
      <trkpt lat="44.1359" lon="7.23672">
        <ele>1995.35</ele>
        <time>2012-10-21T13:07:33Z</time>
      </trkpt>
      <trkpt lat="44.13588" lon="7.2368">
        <ele>1995.35</ele>
        <time>2012-10-21T13:07:39Z</time>
      </trkpt>
      <trkpt lat="44.13583" lon="7.23683">
        <ele>1994.39</ele>
        <time>2012-10-21T13:07:43Z</time>
      </trkpt>
      <trkpt lat="44.1358" lon="7.23693">
        <ele>1993.91</ele>
        <time>2012-10-21T13:07:49Z</time>
      </trkpt>
      <trkpt lat="44.13577" lon="7.23698">
        <ele>1992.95</ele>
        <time>2012-10-21T13:07:52Z</time>
      </trkpt>
      <trkpt lat="44.13572" lon="7.23715">
        <ele>1992.95</ele>
        <time>2012-10-21T13:08:02Z</time>
      </trkpt>
      <trkpt lat="44.13571" lon="7.23719">
        <ele>1991.51</ele>
        <time>2012-10-21T13:08:05Z</time>
      </trkpt>
      <trkpt lat="44.13569" lon="7.23737">
        <ele>1990.55</ele>
        <time>2012-10-21T13:08:14Z</time>
      </trkpt>
      <trkpt lat="44.13564" lon="7.23754">
        <ele>1989.59</ele>
        <time>2012-10-21T13:08:26Z</time>
      </trkpt>
      <trkpt lat="44.13565" lon="7.23772">
        <ele>1988.14</ele>
        <time>2012-10-21T13:08:39Z</time>
      </trkpt>
      <trkpt lat="44.13563" lon="7.23787">
        <ele>1985.74</ele>
        <time>2012-10-21T13:08:51Z</time>
      </trkpt>
      <trkpt lat="44.13555" lon="7.23806">
        <ele>1985.26</ele>
        <time>2012-10-21T13:09:03Z</time>
      </trkpt>
      <trkpt lat="44.13554" lon="7.23814">
        <ele>1984.78</ele>
        <time>2012-10-21T13:09:26Z</time>
      </trkpt>
      <trkpt lat="44.13549" lon="7.23821">
        <ele>1983.82</ele>
        <time>2012-10-21T13:09:36Z</time>
      </trkpt>
      <trkpt lat="44.13534" lon="7.23833">
        <ele>1982.86</ele>
        <time>2012-10-21T13:09:48Z</time>
      </trkpt>
      <trkpt lat="44.13529" lon="7.2384">
        <ele>1982.38</ele>
        <time>2012-10-21T13:09:53Z</time>
      </trkpt>
      <trkpt lat="44.13527" lon="7.23842">
        <ele>1982.38</ele>
        <time>2012-10-21T13:09:55Z</time>
      </trkpt>
      <trkpt lat="44.13524" lon="7.23856">
        <ele>1981.41</ele>
        <time>2012-10-21T13:10:08Z</time>
      </trkpt>
      <trkpt lat="44.13524" lon="7.23856">
        <ele>1981.41</ele>
        <time>2012-10-21T13:10:10Z</time>
      </trkpt>
      <trkpt lat="44.13518" lon="7.2387">
        <ele>1980.45</ele>
        <time>2012-10-21T13:10:22Z</time>
      </trkpt>
      <trkpt lat="44.13514" lon="7.23887">
        <ele>1979.01</ele>
        <time>2012-10-21T13:10:36Z</time>
      </trkpt>
      <trkpt lat="44.13513" lon="7.2389">
        <ele>1978.53</ele>
        <time>2012-10-21T13:10:58Z</time>
      </trkpt>
      <trkpt lat="44.13511" lon="7.23896">
        <ele>1977.09</ele>
        <time>2012-10-21T13:11:02Z</time>
      </trkpt>
      <trkpt lat="44.13496" lon="7.23904">
        <ele>1975.65</ele>
        <time>2012-10-21T13:11:15Z</time>
      </trkpt>
      <trkpt lat="44.13496" lon="7.23905">
        <ele>1975.17</ele>
        <time>2012-10-21T13:11:16Z</time>
      </trkpt>
      <trkpt lat="44.13495" lon="7.23914">
        <ele>1973.72</ele>
        <time>2012-10-21T13:11:25Z</time>
      </trkpt>
      <trkpt lat="44.13488" lon="7.23931">
        <ele>1972.28</ele>
        <time>2012-10-21T13:11:36Z</time>
      </trkpt>
      <trkpt lat="44.13482" lon="7.23947">
        <ele>1971.32</ele>
        <time>2012-10-21T13:11:48Z</time>
      </trkpt>
      <trkpt lat="44.13479" lon="7.23953">
        <ele>1970.84</ele>
        <time>2012-10-21T13:11:56Z</time>
      </trkpt>
      <trkpt lat="44.13478" lon="7.23963">
        <ele>1969.88</ele>
        <time>2012-10-21T13:12:04Z</time>
      </trkpt>
      <trkpt lat="44.13477" lon="7.23968">
        <ele>1969.88</ele>
        <time>2012-10-21T13:12:08Z</time>
      </trkpt>
      <trkpt lat="44.13476" lon="7.23979">
        <ele>1967.96</ele>
        <time>2012-10-21T13:12:16Z</time>
      </trkpt>
      <trkpt lat="44.13475" lon="7.23984">
        <ele>1968.44</ele>
        <time>2012-10-21T13:12:20Z</time>
      </trkpt>
      <trkpt lat="44.13472" lon="7.23993">
        <ele>1966.99</ele>
        <time>2012-10-21T13:12:25Z</time>
      </trkpt>
      <trkpt lat="44.13471" lon="7.24006">
        <ele>1966.99</ele>
        <time>2012-10-21T13:12:32Z</time>
      </trkpt>
      <trkpt lat="44.13471" lon="7.24014">
        <ele>1965.55</ele>
        <time>2012-10-21T13:12:38Z</time>
      </trkpt>
      <trkpt lat="44.13471" lon="7.24021">
        <ele>1966.03</ele>
        <time>2012-10-21T13:12:42Z</time>
      </trkpt>
      <trkpt lat="44.13472" lon="7.24027">
        <ele>1965.07</ele>
        <time>2012-10-21T13:12:45Z</time>
      </trkpt>
      <trkpt lat="44.13475" lon="7.24042">
        <ele>1964.59</ele>
        <time>2012-10-21T13:12:54Z</time>
      </trkpt>
      <trkpt lat="44.13476" lon="7.24046">
        <ele>1963.15</ele>
        <time>2012-10-21T13:12:57Z</time>
      </trkpt>
      <trkpt lat="44.13477" lon="7.2405">
        <ele>1963.15</ele>
        <time>2012-10-21T13:12:59Z</time>
      </trkpt>
      <trkpt lat="44.13478" lon="7.24061">
        <ele>1961.71</ele>
        <time>2012-10-21T13:13:05Z</time>
      </trkpt>
      <trkpt lat="44.13479" lon="7.24073">
        <ele>1961.71</ele>
        <time>2012-10-21T13:13:12Z</time>
      </trkpt>
      <trkpt lat="44.13478" lon="7.24084">
        <ele>1960.27</ele>
        <time>2012-10-21T13:13:18Z</time>
      </trkpt>
      <trkpt lat="44.13482" lon="7.2409">
        <ele>1960.27</ele>
        <time>2012-10-21T13:13:22Z</time>
      </trkpt>
      <trkpt lat="44.13481" lon="7.24097">
        <ele>1959.78</ele>
        <time>2012-10-21T13:13:26Z</time>
      </trkpt>
      <trkpt lat="44.13481" lon="7.24104">
        <ele>1959.3</ele>
        <time>2012-10-21T13:13:30Z</time>
      </trkpt>
      <trkpt lat="44.13476" lon="7.24121">
        <ele>1958.34</ele>
        <time>2012-10-21T13:13:39Z</time>
      </trkpt>
      <trkpt lat="44.13473" lon="7.24133">
        <ele>1957.38</ele>
        <time>2012-10-21T13:13:46Z</time>
      </trkpt>
      <trkpt lat="44.13478" lon="7.24153">
        <ele>1956.42</ele>
        <time>2012-10-21T13:13:56Z</time>
      </trkpt>
      <trkpt lat="44.13485" lon="7.24163">
        <ele>1955.94</ele>
        <time>2012-10-21T13:14:08Z</time>
      </trkpt>
      <trkpt lat="44.13485" lon="7.24163">
        <ele>1955.94</ele>
        <time>2012-10-21T13:14:21Z</time>
      </trkpt>
      <trkpt lat="44.13485" lon="7.24159">
        <ele>1955.94</ele>
        <time>2012-10-21T13:15:06Z</time>
      </trkpt>
      <trkpt lat="44.13483" lon="7.2416">
        <ele>1956.42</ele>
        <time>2012-10-21T13:15:18Z</time>
      </trkpt>
      <trkpt lat="44.13481" lon="7.24174">
        <ele>1955.46</ele>
        <time>2012-10-21T13:15:30Z</time>
      </trkpt>
      <trkpt lat="44.1348" lon="7.24174">
        <ele>1954.98</ele>
        <time>2012-10-21T13:16:01Z</time>
      </trkpt>
      <trkpt lat="44.1348" lon="7.24177">
        <ele>1954.02</ele>
        <time>2012-10-21T13:16:25Z</time>
      </trkpt>
      <trkpt lat="44.13477" lon="7.24182">
        <ele>1953.54</ele>
        <time>2012-10-21T13:16:48Z</time>
      </trkpt>
      <trkpt lat="44.13475" lon="7.24182">
        <ele>1953.54</ele>
        <time>2012-10-21T13:17:03Z</time>
      </trkpt>
      <trkpt lat="44.13474" lon="7.24188">
        <ele>1952.57</ele>
        <time>2012-10-21T13:17:56Z</time>
      </trkpt>
      <trkpt lat="44.1347" lon="7.24193">
        <ele>1950.65</ele>
        <time>2012-10-21T13:18:06Z</time>
      </trkpt>
      <trkpt lat="44.13468" lon="7.24191">
        <ele>1949.69</ele>
        <time>2012-10-21T13:18:08Z</time>
      </trkpt>
      <trkpt lat="44.13452" lon="7.2419">
        <ele>1948.73</ele>
        <time>2012-10-21T13:18:25Z</time>
      </trkpt>
      <trkpt lat="44.1345" lon="7.24191">
        <ele>1949.69</ele>
        <time>2012-10-21T13:18:30Z</time>
      </trkpt>
      <trkpt lat="44.13447" lon="7.24195">
        <ele>1947.77</ele>
        <time>2012-10-21T13:18:34Z</time>
      </trkpt>
      <trkpt lat="44.13444" lon="7.24199">
        <ele>1948.73</ele>
        <time>2012-10-21T13:18:38Z</time>
      </trkpt>
      <trkpt lat="44.13432" lon="7.24209">
        <ele>1946.81</ele>
        <time>2012-10-21T13:18:50Z</time>
      </trkpt>
      <trkpt lat="44.13429" lon="7.24211">
        <ele>1946.81</ele>
        <time>2012-10-21T13:18:53Z</time>
      </trkpt>
      <trkpt lat="44.13426" lon="7.24213">
        <ele>1946.33</ele>
        <time>2012-10-21T13:18:56Z</time>
      </trkpt>
      <trkpt lat="44.13426" lon="7.24215">
        <ele>1946.33</ele>
        <time>2012-10-21T13:18:58Z</time>
      </trkpt>
      <trkpt lat="44.13417" lon="7.24233">
        <ele>1945.36</ele>
        <time>2012-10-21T13:19:11Z</time>
      </trkpt>
      <trkpt lat="44.13406" lon="7.24246">
        <ele>1943.44</ele>
        <time>2012-10-21T13:19:23Z</time>
      </trkpt>
      <trkpt lat="44.13405" lon="7.24247">
        <ele>1943.44</ele>
        <time>2012-10-21T13:19:24Z</time>
      </trkpt>
      <trkpt lat="44.13399" lon="7.24254">
        <ele>1942.96</ele>
        <time>2012-10-21T13:19:29Z</time>
      </trkpt>
      <trkpt lat="44.13383" lon="7.24263">
        <ele>1941.52</ele>
        <time>2012-10-21T13:19:40Z</time>
      </trkpt>
      <trkpt lat="44.13378" lon="7.24269">
        <ele>1941.04</ele>
        <time>2012-10-21T13:19:47Z</time>
      </trkpt>
      <trkpt lat="44.13374" lon="7.24277">
        <ele>1939.6</ele>
        <time>2012-10-21T13:19:54Z</time>
      </trkpt>
      <trkpt lat="44.13369" lon="7.24283">
        <ele>1937.67</ele>
        <time>2012-10-21T13:20:01Z</time>
      </trkpt>
      <trkpt lat="44.13363" lon="7.24297">
        <ele>1936.23</ele>
        <time>2012-10-21T13:20:12Z</time>
      </trkpt>
      <trkpt lat="44.13358" lon="7.24304">
        <ele>1936.23</ele>
        <time>2012-10-21T13:20:17Z</time>
      </trkpt>
      <trkpt lat="44.13353" lon="7.24317">
        <ele>1934.31</ele>
        <time>2012-10-21T13:20:26Z</time>
      </trkpt>
      <trkpt lat="44.13345" lon="7.24329">
        <ele>1931.91</ele>
        <time>2012-10-21T13:20:39Z</time>
      </trkpt>
      <trkpt lat="44.13345" lon="7.24329">
        <ele>1932.39</ele>
        <time>2012-10-21T13:20:40Z</time>
      </trkpt>
      <trkpt lat="44.13338" lon="7.24341">
        <ele>1929.02</ele>
        <time>2012-10-21T13:20:52Z</time>
      </trkpt>
      <trkpt lat="44.13338" lon="7.24342">
        <ele>1929.02</ele>
        <time>2012-10-21T13:20:53Z</time>
      </trkpt>
      <trkpt lat="44.13336" lon="7.24349">
        <ele>1928.06</ele>
        <time>2012-10-21T13:20:58Z</time>
      </trkpt>
      <trkpt lat="44.13333" lon="7.24359">
        <ele>1928.54</ele>
        <time>2012-10-21T13:21:03Z</time>
      </trkpt>
      <trkpt lat="44.1333" lon="7.24374">
        <ele>1928.06</ele>
        <time>2012-10-21T13:21:15Z</time>
      </trkpt>
      <trkpt lat="44.13328" lon="7.24384">
        <ele>1927.58</ele>
        <time>2012-10-21T13:21:20Z</time>
      </trkpt>
      <trkpt lat="44.13324" lon="7.24402">
        <ele>1925.66</ele>
        <time>2012-10-21T13:21:28Z</time>
      </trkpt>
      <trkpt lat="44.13323" lon="7.24406">
        <ele>1926.62</ele>
        <time>2012-10-21T13:21:30Z</time>
      </trkpt>
      <trkpt lat="44.13314" lon="7.24419">
        <ele>1925.18</ele>
        <time>2012-10-21T13:21:39Z</time>
      </trkpt>
      <trkpt lat="44.13311" lon="7.24419">
        <ele>1924.7</ele>
        <time>2012-10-21T13:21:41Z</time>
      </trkpt>
      <trkpt lat="44.13299" lon="7.24431">
        <ele>1922.29</ele>
        <time>2012-10-21T13:21:56Z</time>
      </trkpt>
      <trkpt lat="44.13299" lon="7.24433">
        <ele>1922.77</ele>
        <time>2012-10-21T13:21:57Z</time>
      </trkpt>
      <trkpt lat="44.13295" lon="7.24436">
        <ele>1921.33</ele>
        <time>2012-10-21T13:22:00Z</time>
      </trkpt>
      <trkpt lat="44.13287" lon="7.24449">
        <ele>1921.33</ele>
        <time>2012-10-21T13:22:11Z</time>
      </trkpt>
      <trkpt lat="44.13286" lon="7.24453">
        <ele>1920.37</ele>
        <time>2012-10-21T13:22:13Z</time>
      </trkpt>
      <trkpt lat="44.13285" lon="7.24457">
        <ele>1920.37</ele>
        <time>2012-10-21T13:22:16Z</time>
      </trkpt>
      <trkpt lat="44.13278" lon="7.2447">
        <ele>1918.45</ele>
        <time>2012-10-21T13:22:28Z</time>
      </trkpt>
      <trkpt lat="44.13274" lon="7.24474">
        <ele>1917.49</ele>
        <time>2012-10-21T13:22:34Z</time>
      </trkpt>
      <trkpt lat="44.13271" lon="7.24489">
        <ele>1916.53</ele>
        <time>2012-10-21T13:22:44Z</time>
      </trkpt>
      <trkpt lat="44.13269" lon="7.24507">
        <ele>1914.12</ele>
        <time>2012-10-21T13:22:55Z</time>
      </trkpt>
      <trkpt lat="44.13263" lon="7.24522">
        <ele>1914.12</ele>
        <time>2012-10-21T13:23:04Z</time>
      </trkpt>
      <trkpt lat="44.1326" lon="7.24526">
        <ele>1912.68</ele>
        <time>2012-10-21T13:23:07Z</time>
      </trkpt>
      <trkpt lat="44.1326" lon="7.24528">
        <ele>1913.16</ele>
        <time>2012-10-21T13:23:08Z</time>
      </trkpt>
      <trkpt lat="44.13254" lon="7.2454">
        <ele>1911.72</ele>
        <time>2012-10-21T13:23:17Z</time>
      </trkpt>
      <trkpt lat="44.13252" lon="7.24545">
        <ele>1911.24</ele>
        <time>2012-10-21T13:23:20Z</time>
      </trkpt>
      <trkpt lat="44.13251" lon="7.24549">
        <ele>1910.76</ele>
        <time>2012-10-21T13:23:23Z</time>
      </trkpt>
      <trkpt lat="44.13246" lon="7.24559">
        <ele>1908.83</ele>
        <time>2012-10-21T13:23:31Z</time>
      </trkpt>
      <trkpt lat="44.13244" lon="7.24564">
        <ele>1909.32</ele>
        <time>2012-10-21T13:23:34Z</time>
      </trkpt>
      <trkpt lat="44.1324" lon="7.24575">
        <ele>1907.87</ele>
        <time>2012-10-21T13:23:43Z</time>
      </trkpt>
      <trkpt lat="44.13238" lon="7.2458">
        <ele>1907.39</ele>
        <time>2012-10-21T13:23:47Z</time>
      </trkpt>
      <trkpt lat="44.13236" lon="7.24589">
        <ele>1906.91</ele>
        <time>2012-10-21T13:23:54Z</time>
      </trkpt>
      <trkpt lat="44.13235" lon="7.24605">
        <ele>1904.03</ele>
        <time>2012-10-21T13:24:05Z</time>
      </trkpt>
      <trkpt lat="44.13235" lon="7.24608">
        <ele>1904.03</ele>
        <time>2012-10-21T13:24:06Z</time>
      </trkpt>
      <trkpt lat="44.13234" lon="7.24614">
        <ele>1904.03</ele>
        <time>2012-10-21T13:24:09Z</time>
      </trkpt>
      <trkpt lat="44.13224" lon="7.24622">
        <ele>1902.11</ele>
        <time>2012-10-21T13:24:15Z</time>
      </trkpt>
      <trkpt lat="44.13214" lon="7.2463">
        <ele>1901.14</ele>
        <time>2012-10-21T13:24:26Z</time>
      </trkpt>
      <trkpt lat="44.13211" lon="7.24635">
        <ele>1899.22</ele>
        <time>2012-10-21T13:24:29Z</time>
      </trkpt>
      <trkpt lat="44.13209" lon="7.24636">
        <ele>1900.18</ele>
        <time>2012-10-21T13:24:32Z</time>
      </trkpt>
      <trkpt lat="44.13197" lon="7.24646">
        <ele>1898.26</ele>
        <time>2012-10-21T13:24:42Z</time>
      </trkpt>
      <trkpt lat="44.13196" lon="7.2465">
        <ele>1897.78</ele>
        <time>2012-10-21T13:24:44Z</time>
      </trkpt>
      <trkpt lat="44.13193" lon="7.24655">
        <ele>1897.3</ele>
        <time>2012-10-21T13:24:49Z</time>
      </trkpt>
      <trkpt lat="44.1319" lon="7.24663">
        <ele>1895.86</ele>
        <time>2012-10-21T13:24:55Z</time>
      </trkpt>
      <trkpt lat="44.13179" lon="7.24673">
        <ele>1894.9</ele>
        <time>2012-10-21T13:25:06Z</time>
      </trkpt>
      <trkpt lat="44.13177" lon="7.24676">
        <ele>1894.42</ele>
        <time>2012-10-21T13:25:09Z</time>
      </trkpt>
      <trkpt lat="44.13174" lon="7.24681">
        <ele>1893.45</ele>
        <time>2012-10-21T13:25:13Z</time>
      </trkpt>
      <trkpt lat="44.13159" lon="7.24693">
        <ele>1892.01</ele>
        <time>2012-10-21T13:25:26Z</time>
      </trkpt>
      <trkpt lat="44.13152" lon="7.24704">
        <ele>1890.09</ele>
        <time>2012-10-21T13:25:38Z</time>
      </trkpt>
      <trkpt lat="44.13143" lon="7.24712">
        <ele>1888.65</ele>
        <time>2012-10-21T13:25:49Z</time>
      </trkpt>
      <trkpt lat="44.13129" lon="7.24721">
        <ele>1888.17</ele>
        <time>2012-10-21T13:26:03Z</time>
      </trkpt>
      <trkpt lat="44.13126" lon="7.24722">
        <ele>1887.21</ele>
        <time>2012-10-21T13:26:05Z</time>
      </trkpt>
      <trkpt lat="44.1312" lon="7.24735">
        <ele>1884.8</ele>
        <time>2012-10-21T13:26:16Z</time>
      </trkpt>
      <trkpt lat="44.13112" lon="7.24742">
        <ele>1883.36</ele>
        <time>2012-10-21T13:26:26Z</time>
      </trkpt>
      <trkpt lat="44.13109" lon="7.24743">
        <ele>1882.4</ele>
        <time>2012-10-21T13:26:29Z</time>
      </trkpt>
      <trkpt lat="44.13101" lon="7.24757">
        <ele>1878.55</ele>
        <time>2012-10-21T13:26:42Z</time>
      </trkpt>
      <trkpt lat="44.13099" lon="7.24762">
        <ele>1880.48</ele>
        <time>2012-10-21T13:26:45Z</time>
      </trkpt>
      <trkpt lat="44.13097" lon="7.24773">
        <ele>1879.51</ele>
        <time>2012-10-21T13:26:53Z</time>
      </trkpt>
      <trkpt lat="44.13092" lon="7.24791">
        <ele>1878.07</ele>
        <time>2012-10-21T13:27:02Z</time>
      </trkpt>
      <trkpt lat="44.13091" lon="7.24793">
        <ele>1877.59</ele>
        <time>2012-10-21T13:27:03Z</time>
      </trkpt>
      <trkpt lat="44.13087" lon="7.24807">
        <ele>1876.63</ele>
        <time>2012-10-21T13:27:12Z</time>
      </trkpt>
      <trkpt lat="44.13082" lon="7.24813">
        <ele>1875.19</ele>
        <time>2012-10-21T13:27:18Z</time>
      </trkpt>
      <trkpt lat="44.13082" lon="7.24815">
        <ele>1875.19</ele>
        <time>2012-10-21T13:27:19Z</time>
      </trkpt>
      <trkpt lat="44.13081" lon="7.24826">
        <ele>1874.23</ele>
        <time>2012-10-21T13:27:24Z</time>
      </trkpt>
      <trkpt lat="44.13073" lon="7.24836">
        <ele>1872.3</ele>
        <time>2012-10-21T13:27:33Z</time>
      </trkpt>
      <trkpt lat="44.13066" lon="7.24842">
        <ele>1871.82</ele>
        <time>2012-10-21T13:27:41Z</time>
      </trkpt>
      <trkpt lat="44.13064" lon="7.24846">
        <ele>1872.79</ele>
        <time>2012-10-21T13:27:45Z</time>
      </trkpt>
      <trkpt lat="44.13062" lon="7.24851">
        <ele>1872.3</ele>
        <time>2012-10-21T13:27:48Z</time>
      </trkpt>
      <trkpt lat="44.13054" lon="7.24863">
        <ele>1872.79</ele>
        <time>2012-10-21T13:27:58Z</time>
      </trkpt>
      <trkpt lat="44.13045" lon="7.24871">
        <ele>1870.86</ele>
        <time>2012-10-21T13:28:08Z</time>
      </trkpt>
      <trkpt lat="44.13041" lon="7.24881">
        <ele>1868.94</ele>
        <time>2012-10-21T13:28:16Z</time>
      </trkpt>
      <trkpt lat="44.13039" lon="7.24883">
        <ele>1867.5</ele>
        <time>2012-10-21T13:28:18Z</time>
      </trkpt>
      <trkpt lat="44.13031" lon="7.24894">
        <ele>1866.54</ele>
        <time>2012-10-21T13:28:29Z</time>
      </trkpt>
      <trkpt lat="44.13027" lon="7.24906">
        <ele>1864.13</ele>
        <time>2012-10-21T13:28:41Z</time>
      </trkpt>
      <trkpt lat="44.13025" lon="7.24912">
        <ele>1862.69</ele>
        <time>2012-10-21T13:28:47Z</time>
      </trkpt>
      <trkpt lat="44.13023" lon="7.24917">
        <ele>1861.73</ele>
        <time>2012-10-21T13:28:52Z</time>
      </trkpt>
      <trkpt lat="44.13019" lon="7.24925">
        <ele>1860.77</ele>
        <time>2012-10-21T13:28:58Z</time>
      </trkpt>
      <trkpt lat="44.13013" lon="7.24931">
        <ele>1859.33</ele>
        <time>2012-10-21T13:29:07Z</time>
      </trkpt>
      <trkpt lat="44.13011" lon="7.24932">
        <ele>1858.85</ele>
        <time>2012-10-21T13:29:09Z</time>
      </trkpt>
      <trkpt lat="44.13001" lon="7.24939">
        <ele>1856.44</ele>
        <time>2012-10-21T13:29:21Z</time>
      </trkpt>
      <trkpt lat="44.12996" lon="7.24943">
        <ele>1856.44</ele>
        <time>2012-10-21T13:29:29Z</time>
      </trkpt>
      <trkpt lat="44.12986" lon="7.24949">
        <ele>1855</ele>
        <time>2012-10-21T13:29:38Z</time>
      </trkpt>
      <trkpt lat="44.1298" lon="7.24955">
        <ele>1854.04</ele>
        <time>2012-10-21T13:29:46Z</time>
      </trkpt>
      <trkpt lat="44.1298" lon="7.24956">
        <ele>1853.56</ele>
        <time>2012-10-21T13:29:47Z</time>
      </trkpt>
      <trkpt lat="44.12976" lon="7.24962">
        <ele>1851.64</ele>
        <time>2012-10-21T13:29:52Z</time>
      </trkpt>
      <trkpt lat="44.12969" lon="7.2497">
        <ele>1851.16</ele>
        <time>2012-10-21T13:29:59Z</time>
      </trkpt>
      <trkpt lat="44.12967" lon="7.24972">
        <ele>1851.16</ele>
        <time>2012-10-21T13:30:01Z</time>
      </trkpt>
      <trkpt lat="44.12963" lon="7.24978">
        <ele>1849.23</ele>
        <time>2012-10-21T13:30:06Z</time>
      </trkpt>
      <trkpt lat="44.12959" lon="7.24978">
        <ele>1849.23</ele>
        <time>2012-10-21T13:30:08Z</time>
      </trkpt>
      <trkpt lat="44.12952" lon="7.24981">
        <ele>1848.27</ele>
        <time>2012-10-21T13:30:12Z</time>
      </trkpt>
      <trkpt lat="44.12951" lon="7.24985">
        <ele>1848.75</ele>
        <time>2012-10-21T13:30:15Z</time>
      </trkpt>
      <trkpt lat="44.12946" lon="7.24988">
        <ele>1847.31</ele>
        <time>2012-10-21T13:30:19Z</time>
      </trkpt>
      <trkpt lat="44.12942" lon="7.2499">
        <ele>1847.79</ele>
        <time>2012-10-21T13:30:22Z</time>
      </trkpt>
      <trkpt lat="44.12937" lon="7.25006">
        <ele>1845.39</ele>
        <time>2012-10-21T13:30:34Z</time>
      </trkpt>
      <trkpt lat="44.12932" lon="7.25019">
        <ele>1842.98</ele>
        <time>2012-10-21T13:30:45Z</time>
      </trkpt>
      <trkpt lat="44.12932" lon="7.2502">
        <ele>1842.98</ele>
        <time>2012-10-21T13:30:46Z</time>
      </trkpt>
      <trkpt lat="44.12929" lon="7.25022">
        <ele>1842.5</ele>
        <time>2012-10-21T13:30:48Z</time>
      </trkpt>
      <trkpt lat="44.12929" lon="7.2503">
        <ele>1842.02</ele>
        <time>2012-10-21T13:30:53Z</time>
      </trkpt>
      <trkpt lat="44.12929" lon="7.25038">
        <ele>1840.58</ele>
        <time>2012-10-21T13:30:59Z</time>
      </trkpt>
      <trkpt lat="44.12918" lon="7.25046">
        <ele>1839.62</ele>
        <time>2012-10-21T13:31:08Z</time>
      </trkpt>
      <trkpt lat="44.12913" lon="7.25056">
        <ele>1837.7</ele>
        <time>2012-10-21T13:31:18Z</time>
      </trkpt>
      <trkpt lat="44.1291" lon="7.25072">
        <ele>1835.77</ele>
        <time>2012-10-21T13:31:30Z</time>
      </trkpt>
      <trkpt lat="44.12908" lon="7.25075">
        <ele>1835.29</ele>
        <time>2012-10-21T13:31:32Z</time>
      </trkpt>
      <trkpt lat="44.12908" lon="7.25077">
        <ele>1834.81</ele>
        <time>2012-10-21T13:31:33Z</time>
      </trkpt>
      <trkpt lat="44.12903" lon="7.25089">
        <ele>1831.93</ele>
        <time>2012-10-21T13:31:42Z</time>
      </trkpt>
      <trkpt lat="44.12902" lon="7.2509">
        <ele>1832.89</ele>
        <time>2012-10-21T13:31:43Z</time>
      </trkpt>
      <trkpt lat="44.12896" lon="7.25099">
        <ele>1831.45</ele>
        <time>2012-10-21T13:31:55Z</time>
      </trkpt>
      <trkpt lat="44.12893" lon="7.25105">
        <ele>1830.97</ele>
        <time>2012-10-21T13:32:00Z</time>
      </trkpt>
      <trkpt lat="44.12893" lon="7.25109">
        <ele>1830.97</ele>
        <time>2012-10-21T13:32:03Z</time>
      </trkpt>
      <trkpt lat="44.1289" lon="7.25116">
        <ele>1829.53</ele>
        <time>2012-10-21T13:32:08Z</time>
      </trkpt>
      <trkpt lat="44.12887" lon="7.25124">
        <ele>1829.05</ele>
        <time>2012-10-21T13:32:14Z</time>
      </trkpt>
      <trkpt lat="44.12882" lon="7.25129">
        <ele>1829.05</ele>
        <time>2012-10-21T13:32:19Z</time>
      </trkpt>
      <trkpt lat="44.12879" lon="7.25141">
        <ele>1827.12</ele>
        <time>2012-10-21T13:32:29Z</time>
      </trkpt>
      <trkpt lat="44.12878" lon="7.25145">
        <ele>1827.12</ele>
        <time>2012-10-21T13:32:33Z</time>
      </trkpt>
      <trkpt lat="44.12879" lon="7.2515">
        <ele>1826.64</ele>
        <time>2012-10-21T13:32:36Z</time>
      </trkpt>
      <trkpt lat="44.12878" lon="7.25152">
        <ele>1825.68</ele>
        <time>2012-10-21T13:32:37Z</time>
      </trkpt>
      <trkpt lat="44.12876" lon="7.25166">
        <ele>1823.76</ele>
        <time>2012-10-21T13:32:50Z</time>
      </trkpt>
      <trkpt lat="44.12874" lon="7.25169">
        <ele>1823.76</ele>
        <time>2012-10-21T13:32:53Z</time>
      </trkpt>
      <trkpt lat="44.12873" lon="7.25183">
        <ele>1821.84</ele>
        <time>2012-10-21T13:33:02Z</time>
      </trkpt>
      <trkpt lat="44.12871" lon="7.25184">
        <ele>1821.84</ele>
        <time>2012-10-21T13:33:03Z</time>
      </trkpt>
      <trkpt lat="44.12867" lon="7.25184">
        <ele>1821.35</ele>
        <time>2012-10-21T13:33:06Z</time>
      </trkpt>
      <trkpt lat="44.12865" lon="7.25185">
        <ele>1820.87</ele>
        <time>2012-10-21T13:33:07Z</time>
      </trkpt>
      <trkpt lat="44.12864" lon="7.25186">
        <ele>1820.87</ele>
        <time>2012-10-21T13:33:08Z</time>
      </trkpt>
      <trkpt lat="44.12859" lon="7.252">
        <ele>1820.39</ele>
        <time>2012-10-21T13:33:19Z</time>
      </trkpt>
      <trkpt lat="44.12858" lon="7.25211">
        <ele>1819.91</ele>
        <time>2012-10-21T13:33:25Z</time>
      </trkpt>
      <trkpt lat="44.12857" lon="7.2522">
        <ele>1817.03</ele>
        <time>2012-10-21T13:33:30Z</time>
      </trkpt>
      <trkpt lat="44.12857" lon="7.25223">
        <ele>1817.03</ele>
        <time>2012-10-21T13:33:32Z</time>
      </trkpt>
      <trkpt lat="44.12857" lon="7.25225">
        <ele>1817.99</ele>
        <time>2012-10-21T13:33:33Z</time>
      </trkpt>
      <trkpt lat="44.12846" lon="7.25234">
        <ele>1816.55</ele>
        <time>2012-10-21T13:33:44Z</time>
      </trkpt>
      <trkpt lat="44.12819" lon="7.25238">
        <ele>1814.15</ele>
        <time>2012-10-21T13:33:56Z</time>
      </trkpt>
      <trkpt lat="44.12815" lon="7.25242">
        <ele>1812.7</ele>
        <time>2012-10-21T13:34:00Z</time>
      </trkpt>
      <trkpt lat="44.1281" lon="7.2525">
        <ele>1812.22</ele>
        <time>2012-10-21T13:34:07Z</time>
      </trkpt>
      <trkpt lat="44.12804" lon="7.2526">
        <ele>1809.34</ele>
        <time>2012-10-21T13:34:19Z</time>
      </trkpt>
      <trkpt lat="44.12804" lon="7.25261">
        <ele>1807.9</ele>
        <time>2012-10-21T13:34:22Z</time>
      </trkpt>
      <trkpt lat="44.12796" lon="7.25273">
        <ele>1806.94</ele>
        <time>2012-10-21T13:34:34Z</time>
      </trkpt>
      <trkpt lat="44.12793" lon="7.25273">
        <ele>1803.57</ele>
        <time>2012-10-21T13:34:39Z</time>
      </trkpt>
      <trkpt lat="44.12792" lon="7.25273">
        <ele>1804.05</ele>
        <time>2012-10-21T13:34:40Z</time>
      </trkpt>
      <trkpt lat="44.12789" lon="7.25275">
        <ele>1803.57</ele>
        <time>2012-10-21T13:34:44Z</time>
      </trkpt>
      <trkpt lat="44.12779" lon="7.25281">
        <ele>1800.69</ele>
        <time>2012-10-21T13:34:57Z</time>
      </trkpt>
      <trkpt lat="44.12771" lon="7.2529">
        <ele>1798.76</ele>
        <time>2012-10-21T13:35:12Z</time>
      </trkpt>
      <trkpt lat="44.12766" lon="7.25316">
        <ele>1796.36</ele>
        <time>2012-10-21T13:35:25Z</time>
      </trkpt>
      <trkpt lat="44.12763" lon="7.2532">
        <ele>1795.88</ele>
        <time>2012-10-21T13:35:28Z</time>
      </trkpt>
      <trkpt lat="44.12762" lon="7.25325">
        <ele>1793.96</ele>
        <time>2012-10-21T13:35:31Z</time>
      </trkpt>
      <trkpt lat="44.12763" lon="7.25343">
        <ele>1794.44</ele>
        <time>2012-10-21T13:35:44Z</time>
      </trkpt>
      <trkpt lat="44.12759" lon="7.25348">
        <ele>1793.96</ele>
        <time>2012-10-21T13:35:49Z</time>
      </trkpt>
      <trkpt lat="44.12757" lon="7.25358">
        <ele>1793</ele>
        <time>2012-10-21T13:35:54Z</time>
      </trkpt>
      <trkpt lat="44.12757" lon="7.25363">
        <ele>1792.03</ele>
        <time>2012-10-21T13:35:57Z</time>
      </trkpt>
      <trkpt lat="44.12755" lon="7.25367">
        <ele>1791.55</ele>
        <time>2012-10-21T13:35:59Z</time>
      </trkpt>
      <trkpt lat="44.12749" lon="7.25377">
        <ele>1791.55</ele>
        <time>2012-10-21T13:36:06Z</time>
      </trkpt>
      <trkpt lat="44.12747" lon="7.25394">
        <ele>1790.11</ele>
        <time>2012-10-21T13:36:16Z</time>
      </trkpt>
      <trkpt lat="44.12747" lon="7.25398">
        <ele>1790.11</ele>
        <time>2012-10-21T13:36:19Z</time>
      </trkpt>
      <trkpt lat="44.12744" lon="7.25407">
        <ele>1788.19</ele>
        <time>2012-10-21T13:36:29Z</time>
      </trkpt>
      <trkpt lat="44.1274" lon="7.25414">
        <ele>1787.23</ele>
        <time>2012-10-21T13:36:36Z</time>
      </trkpt>
      <trkpt lat="44.12734" lon="7.2542">
        <ele>1785.79</ele>
        <time>2012-10-21T13:36:41Z</time>
      </trkpt>
      <trkpt lat="44.1273" lon="7.25425">
        <ele>1786.27</ele>
        <time>2012-10-21T13:36:46Z</time>
      </trkpt>
      <trkpt lat="44.12723" lon="7.25444">
        <ele>1783.38</ele>
        <time>2012-10-21T13:36:59Z</time>
      </trkpt>
      <trkpt lat="44.12717" lon="7.25457">
        <ele>1780.98</ele>
        <time>2012-10-21T13:37:12Z</time>
      </trkpt>
      <trkpt lat="44.12715" lon="7.25468">
        <ele>1778.1</ele>
        <time>2012-10-21T13:37:22Z</time>
      </trkpt>
      <trkpt lat="44.12708" lon="7.25472">
        <ele>1776.65</ele>
        <time>2012-10-21T13:37:34Z</time>
      </trkpt>
      <trkpt lat="44.12708" lon="7.25473">
        <ele>1776.17</ele>
        <time>2012-10-21T13:37:35Z</time>
      </trkpt>
      <trkpt lat="44.12708" lon="7.25482">
        <ele>1773.77</ele>
        <time>2012-10-21T13:37:47Z</time>
      </trkpt>
      <trkpt lat="44.12711" lon="7.2549">
        <ele>1772.81</ele>
        <time>2012-10-21T13:37:56Z</time>
      </trkpt>
      <trkpt lat="44.12714" lon="7.25495">
        <ele>1768.96</ele>
        <time>2012-10-21T13:38:05Z</time>
      </trkpt>
      <trkpt lat="44.12714" lon="7.25512">
        <ele>1767.52</ele>
        <time>2012-10-21T13:38:19Z</time>
      </trkpt>
      <trkpt lat="44.12715" lon="7.25521">
        <ele>1766.08</ele>
        <time>2012-10-21T13:38:24Z</time>
      </trkpt>
      <trkpt lat="44.1271" lon="7.25539">
        <ele>1764.16</ele>
        <time>2012-10-21T13:38:36Z</time>
      </trkpt>
      <trkpt lat="44.12708" lon="7.25546">
        <ele>1763.2</ele>
        <time>2012-10-21T13:38:41Z</time>
      </trkpt>
      <trkpt lat="44.12704" lon="7.25568">
        <ele>1760.31</ele>
        <time>2012-10-21T13:38:53Z</time>
      </trkpt>
      <trkpt lat="44.12705" lon="7.25569">
        <ele>1760.31</ele>
        <time>2012-10-21T13:38:54Z</time>
      </trkpt>
      <trkpt lat="44.12706" lon="7.25573">
        <ele>1760.79</ele>
        <time>2012-10-21T13:38:57Z</time>
      </trkpt>
      <trkpt lat="44.12707" lon="7.25584">
        <ele>1759.35</ele>
        <time>2012-10-21T13:39:05Z</time>
      </trkpt>
      <trkpt lat="44.12705" lon="7.25592">
        <ele>1758.87</ele>
        <time>2012-10-21T13:39:11Z</time>
      </trkpt>
      <trkpt lat="44.12698" lon="7.25606">
        <ele>1756.95</ele>
        <time>2012-10-21T13:39:22Z</time>
      </trkpt>
      <trkpt lat="44.12693" lon="7.25615">
        <ele>1757.43</ele>
        <time>2012-10-21T13:39:34Z</time>
      </trkpt>
      <trkpt lat="44.12692" lon="7.25616">
        <ele>1756.95</ele>
        <time>2012-10-21T13:39:35Z</time>
      </trkpt>
      <trkpt lat="44.12691" lon="7.25626">
        <ele>1756.47</ele>
        <time>2012-10-21T13:39:42Z</time>
      </trkpt>
      <trkpt lat="44.12689" lon="7.25641">
        <ele>1754.54</ele>
        <time>2012-10-21T13:39:53Z</time>
      </trkpt>
      <trkpt lat="44.12688" lon="7.25648">
        <ele>1754.06</ele>
        <time>2012-10-21T13:39:58Z</time>
      </trkpt>
      <trkpt lat="44.12686" lon="7.2566">
        <ele>1752.14</ele>
        <time>2012-10-21T13:40:09Z</time>
      </trkpt>
      <trkpt lat="44.12685" lon="7.25664">
        <ele>1749.74</ele>
        <time>2012-10-21T13:40:12Z</time>
      </trkpt>
      <trkpt lat="44.12681" lon="7.25672">
        <ele>1748.78</ele>
        <time>2012-10-21T13:40:21Z</time>
      </trkpt>
      <trkpt lat="44.12678" lon="7.25679">
        <ele>1746.85</ele>
        <time>2012-10-21T13:40:35Z</time>
      </trkpt>
      <trkpt lat="44.12672" lon="7.25697">
        <ele>1744.45</ele>
        <time>2012-10-21T13:40:46Z</time>
      </trkpt>
      <trkpt lat="44.12666" lon="7.25713">
        <ele>1741.57</ele>
        <time>2012-10-21T13:40:57Z</time>
      </trkpt>
      <trkpt lat="44.12655" lon="7.25732">
        <ele>1739.16</ele>
        <time>2012-10-21T13:41:10Z</time>
      </trkpt>
      <trkpt lat="44.12652" lon="7.25738">
        <ele>1737.72</ele>
        <time>2012-10-21T13:41:14Z</time>
      </trkpt>
      <trkpt lat="44.12644" lon="7.25747">
        <ele>1736.76</ele>
        <time>2012-10-21T13:41:27Z</time>
      </trkpt>
      <trkpt lat="44.12642" lon="7.2575">
        <ele>1736.28</ele>
        <time>2012-10-21T13:41:32Z</time>
      </trkpt>
      <trkpt lat="44.12634" lon="7.25755">
        <ele>1735.8</ele>
        <time>2012-10-21T13:41:38Z</time>
      </trkpt>
      <trkpt lat="44.12629" lon="7.25758">
        <ele>1734.36</ele>
        <time>2012-10-21T13:41:42Z</time>
      </trkpt>
      <trkpt lat="44.12618" lon="7.25763">
        <ele>1734.36</ele>
        <time>2012-10-21T13:41:50Z</time>
      </trkpt>
      <trkpt lat="44.12615" lon="7.2577">
        <ele>1732.91</ele>
        <time>2012-10-21T13:41:53Z</time>
      </trkpt>
      <trkpt lat="44.12614" lon="7.25773">
        <ele>1732.43</ele>
        <time>2012-10-21T13:41:54Z</time>
      </trkpt>
      <trkpt lat="44.12608" lon="7.25785">
        <ele>1731.47</ele>
        <time>2012-10-21T13:42:05Z</time>
      </trkpt>
      <trkpt lat="44.12608" lon="7.25788">
        <ele>1731.47</ele>
        <time>2012-10-21T13:42:08Z</time>
      </trkpt>
      <trkpt lat="44.12609" lon="7.25798">
        <ele>1730.03</ele>
        <time>2012-10-21T13:42:13Z</time>
      </trkpt>
      <trkpt lat="44.12611" lon="7.25804">
        <ele>1730.03</ele>
        <time>2012-10-21T13:42:20Z</time>
      </trkpt>
      <trkpt lat="44.12622" lon="7.2583">
        <ele>1729.55</ele>
        <time>2012-10-21T13:42:33Z</time>
      </trkpt>
      <trkpt lat="44.12624" lon="7.2585">
        <ele>1727.63</ele>
        <time>2012-10-21T13:42:45Z</time>
      </trkpt>
      <trkpt lat="44.12627" lon="7.25855">
        <ele>1727.15</ele>
        <time>2012-10-21T13:42:47Z</time>
      </trkpt>
      <trkpt lat="44.12631" lon="7.25876">
        <ele>1724.74</ele>
        <time>2012-10-21T13:42:58Z</time>
      </trkpt>
      <trkpt lat="44.12634" lon="7.25882">
        <ele>1725.7</ele>
        <time>2012-10-21T13:43:00Z</time>
      </trkpt>
      <trkpt lat="44.12637" lon="7.25892">
        <ele>1724.26</ele>
        <time>2012-10-21T13:43:08Z</time>
      </trkpt>
      <trkpt lat="44.12636" lon="7.25904">
        <ele>1723.3</ele>
        <time>2012-10-21T13:43:13Z</time>
      </trkpt>
      <trkpt lat="44.12642" lon="7.25923">
        <ele>1721.38</ele>
        <time>2012-10-21T13:43:23Z</time>
      </trkpt>
      <trkpt lat="44.12641" lon="7.25933">
        <ele>1718.97</ele>
        <time>2012-10-21T13:43:35Z</time>
      </trkpt>
      <trkpt lat="44.12638" lon="7.25941">
        <ele>1718.97</ele>
        <time>2012-10-21T13:43:39Z</time>
      </trkpt>
      <trkpt lat="44.12635" lon="7.25945">
        <ele>1718.01</ele>
        <time>2012-10-21T13:43:44Z</time>
      </trkpt>
      <trkpt lat="44.12634" lon="7.25957">
        <ele>1716.09</ele>
        <time>2012-10-21T13:43:54Z</time>
      </trkpt>
      <trkpt lat="44.1262" lon="7.25954">
        <ele>1715.13</ele>
        <time>2012-10-21T13:44:01Z</time>
      </trkpt>
      <trkpt lat="44.12605" lon="7.25969">
        <ele>1713.21</ele>
        <time>2012-10-21T13:44:12Z</time>
      </trkpt>
      <trkpt lat="44.12596" lon="7.25977">
        <ele>1712.25</ele>
        <time>2012-10-21T13:44:19Z</time>
      </trkpt>
      <trkpt lat="44.12594" lon="7.25981">
        <ele>1712.25</ele>
        <time>2012-10-21T13:44:23Z</time>
      </trkpt>
      <trkpt lat="44.12592" lon="7.25988">
        <ele>1711.76</ele>
        <time>2012-10-21T13:44:27Z</time>
      </trkpt>
      <trkpt lat="44.12592" lon="7.25994">
        <ele>1711.76</ele>
        <time>2012-10-21T13:44:30Z</time>
      </trkpt>
      <trkpt lat="44.12592" lon="7.26001">
        <ele>1711.28</ele>
        <time>2012-10-21T13:44:34Z</time>
      </trkpt>
      <trkpt lat="44.12592" lon="7.2601">
        <ele>1710.8</ele>
        <time>2012-10-21T13:44:39Z</time>
      </trkpt>
      <trkpt lat="44.12584" lon="7.26026">
        <ele>1709.36</ele>
        <time>2012-10-21T13:44:51Z</time>
      </trkpt>
      <trkpt lat="44.12586" lon="7.26031">
        <ele>1709.84</ele>
        <time>2012-10-21T13:45:14Z</time>
      </trkpt>
      <trkpt lat="44.12588" lon="7.26031">
        <ele>1709.84</ele>
        <time>2012-10-21T13:46:09Z</time>
      </trkpt>
      <trkpt lat="44.12589" lon="7.26032">
        <ele>1709.36</ele>
        <time>2012-10-21T13:46:10Z</time>
      </trkpt>
      <trkpt lat="44.12593" lon="7.26041">
        <ele>1709.36</ele>
        <time>2012-10-21T13:46:17Z</time>
      </trkpt>
      <trkpt lat="44.126" lon="7.26058">
        <ele>1707.44</ele>
        <time>2012-10-21T13:46:30Z</time>
      </trkpt>
      <trkpt lat="44.12597" lon="7.2607">
        <ele>1706</ele>
        <time>2012-10-21T13:46:39Z</time>
      </trkpt>
      <trkpt lat="44.12596" lon="7.26074">
        <ele>1706</ele>
        <time>2012-10-21T13:46:41Z</time>
      </trkpt>
      <trkpt lat="44.12596" lon="7.26077">
        <ele>1706</ele>
        <time>2012-10-21T13:46:43Z</time>
      </trkpt>
      <trkpt lat="44.12593" lon="7.26086">
        <ele>1705.52</ele>
        <time>2012-10-21T13:46:49Z</time>
      </trkpt>
      <trkpt lat="44.12594" lon="7.26091">
        <ele>1705.04</ele>
        <time>2012-10-21T13:46:52Z</time>
      </trkpt>
      <trkpt lat="44.12592" lon="7.26101">
        <ele>1704.07</ele>
        <time>2012-10-21T13:47:00Z</time>
      </trkpt>
      <trkpt lat="44.12598" lon="7.2611">
        <ele>1703.11</ele>
        <time>2012-10-21T13:47:12Z</time>
      </trkpt>
      <trkpt lat="44.12599" lon="7.26113">
        <ele>1703.59</ele>
        <time>2012-10-21T13:47:37Z</time>
      </trkpt>
      <trkpt lat="44.12599" lon="7.26113">
        <ele>1703.11</ele>
        <time>2012-10-21T13:48:29Z</time>
      </trkpt>
      <trkpt lat="44.12599" lon="7.26113">
        <ele>1702.15</ele>
        <time>2012-10-21T13:49:26Z</time>
      </trkpt>
      <trkpt lat="44.12599" lon="7.26113">
        <ele>1702.15</ele>
        <time>2012-10-21T13:50:30Z</time>
      </trkpt>
      <trkpt lat="44.12599" lon="7.26113">
        <ele>1701.67</ele>
        <time>2012-10-21T13:50:53Z</time>
      </trkpt>
    </trkseg>
  </trk>
</gpx>